[[{"header":{"parameterUnit":"m.s-1","parameterCategory":1,"la1":30.6,"la2":29.2853,"lo1":-89.7004,"lo2":-87.6739,"dy":0.0162,"dx":0.0183,"nx":112,"ny":82,"refTime":"2024-09-03T12:00:00:Z","depth":0,"parameterNumber":2,"parameterNumberName":"U-component_of_WINDS"},"data":[0.0,0.0,0.0,0.0,0.0,0.0,0.0,0.0,0.0,0.0,0.0,0.0,0.0,0.0,0.0,0.0,0.0,0.0,0.0,0.0,0.0,0.0,0.0,0.0,0.0,0.0,0.0,0.0,0.0,0.0,0.0,0.0,0.0,0.0,0.0,0.0,0.0,0.0,0.0,0.0,0.0,0.0,0.0,0.0,0.0,0.0,0.0,0.0,0.0,0.0,0.0,0.0,0.0,0.0,0.0,0.0,0.0,0.0,0.0,0.0,0.0,0.0,0.0,0.0,0.0,0.0,0.0,0.0,0.0,0.0,0.0,0.0,0.0,0.0,0.0,0.0,0.0,0.0,0.0,0.0,0.0,0.0,0.0,0.0,0.0,0.0,0.0,0.0,0.0,0.0,2.796,3.0268,3.2979,3.4568,3.4414,3.3746,3.1484,2.7096,0.0,0.0,0.0,0.0,0.0,0.0,0.0,0.0,0.0,0.0,0.0,0.0,0.0,0.0,0.0,0.0,0.0,0.0,0.0,0.0,0.0,0.0,0.0,0.0,0.0,0.0,0.0,0.0,0.0,0.0,0.0,0.0,0.0,0.0,0.0,0.0,0.0,0.0,0.0,0.0,0.0,0.0,0.0,0.0,0.0,0.0,0.0,0.0,0.0,0.0,0.0,0.0,0.0,0.0,0.0,0.0,0.0,0.0,0.0,0.0,0.0,0.0,0.0,0.0,0.0,0.0,0.0,0.0,0.0,0.0,0.0,0.0,0.0,0.0,0.0,0.0,0.0,0.0,0.0,0.0,0.0,0.0,0.0,0.0,0.0,0.0,0.0,0.0,0.0,0.0,0.0,0.0,0.0,0.0,0.0,0.0,0.0,0.0,0.0,0.0,0.0,0.0,0.0,0.0,2.8888,3.3605,3.5058,3.5317,3.4481,3.334,3.0988,2.7041,0.0,0.0,0.0,0.0,0.0,0.0,0.0,0.0,0.0,0.0,0.0,0.0,0.0,0.0,0.0,0.0,0.0,0.0,0.0,0.0,0.0,0.0,0.0,0.0,0.0,0.0,0.0,0.0,0.0,0.0,0.0,0.0,0.0,0.0,0.0,0.0,0.0,0.0,0.0,0.0,0.0,0.0,0.0,0.0,0.0,0.0,0.0,0.0,0.0,0.0,0.0,0.0,0.0,0.0,0.0,0.0,0.0,0.0,0.0,0.0,0.0,0.0,0.0,0.0,0.0,0.0,0.0,0.0,0.0,0.0,0.0,0.0,0.0,0.0,0.0,0.0,0.0,0.0,0.0,0.0,0.0,0.0,0.0,0.0,0.0,0.0,0.0,0.0,0.0,0.0,0.0,0.0,0.0,0.0,0.0,0.0,0.0,0.0,0.0,0.0,0.0,0.0,0.0,2.8325,3.0716,3.5385,3.5651,3.5317,3.4887,3.3401,3.0872,2.7053,2.4631,0.0,0.0,0.0,0.0,0.0,0.0,0.0,0.0,0.0,0.0,0.0,0.0,0.0,0.0,0.0,0.0,0.0,0.0,0.0,0.0,0.0,0.0,0.0,0.0,0.0,0.0,0.0,0.0,0.0,0.0,0.0,0.0,0.0,0.0,0.0,0.0,0.0,0.0,0.0,0.0,0.0,0.0,0.0,0.0,0.0,0.0,0.0,0.0,0.0,0.0,0.0,0.0,0.0,0.0,0.0,0.0,0.0,0.0,0.0,0.0,0.0,0.0,0.0,0.0,0.0,0.0,0.0,0.0,0.0,0.0,0.0,0.0,0.0,0.0,0.0,0.0,0.0,0.0,0.0,0.0,0.0,0.0,0.0,0.0,0.0,0.0,0.0,0.0,0.0,0.0,0.0,0.0,0.0,0.0,0.0,0.0,0.0,0.0,0.0,0.0,0.0,0.0,3.1596,3.2936,3.6352,3.5911,3.5332,3.5201,3.3123,3.0393,2.7023,2.3766,0.0,0.0,0.0,0.0,0.0,0.0,0.0,0.0,0.0,0.0,0.0,0.0,0.0,0.0,0.0,0.0,0.0,0.0,0.0,0.0,0.0,0.0,0.0,0.0,0.0,0.0,0.0,0.0,0.0,0.0,0.0,0.0,0.0,0.0,0.0,0.0,0.0,0.0,0.0,0.0,0.0,0.0,0.0,0.0,0.0,0.0,0.0,0.0,0.0,0.0,0.0,0.0,0.0,0.0,0.0,0.0,0.0,0.0,0.0,0.0,0.0,0.0,0.0,0.0,0.0,0.0,0.0,0.0,0.0,0.0,0.0,0.0,0.0,0.0,0.0,0.0,0.0,0.0,0.0,0.0,0.0,0.0,0.0,0.0,0.0,0.0,0.0,0.0,0.0,0.0,0.0,0.0,0.0,0.0,0.0,0.0,0.0,0.0,0.0,0.0,0.0,0.0,3.2682,3.5467,3.6584,3.618,3.5657,3.5234,3.1877,2.8928,2.6936,2.212,0.0,0.0,0.0,0.0,0.0,0.0,0.0,0.0,0.0,0.0,0.0,0.0,0.0,0.0,0.0,0.0,0.0,0.0,0.0,0.0,0.0,0.0,0.0,0.0,0.0,0.0,0.0,0.0,0.0,0.0,0.0,0.0,0.0,0.0,0.0,0.0,0.0,0.0,0.0,0.0,0.0,0.0,0.0,0.0,0.0,0.0,0.0,0.0,0.0,0.0,0.0,0.0,0.0,0.0,0.0,0.0,0.0,0.0,0.0,0.0,0.0,0.0,0.0,0.0,0.0,0.0,0.0,0.0,0.0,0.0,0.0,0.0,0.0,0.0,0.0,0.0,0.0,0.0,0.0,0.0,0.0,0.0,0.0,0.0,0.0,0.0,0.0,0.0,0.0,0.0,0.0,0.0,0.0,0.0,0.0,0.0,0.0,0.0,0.0,0.0,0.0,0.0,3.165,3.4423,3.6943,3.6708,3.618,3.5672,3.3344,3.0455,2.7009,0.0,0.0,0.0,0.0,0.0,0.0,0.0,0.0,0.0,0.0,0.0,0.0,0.0,0.0,0.0,0.0,0.0,0.0,0.0,0.0,0.0,0.0,0.0,0.0,0.0,0.0,0.0,0.0,0.0,0.0,0.0,0.0,0.0,0.0,0.0,0.0,0.0,0.0,0.0,0.0,0.0,0.0,0.0,0.0,0.0,0.0,0.0,0.0,0.0,0.0,0.0,0.0,0.0,0.0,0.0,0.0,0.0,0.0,0.0,0.0,0.0,0.0,0.0,0.0,0.0,0.0,0.0,0.0,0.0,0.0,0.0,0.0,0.0,0.0,0.0,0.0,0.0,0.0,0.0,0.0,0.0,0.0,0.0,0.0,0.0,0.0,0.0,0.0,0.0,0.0,0.0,0.0,0.0,0.0,0.0,0.0,0.0,0.0,0.0,0.0,0.0,0.0,2.8561,3.1539,3.4379,3.7209,3.7029,3.6554,3.618,3.3622,3.0611,2.7243,0.0,0.0,0.0,0.0,0.0,0.0,0.0,0.0,0.0,0.0,0.0,0.0,0.0,0.0,0.0,0.0,0.0,0.0,0.0,0.0,0.0,0.0,0.0,0.0,0.0,0.0,0.0,0.0,0.0,0.0,0.0,0.0,0.0,0.0,0.0,0.0,0.0,0.0,0.0,0.0,0.0,0.0,0.0,0.0,0.0,0.0,0.0,0.0,0.0,0.0,0.0,0.0,0.0,0.0,0.0,0.0,0.0,0.0,0.0,0.0,0.0,0.0,0.0,0.0,0.0,0.0,0.0,0.0,0.0,0.0,0.0,0.0,0.0,0.0,0.0,0.0,0.0,0.0,0.0,0.0,0.0,0.0,0.0,0.0,0.0,0.0,0.0,0.0,0.0,0.0,0.0,0.0,0.0,0.0,0.0,0.0,0.0,0.0,0.0,0.0,0.0,0.0,2.8751,3.2787,3.5932,3.7352,3.7029,3.6723,3.6693,3.2256,2.8916,0.0,0.0,0.0,0.0,0.0,0.0,0.0,0.0,0.0,0.0,0.0,0.0,0.0,0.0,0.0,0.0,0.0,0.0,0.0,0.0,0.0,0.0,0.0,0.0,0.0,0.0,0.0,0.0,0.0,0.0,0.0,0.0,0.0,0.0,0.0,0.0,0.0,0.0,0.0,0.0,0.0,0.0,0.0,0.0,0.0,0.0,0.0,0.0,0.0,0.0,0.0,0.0,0.0,0.0,0.0,0.0,0.0,0.0,0.0,0.0,0.0,0.0,0.0,0.0,0.0,0.0,0.0,0.0,0.0,0.0,0.0,0.0,0.0,0.0,0.0,0.0,0.0,0.0,0.0,0.0,0.0,0.0,0.0,0.0,0.0,0.0,0.0,0.0,0.0,0.0,0.0,0.0,0.0,0.0,0.0,0.0,0.0,0.0,0.0,0.0,0.0,0.0,0.0,2.8751,3.2787,3.5932,3.7352,3.7361,3.7105,3.6723,3.4519,3.1512,2.7729,0.0,0.0,0.0,0.0,0.0,0.0,0.0,0.0,0.0,0.0,0.0,0.0,0.0,0.0,0.0,0.0,0.0,0.0,0.0,0.0,0.0,0.0,0.0,0.0,0.0,0.0,0.0,0.0,0.0,0.0,0.0,0.0,0.0,0.0,0.0,0.0,0.0,0.0,0.0,0.0,0.0,0.0,0.0,0.0,0.0,0.0,0.0,0.0,0.0,0.0,0.0,0.0,0.0,0.0,0.0,0.0,0.0,0.0,0.0,0.0,0.0,0.0,0.0,0.0,0.0,0.0,0.0,0.0,0.0,0.0,0.0,0.0,0.0,0.0,0.0,0.0,0.0,0.0,0.0,0.0,0.0,0.0,0.0,0.0,0.0,0.0,0.0,0.0,0.0,0.0,0.0,0.0,0.0,0.0,0.0,0.0,0.0,0.0,0.0,0.0,0.0,0.0,2.8783,3.3014,3.6232,3.7399,3.751,3.7375,3.7044,3.5352,3.2616,2.8682,0.0,0.0,0.0,0.0,0.0,0.0,0.0,0.0,0.0,0.0,0.0,0.0,0.0,0.0,0.0,0.0,0.0,0.0,0.0,0.0,0.0,0.0,0.0,0.0,0.0,0.0,0.0,0.0,0.0,0.0,0.0,0.0,0.0,0.0,0.0,0.0,0.0,0.0,0.0,0.0,0.0,0.0,0.0,0.0,0.0,0.0,0.0,0.0,0.0,0.0,0.0,0.0,0.0,0.0,0.0,0.0,0.0,0.0,0.0,0.0,0.0,0.0,0.0,0.0,0.0,0.0,0.0,0.0,0.0,0.0,0.0,0.0,0.0,0.0,0.0,0.0,0.0,0.0,0.0,0.0,0.0,0.0,0.0,0.0,0.0,0.0,0.0,0.0,0.0,0.0,0.0,0.0,0.0,0.0,0.0,0.0,0.0,0.0,0.0,0.0,0.0,0.0,2.883,3.3377,3.669,3.7431,3.751,3.751,3.751,3.5318,3.2827,3.0161,0.0,0.0,0.0,0.0,0.0,0.0,0.0,0.0,0.0,0.0,0.0,0.0,0.0,0.0,0.0,0.0,0.0,0.0,0.0,0.0,0.0,0.0,0.0,0.0,0.0,0.0,0.0,0.0,0.0,0.0,0.0,0.0,0.0,0.0,0.0,0.0,0.0,0.0,0.0,0.0,0.0,0.0,0.0,0.0,0.0,0.0,0.0,0.0,0.0,0.0,0.0,0.0,0.0,0.0,0.0,0.0,0.0,0.0,0.0,0.0,3.0861,2.8532,0.0,0.0,0.0,0.0,0.0,0.0,0.0,0.0,0.0,0.0,0.0,0.0,0.0,0.0,0.0,0.0,0.0,0.0,0.0,0.0,0.0,0.0,0.0,0.0,0.0,0.0,0.0,0.0,0.0,0.0,0.0,0.0,0.0,0.0,0.0,0.0,0.0,0.0,0.0,0.0,2.883,3.3377,3.669,3.7431,3.751,3.751,3.751,3.6461,3.4556,3.1555,2.7961,0.0,0.0,0.0,0.0,0.0,0.0,0.0,0.0,0.0,0.0,0.0,0.0,0.0,0.0,0.0,0.0,0.0,0.0,0.0,0.0,0.0,0.0,0.0,0.0,0.0,0.0,0.0,0.0,0.0,0.0,0.0,0.0,0.0,0.0,0.0,0.0,0.0,0.0,0.0,0.0,0.0,0.0,0.0,0.0,0.0,0.0,0.0,0.0,0.0,0.0,0.0,0.0,0.0,0.0,0.0,0.0,0.0,0.0,0.0,3.6346,3.3877,0.0,0.0,0.0,0.0,0.0,0.0,0.0,0.0,0.0,0.0,0.0,0.0,0.0,0.0,0.0,0.0,0.0,0.0,0.0,0.0,0.0,0.0,0.0,0.0,0.0,0.0,0.0,0.0,0.0,0.0,0.0,0.0,0.0,0.0,0.0,0.0,0.0,0.0,0.0,0.0,2.9406,3.3909,3.7069,3.7462,3.751,3.751,3.751,3.6832,3.542,3.3143,3.0108,0.0,0.0,0.0,0.0,0.0,0.0,0.0,0.0,0.0,0.0,0.0,0.0,0.0,0.0,0.0,0.0,0.0,0.0,0.0,0.0,0.0,0.0,0.0,0.0,0.0,0.0,0.0,0.0,0.0,0.0,0.0,0.0,0.0,0.0,0.0,0.0,0.0,0.0,0.0,0.0,0.0,0.0,0.0,0.0,0.0,0.0,0.0,0.0,0.0,0.0,0.0,0.0,0.0,4.348,4.493,4.558,4.6191,4.7253,4.832,4.202,4.0137,4.1149,3.6025,0.0,0.0,0.0,0.0,0.0,0.0,0.0,0.0,0.0,0.0,0.0,0.0,0.0,0.0,0.0,0.0,0.0,0.0,0.0,0.0,0.0,0.0,3.4044,3.4044,3.5528,3.576,3.1426,0.0,0.0,0.0,0.0,0.0,0.0,0.0,0.0,0.0,0.0,0.0,3.0378,3.4632,3.751,3.751,3.751,3.751,3.751,3.6943,3.6058,3.4747,3.226,2.9641,0.0,0.0,0.0,0.0,0.0,0.0,0.0,0.0,0.0,0.0,0.0,0.0,0.0,0.0,0.0,0.0,0.0,0.0,0.0,0.0,0.0,0.0,0.0,0.0,0.0,0.0,0.0,0.0,0.0,0.0,0.0,0.0,2.777,3.096,0.0,0.0,0.0,0.0,0.0,0.0,0.0,0.0,0.0,0.0,0.0,0.0,0.0,4.165,4.386,4.6287,4.7898,4.8717,5.0397,5.1285,5.1393,5.1195,5.1598,5.2372,5.0467,0.0,4.4225,4.0376,0.0,0.0,0.0,0.0,0.0,0.0,0.0,0.0,0.0,0.0,0.0,0.0,0.0,0.0,0.0,0.0,0.0,0.0,0.0,0.0,0.0,0.0,3.9398,3.9398,4.005,4.0348,3.91,3.4286,2.9799,2.8441,2.7062,2.5322,0.0,0.0,0.0,0.0,0.0,0.0,3.1754,3.5233,3.751,3.751,3.751,3.751,3.751,3.7415,3.699,3.6172,3.4632,3.2975,3.1262,2.8196,0.0,0.0,0.0,0.0,0.0,0.0,0.0,0.0,0.0,0.0,0.0,0.0,0.0,0.0,0.0,0.0,0.0,0.0,0.0,0.0,0.0,0.0,0.0,0.0,0.0,0.0,0.0,0.0,0.0,2.7316,3.0995,3.275,3.3178,3.2783,0.0,0.0,0.0,0.0,0.0,0.0,0.0,0.0,0.0,4.3987,4.5599,4.7138,4.8659,5.0615,5.1774,5.2136,5.3711,5.4472,5.4472,5.4611,5.4881,5.5169,5.407,5.2294,4.977,4.5383,4.2312,4.0133,0.0,0.0,0.0,0.0,3.7335,3.7602,3.9916,4.0337,3.9496,3.7592,0.0,0.0,0.0,0.0,0.0,0.0,0.0,3.4883,3.6373,3.8858,4.1061,4.1475,4.1663,4.1679,4.1366,3.8526,3.5263,3.2546,3.1274,2.9412,2.5488,2.5694,0.0,0.0,0.0,3.195,3.323,3.5818,3.751,3.751,3.751,3.751,3.751,3.7225,3.6904,3.6607,3.5106,3.4009,3.3479,3.0907,2.8036,0.0,0.0,0.0,0.0,0.0,0.0,0.0,0.0,0.0,0.0,0.0,0.0,0.0,0.0,0.0,0.0,0.0,0.0,0.0,0.0,0.0,0.0,0.0,0.0,0.0,0.0,0.0,0.0,3.106,3.4044,3.5203,3.676,3.6926,0.0,0.0,0.0,0.0,0.0,0.0,4.2828,4.5055,4.7174,4.9184,5.0778,5.1905,5.2498,5.3892,5.4575,5.452,5.5659,5.6176,5.6118,5.6428,5.6582,5.6519,5.5649,5.4943,5.4055,4.9614,4.6883,4.5257,4.3092,4.1876,4.1551,4.2999,4.3185,4.3131,4.6187,4.6595,4.5425,4.3057,4.1741,4.0358,3.6395,0.0,0.0,0.0,0.0,3.7731,3.9195,4.0619,4.186,4.2501,4.2443,4.2264,4.2157,4.1332,3.9634,3.64,3.539,3.3652,2.9266,2.9579,0.0,2.8869,3.1476,3.3862,3.4731,3.639,3.751,3.751,3.751,3.751,3.751,3.6998,3.6693,3.6693,3.541,3.4677,3.4758,3.3125,3.0902,2.805,0.0,0.0,0.0,0.0,0.0,0.0,0.0,0.0,0.0,0.0,0.0,0.0,0.0,0.0,0.0,0.0,0.0,0.0,0.0,0.0,0.0,0.0,0.0,0.0,0.0,0.0,0.0,0.0,0.0,4.0069,4.176,0.0,0.0,0.0,0.0,4.1162,4.3534,4.6269,4.9459,5.1176,5.248,5.3367,5.4888,5.5703,5.5758,5.6591,5.6899,5.6659,5.6731,5.6635,5.6357,5.607,5.5947,5.5947,5.5631,5.5449,5.5197,5.2271,5.0573,4.9672,4.8528,4.8091,4.8109,4.8232,4.8188,4.8136,4.8329,4.7393,4.6178,4.6686,4.4845,4.236,4.2088,4.1077,0.0,0.0,4.1077,4.1463,4.2936,4.2886,4.2563,4.2974,4.3047,4.2956,4.263,4.1769,4.0858,4.0215,3.9296,3.7921,3.5678,0.0,3.3799,3.3087,3.3704,3.4747,3.6108,3.7006,3.751,3.751,3.751,3.751,3.751,3.6998,3.6693,3.6693,3.615,3.5629,3.5195,3.4935,3.3351,3.0203,2.7673,0.0,0.0,0.0,0.0,0.0,0.0,0.0,0.0,0.0,0.0,0.0,0.0,0.0,0.0,0.0,0.0,0.0,0.0,0.0,0.0,0.0,0.0,0.0,0.0,0.0,0.0,0.0,0.0,4.3465,4.6027,0.0,4.453,4.5037,4.5961,4.7029,4.8858,5.0886,5.3078,5.4182,5.5106,5.5921,5.6482,5.6772,5.6772,5.7062,5.7079,5.6794,5.6794,5.668,5.6401,5.606,5.5918,5.589,5.5607,5.5507,5.542,5.4429,5.3525,5.2732,5.1849,5.154,5.1558,5.1558,5.1329,5.0954,5.0467,4.9706,4.8779,4.7785,4.6166,4.4622,4.4622,4.4257,4.391,4.4158,4.4224,4.4357,4.4887,4.4321,4.3612,4.3783,4.3099,4.2412,4.2285,4.1837,4.1373,4.1199,4.0165,3.8612,3.6534,3.6986,3.7117,3.5524,3.635,3.7156,3.7233,3.7173,3.6938,3.6523,3.6461,3.6461,3.6461,3.6038,3.5539,3.5116,3.4641,3.4238,3.3999,3.3933,3.2796,3.0425,2.908,2.6148,0.0,0.0,0.0,0.0,0.0,0.0,0.0,0.0,0.0,0.0,0.0,0.0,0.0,0.0,0.0,0.0,0.0,0.0,0.0,0.0,0.0,0.0,0.0,0.0,0.0,4.1742,4.5116,4.6359,4.9394,5.0631,4.8695,4.9727,5.085,5.1647,5.2933,5.4255,5.5595,5.6138,5.6645,5.717,5.7188,5.7188,5.7188,5.6923,5.6661,5.6393,5.6284,5.608,5.5833,5.5775,5.5764,5.5764,5.5596,5.5507,5.5507,5.5507,5.5191,5.4665,5.4173,5.3963,5.3963,5.3963,5.3568,5.2844,5.1526,5.0837,5.022,4.8334,4.7193,4.6527,4.6527,4.6527,4.6527,4.6527,4.6361,4.6131,4.5988,4.5254,4.4507,4.4268,4.3299,4.2445,4.233,4.1927,4.1588,4.1588,4.0846,3.9708,3.8082,3.8965,3.9266,3.7431,3.8044,3.8486,3.7831,3.7245,3.6713,3.6275,3.6017,3.5913,3.5913,3.5237,3.4785,3.453,3.3662,3.3229,3.336,3.3103,3.2243,3.0724,2.9607,2.7088,2.3037,0.0,0.0,0.0,0.0,0.0,0.0,0.0,0.0,0.0,0.0,0.0,0.0,0.0,0.0,0.0,0.0,0.0,0.0,0.0,0.0,0.0,0.0,0.0,4.1886,4.5343,4.8206,4.8981,5.1882,5.2878,5.0565,5.2426,5.4128,5.4907,5.5631,5.6373,5.7152,5.7188,5.7188,5.7188,5.7188,5.7188,5.7163,5.6421,5.5879,5.5583,5.5261,5.4996,5.4741,5.5282,5.5507,5.5507,5.5478,5.5478,5.5478,5.5448,5.5448,5.5448,5.5478,5.5478,5.5478,5.5478,5.494,5.3865,5.1451,5.0602,5.0311,4.8575,4.8034,4.8034,4.8017,4.8001,4.8001,4.8001,4.7487,4.6828,4.6422,4.5848,4.5114,4.4422,4.3725,4.3114,4.2812,4.2141,4.162,4.162,4.1604,4.1383,4.0703,4.0592,4.0162,3.8908,3.8718,0.0,3.7898,3.7301,3.6907,3.6862,3.6288,3.5879,3.5849,3.4831,3.4486,3.508,3.3472,3.2788,3.3416,3.2694,3.1976,3.1352,2.9404,2.7369,2.5238,0.0,0.0,0.0,0.0,0.0,0.0,0.0,0.0,0.0,0.0,0.0,0.0,0.0,0.0,0.0,0.0,0.0,0.0,0.0,0.0,0.0,4.2721,4.6395,4.6101,4.9528,5.2353,5.315,5.5015,5.5975,5.5305,5.5848,5.6319,5.6554,5.6754,5.6971,5.7188,5.7188,5.7188,5.7188,5.7188,5.6923,5.6322,5.651,5.6128,5.5231,5.5549,5.5525,5.5282,5.5448,5.5507,5.5478,5.5083,5.4913,5.4882,5.4506,5.4348,5.4411,5.5221,5.5252,5.4913,5.4913,5.396,5.2492,5.148,5.076,5.0126,4.9144,4.8812,4.8696,4.8166,4.8001,4.8001,4.8001,4.7852,4.7588,4.7176,4.6386,4.5549,4.5092,4.4257,4.3524,4.3437,4.2884,4.2394,4.2394,4.1952,4.1426,4.0854,4.0387,3.9952,3.9631,3.9249,3.8767,3.8118,3.7553,3.6828,3.5893,3.5663,3.5335,3.485,3.4541,3.4017,3.3305,3.2765,3.235,3.2063,3.1839,3.1842,3.2163,2.9827,2.8598,0.0,0.0,0.0,0.0,0.0,0.0,0.0,0.0,0.0,0.0,0.0,0.0,0.0,0.0,0.0,0.0,0.0,0.0,0.0,0.0,0.0,0.0,4.7191,5.0695,5.1117,5.3186,5.4961,5.5776,5.6645,5.7188,5.7188,5.7188,5.7188,5.7188,5.7514,5.7695,5.7695,5.8021,5.8202,5.8202,5.7836,5.7532,5.7295,5.6564,5.5912,5.5278,5.5153,5.4861,5.4506,5.4741,5.4834,5.4803,5.4506,5.4379,5.4348,5.4284,5.4106,5.3977,0.0,0.0,0.0,0.0,5.3686,5.2672,5.1865,5.1293,5.0809,4.9857,4.9359,4.9028,4.8597,4.8249,4.7968,4.7787,4.7754,4.7638,4.71,4.6484,4.5936,4.5601,4.4795,4.4027,4.3815,4.3212,4.2598,4.2058,4.1395,0.0,4.0207,4.0181,4.013,3.9636,3.9307,3.8883,3.8215,3.7653,3.7012,3.6293,3.5726,3.5247,3.4835,3.4327,0.0,0.0,0.0,3.2191,3.154,3.1495,0.0,0.0,0.0,0.0,0.0,3.1394,0.0,0.0,2.9714,2.9756,0.0,0.0,0.0,0.0,0.0,0.0,0.0,0.0,0.0,0.0,0.0,0.0,0.0,0.0,0.0,0.0,5.1133,5.4284,5.5822,5.6045,5.6317,5.7116,5.7188,5.7188,5.7188,5.7279,5.7333,5.7333,5.8076,5.8546,5.8546,5.9216,0.0,0.0,0.0,5.8527,5.8836,5.6685,5.5583,5.5453,5.4557,5.3904,5.3466,5.3835,5.4032,5.4032,5.3881,5.3814,5.3847,5.4284,5.4188,5.3847,5.4348,5.4235,5.3814,5.3748,5.3715,5.3564,5.2455,0.0,0.0,5.0706,4.9889,4.9326,4.916,4.8614,4.7952,4.7504,4.7371,4.7168,4.6461,4.6285,4.623,4.5864,4.5317,4.4701,4.4143,4.3417,4.2572,4.1468,4.0626,3.9921,3.9297,3.9925,4.0146,3.9162,3.8995,3.8811,3.8277,3.7738,3.7389,3.7317,3.6272,0.0,3.5508,3.4404,3.3925,3.4385,3.3296,3.2396,3.1828,3.1917,3.1959,3.2063,3.3195,3.4166,3.4917,3.6058,3.6864,3.7228,3.2466,3.1945,0.0,0.0,0.0,0.0,0.0,0.0,0.0,0.0,0.0,0.0,0.0,0.0,0.0,0.0,0.0,4.9087,5.2071,5.4611,5.6036,5.6242,5.6473,5.712,5.7188,5.7188,5.7188,5.7786,5.8166,5.8166,5.8909,5.9379,5.9379,5.9524,5.9491,5.9204,5.9031,5.8354,5.7115,5.7042,5.6458,5.536,5.557,0.0,5.5519,5.5007,5.4801,5.4734,5.3703,5.3247,5.3247,5.2956,5.3008,5.3281,5.3382,5.3349,5.3213,5.2817,5.2711,5.2642,5.2404,5.2319,5.2202,5.1367,5.1,5.0634,4.9458,4.8777,0.0,4.7585,4.7218,4.6911,4.6426,4.6285,4.623,4.5864,4.5697,4.5566,4.5457,4.444,4.353,4.3297,4.19,4.0512,3.9936,3.9195,3.8634,3.8389,3.8352,3.8315,3.8202,3.8101,3.7839,3.736,3.7085,3.6707,3.617,3.5465,3.4869,3.4443,3.3703,3.3456,3.3833,3.4341,3.4849,3.5372,3.5633,3.5892,3.6234,3.6482,3.7319,3.8674,3.6575,3.632,0.0,0.0,0.0,0.0,0.0,0.0,0.0,0.0,0.0,0.0,0.0,4.1698,4.3654,0.0,5.0028,5.2283,5.4162,5.5572,5.6229,5.6354,5.6583,5.7141,5.7188,5.7351,5.775,5.8166,5.8565,5.8981,5.9457,5.9853,6.0186,6.0102,6.0188,6.0548,5.9633,5.8932,5.8424,5.7491,5.6662,5.5905,5.5766,5.5562,5.5314,5.4927,5.4759,5.4673,5.3688,5.3265,5.3213,5.2649,5.2694,5.3077,5.2835,5.2888,5.3043,5.2553,5.2409,5.2409,5.2409,5.2409,5.2359,5.1978,5.1614,5.1131,5.0195,4.9384,4.859,4.7647,4.7168,4.6772,4.6191,4.6048,4.6028,4.5844,4.5807,4.5625,4.4986,4.4332,4.3564,4.2619,4.1673,4.0817,4.0171,3.9294,3.8594,3.826,3.8202,3.8202,3.8202,3.8202,3.8086,3.7781,3.7491,3.7172,3.6838,3.6214,3.5706,3.5386,3.5067,3.5038,3.5343,3.5662,3.5981,3.6301,3.6635,3.6845,3.6953,3.7594,3.8384,3.9283,3.9047,3.9283,0.0,0.0,0.0,0.0,0.0,0.0,0.0,3.7775,3.8744,4.2068,4.4116,4.6152,4.8931,5.0826,5.2693,5.4896,5.585,5.6291,5.6166,5.6241,5.6476,5.6979,5.6915,5.7195,5.8156,5.8372,5.8858,5.9751,6.0074,6.0449,6.1019,6.0753,6.0927,6.1636,6.0062,5.9347,5.9674,5.7825,5.6771,5.6533,5.5892,5.5369,5.4941,5.4792,5.4705,5.4655,5.3947,5.3549,5.3367,5.2821,5.2757,5.2939,5.257,5.2624,5.2922,5.2535,5.2409,5.2409,5.2409,5.2409,5.2409,5.2409,5.194,5.1305,5.0837,4.9984,4.893,4.7738,4.7152,4.6705,4.5984,4.5807,4.5807,4.5807,4.5682,4.5321,4.4312,4.3873,4.3268,4.177,4.1258,4.0931,4.0379,3.9784,3.916,3.8492,3.8289,3.8202,3.8202,3.8202,3.8202,3.8202,3.7767,3.7433,3.7317,3.6809,3.6446,3.6315,3.6301,3.6359,3.6504,3.6504,3.6562,3.6678,3.7331,3.768,3.768,3.8826,3.9552,3.9938,4.0674,4.1181,3.2696,3.3368,3.5108,3.9842,3.9537,4.0204,0.0,4.7745,4.6223,4.8585,5.0745,5.1926,5.111,5.3158,5.4939,5.4719,5.5315,5.5758,5.5608,5.5605,5.5802,5.6346,5.5932,5.612,5.7465,5.8254,5.9229,6.0557,6.1326,6.1796,6.1851,6.129,6.0789,6.0419,5.9626,5.8789,5.792,5.7634,5.723,5.6679,5.6596,5.6508,5.6415,5.5786,5.5466,5.5433,5.4688,5.403,5.34,5.3334,5.2973,5.2464,5.2409,5.2445,5.248,5.2409,5.2409,5.2409,5.2409,5.2409,5.2409,5.2409,5.2092,5.1605,5.0929,5.0115,4.9175,4.7794,4.7123,4.666,4.5965,4.5807,4.5807,4.5807,4.5358,4.4849,4.4737,4.3873,4.3046,4.2812,4.1873,4.1076,4.1004,4.0437,3.9784,3.9175,3.858,3.8202,3.8202,3.8202,3.8202,3.8202,3.8144,3.7883,3.736,3.7244,3.6939,3.6344,3.6301,3.6577,3.7172,3.7201,3.7447,3.7984,3.8652,3.8986,3.8986,3.9668,4.049,4.147,4.1543,4.173,3.9225,4.0084,4.0888,4.3534,4.4446,4.5774,4.9872,4.9744,4.9328,5.1469,5.2716,5.3254,5.2637,5.3514,5.4512,5.5055,5.5468,5.5655,5.552,5.5566,5.5379,5.4769,5.4443,5.5156,5.7298,5.7881,5.8544,5.9573,5.9867,6.0215,6.0651,5.9724,5.9363,5.9721,5.8875,5.8246,5.7853,5.7443,5.7063,5.668,5.668,5.668,5.668,5.6382,5.6017,5.5565,5.5251,5.4705,5.403,5.3599,5.3235,5.2937,5.2539,5.2409,5.2409,5.2409,5.2409,5.2409,5.2409,5.2409,5.2409,5.2409,5.2122,5.1676,5.1129,5.0443,4.9636,4.8556,4.802,4.7617,4.7124,4.6708,4.6281,4.5931,4.5326,4.4624,4.3897,4.3364,4.2915,4.2541,4.2065,4.1671,4.1671,4.112,4.0597,4.0336,3.9436,3.8783,3.8783,3.8449,3.8202,3.8202,3.8202,3.8101,3.7854,3.7825,3.7709,3.7433,3.7418,3.7535,3.7825,3.7825,3.7852,3.7969,3.8774,3.9092,3.8894,4.0112,4.0975,4.1532,4.2073,4.2395,4.3295,4.454,4.5473,4.6866,4.87,5.0362,5.1285,5.1415,5.1785,5.3274,5.3545,5.3501,5.3501,5.367,5.4194,5.5377,5.5791,5.5908,5.56,5.5638,5.5228,5.3904,5.3618,5.4331,5.6446,5.6924,5.7551,5.8622,5.8619,5.8869,5.9591,5.8599,5.8335,5.8993,5.8122,5.7665,5.7637,5.7164,5.6834,5.668,5.668,5.668,5.668,5.668,5.6398,5.5918,5.5918,5.5466,5.4738,5.4208,5.3781,5.3367,5.287,5.2539,5.2409,5.2409,5.2409,5.2409,5.2409,5.2409,5.2409,5.2409,5.2122,5.1688,5.1247,5.0704,5.0043,4.9168,4.8717,4.8439,4.8016,4.7331,4.6649,4.6043,4.521,4.428,4.321,4.2875,4.2607,4.2175,4.2092,4.2092,4.2092,4.17,4.1381,4.1381,4.0423,3.9654,3.9465,3.903,3.8667,3.8492,3.8478,3.8405,3.8217,3.8202,3.8202,3.8202,3.8376,3.8478,3.8478,3.8395,3.8388,3.8411,3.9007,3.9361,3.9371,4.0709,4.1488,4.1675,4.2386,4.2809,4.2523,4.4353,4.7196,5.026,5.2006,5.3438,5.5127,5.4955,5.4465,5.4533,5.3974,5.3501,5.3501,5.4076,5.4803,5.5547,5.6292,5.6511,5.5784,5.57,5.5366,5.4485,5.3865,5.3767,5.4425,5.5211,5.644,5.8363,5.8503,5.8771,5.9375,5.8703,5.8214,5.8072,5.7372,5.6949,5.6757,5.6719,5.6735,5.668,5.668,5.668,5.668,5.668,5.668,5.6663,5.6663,5.6249,5.5549,5.5532,5.4672,5.3417,5.3384,5.297,5.2409,5.2409,5.2409,5.2409,5.2409,5.2409,5.2409,5.2409,5.2122,5.1688,5.1247,5.08,5.0272,4.9179,4.8873,4.8737,4.8067,4.7355,4.6656,4.6036,4.4898,4.3753,4.3129,4.2541,4.2133,4.2092,4.2092,4.2092,4.2092,4.2078,4.2063,4.2063,4.1482,4.08,4.0162,4.0046,3.9813,3.9233,3.9175,3.8913,3.826,3.8202,3.8202,3.8202,3.8812,3.9175,3.9175,3.8868,3.91,4.0021,3.982,4.0106,4.1021,4.1744,4.2172,4.2363,4.2607,4.2809,4.6007,4.8171,5.013,5.2197,5.3771,5.4856,5.4939,5.4769,5.4448,5.3974,5.3247,5.2706,5.2706,5.2909,5.3331,5.4126,5.5277,5.5818,5.5074,5.5818,5.577,5.4022,5.4042,5.4127,5.3834,5.4481,5.5416,5.6576,5.6848,5.7287,5.7963,5.7975,5.7704,5.7164,5.7398,5.7255,5.6697,5.668,5.668,5.668,5.668,5.668,5.668,5.668,5.668,5.668,5.668,5.6547,5.6299,5.5819,5.5003,5.4096,5.3599,5.2986,5.2409,5.2409,5.2409,5.2409,5.2409,5.2409,5.2354,5.2086,5.1688,5.1247,5.0816,5.0409,5.0026,4.967,4.9568,4.9521,4.9299,4.8717,4.802,4.7465,4.6238,4.4955,4.389,4.3157,4.2571,4.2179,4.2092,4.2092,4.2092,4.2092,4.2092,4.2092,4.1526,4.0858,4.0191,4.0104,4.0017,3.9813,3.9258,3.88,3.8533,3.7943,3.7618,3.7618,3.7812,3.8224,3.8845,3.8746,3.874,3.8894,4.0035,4.0055,3.8925,4.1197,4.209,4.1659,4.1922,4.232,4.8798,5.0676,5.2097,5.416,5.5209,5.5649,5.5429,5.4972,5.4296,5.3281,5.2232,5.1352,5.0828,5.0507,5.0845,5.2435,5.3704,5.4617,5.4955,5.6038,5.6173,5.4499,5.4702,5.482,5.4346,5.4718,5.5122,5.5471,5.5926,5.6562,5.7435,5.7681,5.769,5.7475,5.7939,5.7823,5.7094,5.7077,5.6945,5.668,5.668,5.668,5.668,5.668,5.668,5.668,5.668,5.668,5.6647,5.62,5.557,5.4804,5.4096,5.3367,5.2721,5.2473,5.2302,5.2194,5.2338,5.2302,5.2158,5.1888,5.1487,5.1043,5.0624,5.0331,5.0058,4.9955,4.9876,4.9876,4.9876,4.941,4.8701,4.7852,4.6747,4.5563,4.4258,4.3489,4.2876,4.2498,4.2237,4.2092,4.2092,4.2092,4.2092,4.2092,4.1729,4.1294,4.0858,4.08,4.0593,4.0012,3.9741,3.9302,3.875,3.8435,3.8145,3.7812,3.8353,3.8769,3.9073,3.8936,3.8975,3.9104,3.9646,3.941,3.8296,4.0374,4.1339,4.1184,4.1764,4.2487,5.0762,5.1944,5.323,5.6139,5.6308,5.5953,5.6596,5.553,5.3991,5.2452,5.0896,4.9373,4.7953,4.7225,4.7767,5.0591,5.1843,5.323,5.5361,5.6393,5.663,5.5869,5.58,5.5833,5.5835,5.5869,5.5709,5.5314,5.5863,5.6717,5.7852,5.7889,5.8204,5.8883,5.8933,5.8601,5.7856,5.7806,5.7425,5.668,5.668,5.668,5.668,5.668,5.668,5.668,5.668,5.668,5.668,5.668,5.6266,5.5516,5.4771,5.4063,5.3334,5.2638,5.2158,5.1851,5.2266,5.2122,5.1778,5.1741,5.145,5.1005,5.0586,5.0486,5.0409,4.9995,4.9876,4.9876,4.9876,4.9405,4.8651,4.7404,4.6545,4.5645,4.4369,4.3572,4.3079,4.305,4.2557,4.2136,4.2107,4.2092,4.2092,4.2051,4.2009,4.2009,4.2009,4.2009,4.1417,3.9845,4.0412,4.0333,3.878,3.9444,3.9524,3.8642,4.0028,4.0494,3.9648,3.9319,3.9549,4.0418,3.8765,3.8264,3.9118,3.9455,4.0097,4.0972,4.2053,4.3049,5.3129,5.4668,5.597,5.7289,5.707,5.6427,5.6072,5.3957,5.1657,5.0152,4.7784,4.5686,4.4711,4.6215,4.7885,4.8599,5.2148,5.4854,5.4871,5.6934,5.7966,5.6681,5.7509,5.7949,5.7391,5.7848,5.7985,5.7574,5.7202,5.7615,5.9009,5.9292,5.9264,5.8916,5.9429,5.9363,5.8634,5.8055,5.7425,5.668,5.668,5.668,5.668,5.668,5.668,5.668,5.668,5.668,5.668,5.668,5.6266,5.5516,5.4771,5.4063,5.3334,5.2638,5.2158,5.1851,5.2266,5.2122,5.1704,5.1038,5.093,5.0968,5.0253,5.0073,5.0034,4.9916,4.9876,4.9876,4.9876,4.9797,4.9454,4.8589,4.7897,4.7056,4.5717,4.4907,4.4269,4.3819,4.321,4.2629,4.2179,4.2092,4.1856,4.1113,4.0972,4.0972,4.0972,4.0972,4.0561,3.9445,3.8905,3.8497,3.8083,3.7609,3.726,3.7001,3.7345,3.7787,3.8251,3.8217,3.8283,3.8509,3.872,3.8495,3.7698,3.9363,4.0286,4.0448,4.163,4.222,5.504,5.641,5.7306,5.7391,5.6867,5.5784,5.3721,5.1691,4.9357,4.6227,4.4265,4.2557,4.0832,4.2963,4.5297,4.6295,5.0557,5.4059,5.4955,5.7357,5.871,5.7865,5.8795,5.9319,5.8896,5.9252,5.9473,5.9504,5.8734,5.868,5.9675,5.9899,5.996,5.9877,6.0274,6.0125,5.9396,5.832,5.7574,5.716,5.6846,5.668,5.668,5.668,5.668,5.668,5.668,5.668,5.668,5.668,5.6448,5.6017,5.5251,5.4506,5.3814,5.3102,5.226,5.1524,5.1745,5.1561,5.1188,5.0854,5.0663,5.0486,5.0034,4.9876,4.9876,4.9876,4.9876,4.9876,4.9876,4.9876,4.9741,4.9066,4.8407,4.7586,4.6556,4.5566,4.4705,4.411,4.3689,4.3326,4.2992,4.2934,4.2594,4.1563,4.1374,4.1054,4.0181,3.9997,3.9637,3.8675,3.8464,3.8251,3.7854,3.7704,3.7428,3.7036,3.7381,3.7658,3.7808,3.8057,3.8141,3.8141,3.8503,3.8286,3.755,3.8882,3.97,4.0065,4.1695,4.238,5.6545,5.7408,5.7712,5.6985,5.6105,5.4499,5.0913,4.9069,4.6735,4.1897,4.0595,3.9529,3.6981,3.8988,4.183,4.4225,4.8308,5.2233,5.5294,5.7575,5.9049,5.915,5.9894,6.0402,6.0402,6.0402,6.0596,6.1004,6.0287,5.9904,6.019,6.0142,6.044,6.1086,6.1102,6.0755,6.0009,5.8734,5.7988,5.779,5.7144,5.6779,5.668,5.668,5.668,5.668,5.668,5.668,5.668,5.668,5.668,5.6614,5.5901,5.5201,5.4523,5.3658,5.2437,5.1248,5.1151,5.0816,5.0486,5.0816,5.0509,4.9955,4.9931,4.9876,4.9876,4.9876,4.9876,4.9876,4.9876,4.9876,4.9701,4.8944,4.8309,4.7706,4.6916,4.5859,4.4835,4.4226,4.411,4.4081,4.4008,4.3892,4.3428,4.2396,4.2098,4.1356,3.9468,3.9196,3.8871,3.7938,3.8554,3.8735,3.7905,3.8554,3.869,3.7905,3.8599,3.869,3.7846,3.828,3.8506,3.8506,3.8191,3.804,3.8165,3.8559,3.9159,3.9996,4.2109,4.3055,5.7306,5.7797,5.7712,5.6985,5.5344,5.3213,5.0676,4.665,4.2675,3.9935,3.7398,3.5504,3.4979,3.7855,4.1255,4.4141,4.8308,5.2233,5.5294,5.7575,5.9235,5.9844,6.1146,6.1992,6.1992,6.1992,6.1947,6.1834,6.1512,6.127,6.1159,6.0987,6.0986,6.1102,6.1102,6.0755,6.0009,5.9744,5.9015,5.779,5.7657,5.7276,5.668,5.668,5.668,5.668,5.668,5.668,5.668,5.668,5.668,5.6614,5.5901,5.5516,5.5197,5.3527,5.2524,5.1912,5.1313,5.0624,5.0034,5.0073,5.0253,5.0331,4.9995,4.9876,4.9876,4.9876,4.9876,4.9876,4.9876,4.9876,4.9582,4.8366,4.7988,4.7563,4.6358,4.5883,4.5518,4.4864,4.4734,4.4574,4.4081,4.3282,4.2351,4.1384,4.0475,3.9529,3.8371,3.8894,3.9003,3.8043,3.8092,3.814,3.8007,3.8092,3.814,3.7958,3.814,3.814,3.7958,3.8046,3.8097,3.8097,3.8051,3.834,3.9094,3.9946,4.0523,4.0772,4.2787,4.3413,5.7137,5.7594,5.7628,5.6511,5.4854,5.2401,4.8189,4.409,4.0096,3.6304,3.4375,3.3119,3.2357,3.591,3.9563,4.1373,4.5432,4.9661,5.3416,5.5886,5.8,5.9877,6.145,6.2381,6.2381,6.2381,6.2285,6.2037,6.1917,6.1773,6.1547,6.1482,6.1359,6.1252,6.1252,6.1044,6.0589,6.0191,5.9446,5.8369,5.7972,5.7392,5.668,5.668,5.668,5.668,5.668,5.668,5.668,5.668,5.668,5.6647,5.6316,5.5951,5.545,5.4171,5.3046,5.209,5.1361,5.0547,4.9876,4.9876,5.0034,5.0136,4.9955,4.9876,4.9876,4.9876,4.9876,4.9876,4.9876,4.9622,4.9325,4.9,4.8407,4.7521,4.618,4.588,4.5779,4.5459,4.5401,4.5314,4.5024,4.4538,4.3865,4.2875,4.1815,4.0821,3.9769,3.9583,3.9167,3.8114,3.8002,3.8002,3.8002,3.8002,3.8002,3.8002,3.8002,3.8002,3.8002,3.8304,3.8454,3.8454,3.873,3.936,4.0319,4.0913,4.1474,4.2097,4.3848,4.4224,5.6714,5.7222,5.734,5.6038,5.4126,5.115,4.5816,4.1771,3.7845,3.3241,3.2056,3.1512,3.0531,3.3964,3.7449,3.8988,4.2455,4.6633,5.1403,5.4042,5.6579,5.9522,6.1231,6.2229,6.2364,6.2381,6.2325,6.2093,6.2093,6.1974,6.1709,6.1669,6.1547,6.1383,6.1359,6.1252,6.1102,6.0374,5.9628,5.8883,5.8138,5.7392,5.668,5.668,5.668,5.668,5.668,5.668,5.668,5.668,5.668,5.668,5.668,5.6349,5.5714,5.4729,5.3531,5.23,5.1312,5.0525,4.9876,4.9876,4.9876,4.9876,4.9876,4.9876,4.9876,4.9876,4.9876,4.9876,4.9876,4.9501,4.9188,4.9582,4.8656,4.7407,4.6358,4.6015,4.588,4.588,4.588,4.588,4.588,4.5685,4.5201,4.4125,4.3115,4.2048,4.1032,4.0173,3.9358,3.8467,3.8366,3.8366,3.8366,3.8366,3.8366,3.8366,3.8366,3.8366,3.8366,3.8806,3.9095,3.9095,3.9471,4.0224,4.1269,4.169,4.2412,4.3327,4.4734,4.5024,5.6444,5.685,5.6714,5.5919,5.2536,4.8562,4.5343,4.0138,3.5318,3.2818,3.1224,3.048,3.1004,3.2594,3.5165,3.9334,4.1484,4.4654,5.049,5.3264,5.5801,5.8761,6.0469,6.1653,6.233,6.2381,6.2381,6.2381,6.2341,6.2167,6.1709,6.1506,6.1424,6.1383,6.121,6.1102,6.1102,6.0374,5.9628,5.8883,5.8138,5.7392,5.668,5.668,5.668,5.668,5.668,5.668,5.668,5.668,5.668,5.668,5.668,5.6647,5.6376,5.4607,5.3628,5.2942,5.1183,5.0253,4.9876,4.9876,4.9876,4.9876,4.9876,4.9876,4.9876,4.9876,4.9876,4.9876,4.9876,4.9836,4.9661,4.9107,4.7946,4.696,4.6829,4.6314,4.588,4.588,4.588,4.588,4.588,4.5095,4.4125,4.3081,4.2048,4.0982,3.9981,3.9736,3.9647,3.9546,3.9534,3.9534,3.9534,3.9534,3.9534,3.9534,3.9534,3.9534,3.9534,3.9597,3.9622,3.9622,3.9672,4.0313,4.1555,4.2509,4.3279,4.3829,4.4886,4.5494,5.4938,5.5801,5.597,5.5226,5.1995,4.8223,4.5275,3.9935,3.4957,3.2767,3.1123,3.0192,3.048,3.1732,3.3744,3.6891,3.8278,4.0925,4.6447,4.9154,5.2164,5.6511,5.8744,6.0571,6.2229,6.2381,6.2381,6.2381,6.2381,6.2302,6.2127,6.1911,6.1692,6.1588,6.14,6.121,6.1102,6.0497,5.975,5.8883,5.8273,5.7526,5.668,5.668,5.668,5.668,5.668,5.668,5.668,5.668,5.668,5.668,5.668,5.668,5.6514,5.4852,5.3853,5.3117,5.1767,5.0832,5.0253,5.0253,5.0253,5.023,4.9955,4.9876,4.9876,4.9876,4.9876,4.9876,4.9876,4.9876,4.9541,4.803,4.7621,4.7278,4.6476,4.6105,4.588,4.588,4.588,4.588,4.588,4.5003,4.4172,4.3735,4.2279,4.1082,4.0642,4.0083,3.9697,3.9697,3.9697,3.9697,3.9697,3.9697,3.9697,3.9697,3.9697,3.9697,3.9697,3.9697,3.9697,3.9697,3.9697,4.0567,4.2341,4.2992,4.4083,4.5551,4.6225,4.6594,5.2976,5.4313,5.4938,5.4397,5.1285,4.7564,4.4615,3.9428,3.4658,3.2429,3.097,3.0108,3.0108,3.1123,3.2696,3.4928,3.6129,3.8623,4.387,4.651,4.9678,5.4499,5.6816,5.893,6.118,6.1992,6.2381,6.2381,6.2381,6.2381,6.2381,6.215,6.1917,6.1709,6.1547,6.13,6.087,6.0287,5.9538,5.8648,5.8019,5.7349,5.668,5.668,5.668,5.668,5.668,5.668,5.668,5.668,5.668,5.668,5.668,5.668,5.6514,5.5057,5.4191,5.3587,5.2111,5.1243,5.0758,5.0434,5.0331,5.0253,4.9995,4.9876,4.9876,4.9876,4.9876,4.9876,4.9876,4.9757,4.9244,4.7834,4.7536,4.7364,4.6403,4.606,4.588,4.588,4.588,4.588,4.588,4.5293,4.4652,4.4359,4.2813,4.1568,4.1219,4.0313,3.9697,3.9697,3.9697,3.9697,3.9697,3.9697,3.9697,3.9697,3.9697,3.9697,3.9697,3.9697,3.9697,3.9697,3.9788,4.0844,4.2875,4.3313,4.461,4.6727,4.7033,4.7207,5.061,5.2367,5.3518,5.3518,5.0135,4.6024,4.2997,3.8261,3.388,3.1664,3.0615,3.0108,3.0108,3.0717,3.1935,3.415,3.5814,3.8623,4.387,4.6498,4.9292,5.3078,5.4837,5.6577,5.8846,6.1078,6.2381,6.2381,6.2381,6.2381,6.2381,6.215,6.1917,6.1709,6.1709,6.1253,6.0294,5.9585,5.8852,5.8103,5.7161,5.6697,5.668,5.668,5.668,5.668,5.668,5.668,5.668,5.668,5.668,5.668,5.668,5.668,5.6514,5.5057,5.471,5.4622,5.2015,5.1321,5.1414,5.0256,4.9916,4.9916,4.9876,4.9876,4.9876,4.9876,4.9876,4.9876,4.9876,4.9405,4.8887,4.8887,4.7861,4.6916,4.6873,4.6358,4.588,4.588,4.588,4.588,4.588,4.588,4.5535,4.4452,4.345,4.2404,4.1319,4.0313,3.9697,3.9697,3.9697,3.9697,3.9697,3.9697,3.9697,3.9697,3.9697,3.9697,3.9697,3.9697,3.9697,3.9697,3.9981,4.1082,4.3122,4.3361,4.4688,4.6916,4.6916,4.7062,4.5387,4.6633,4.7141,4.6109,4.4012,4.1721,3.9732,3.6806,3.4015,3.231,3.136,3.0852,3.0852,3.1038,3.2594,3.6874,3.7973,3.9935,4.4688,4.7682,5.0422,5.3179,5.7509,6.0554,6.1264,6.1975,6.2381,6.2381,6.2381,6.2381,6.2381,6.2325,6.215,6.1917,6.179,6.1317,6.0485,5.9766,5.8953,5.8086,5.7298,5.6834,5.668,5.668,5.668,5.668,5.668,5.668,5.668,5.668,5.668,5.668,5.668,5.668,5.6564,5.562,5.4825,5.4109,5.3025,5.2265,5.1701,5.1307,5.1205,5.1092,5.0486,5.0113,4.9876,4.9876,4.9876,4.9876,4.9876,4.9741,4.9365,4.8449,4.7904,4.7321,4.6388,4.606,4.588,4.588,4.588,4.588,4.588,4.5293,4.4698,4.4359,4.2813,4.1568,4.1219,4.0313,3.9697,3.9697,3.9697,3.9697,3.9697,3.9697,3.9697,3.9697,3.9697,3.9697,3.9697,4.0364,4.0743,4.0743,4.1654,4.28,4.4191,4.4595,4.5629,4.7164,4.7164,4.7207,4.0629,4.2303,4.3081,4.2117,4.0764,3.9208,3.7449,3.5504,3.366,3.2192,3.1532,3.119,3.119,3.119,3.2442,3.6265,3.7347,3.9394,4.4164,4.7141,5.0219,5.389,5.8355,6.1231,6.1501,6.2059,6.2381,6.2381,6.2381,6.2381,6.2381,6.2381,6.2325,6.215,6.203,6.1423,6.0321,5.9851,5.9036,5.79,5.728,5.6949,5.6796,5.6719,5.668,5.668,5.668,5.668,0.0,5.668,5.668,5.668,5.668,5.668,5.6564,5.557,5.4901,5.4366,5.3194,5.254,5.2122,5.1696,5.1413,5.1226,5.0854,5.0331,4.9876,4.9876,4.9876,4.9876,4.9876,4.9701,4.9244,4.8157,4.7706,4.7234,4.6135,4.588,4.588,4.588,4.588,4.588,4.588,4.5338,4.4759,4.4359,4.2875,4.1667,4.1269,4.0313,3.9697,3.9697,3.9697,3.9697,3.9697,3.9697,3.9697,3.9697,3.9697,3.9697,3.9697,4.0642,4.1219,4.1219,4.2544,4.3754,4.4823,4.5689,4.6535,4.7309,4.7309,4.7309,0.0,3.8802,4.046,4.0358,3.9343,3.7804,3.5616,3.4095,0.0,3.1326,3.1089,3.1173,3.1326,3.136,3.1935,3.3744,3.5228,3.7932,4.3071,4.594,4.9627,5.5344,5.7932,5.9522,6.0199,6.1552,6.2381,6.2381,6.2381,6.2381,6.2381,6.2381,6.2364,6.2313,6.2313,6.1542,5.9843,5.9759,5.9001,5.7588,5.7176,5.6987,5.6987,5.6812,5.668,5.668,5.668,5.668,5.668,5.668,5.668,5.668,5.668,5.6663,5.6448,5.509,5.4936,5.5097,5.2733,5.2274,5.2592,5.1533,5.093,5.0679,5.1043,5.0586,4.9955,4.9955,4.9955,4.9955,4.9916,4.9446,4.8846,4.8157,4.745,4.6785,4.6105,4.5925,4.588,4.588,4.588,4.588,4.588,4.588,4.5535,4.4452,4.345,4.239,4.1319,4.0313,3.9697,3.9697,3.9697,3.9697,3.9697,3.9697,3.9697,3.9697,3.9697,3.9697,3.9697,4.0743,4.1369,4.1369,4.293,4.421,4.5161,4.6594,4.7309,4.7309,4.7309,4.7309,2.9886,0.0,3.3271,3.2138,3.2019,3.1901,0.0,3.0717,3.0632,2.9704,2.9973,3.0886,3.2577,3.2882,3.4489,3.9411,4.0984,4.2987,4.7124,5.1589,5.5598,5.871,6.0571,6.167,6.1839,6.2178,6.2381,6.2381,6.2381,6.2381,6.2381,6.2381,6.2127,6.1586,6.1552,6.1057,6.0038,5.9313,5.8421,5.7364,5.7139,5.6911,5.6757,5.6719,5.668,5.668,5.668,5.668,5.668,5.668,5.668,5.668,5.668,5.6349,5.5835,5.545,5.4721,5.3827,5.3225,5.2775,5.2445,5.2191,5.1835,5.1503,5.1614,5.1038,5.037,5.037,5.0586,5.0679,5.0073,5.0018,4.9868,4.8887,4.8157,4.7493,4.6829,4.6269,4.588,4.588,4.588,4.588,4.588,4.588,4.5535,4.4452,4.345,4.239,4.1319,4.0313,3.9697,3.9697,3.9697,3.9697,3.9697,3.9697,3.9697,3.9697,3.9697,3.9697,3.9697,4.1604,4.2641,4.2641,4.4918,4.6299,4.6785,4.7121,4.7309,4.7309,4.7309,4.7309,2.73,2.9702,3.2019,3.1207,3.1562,3.2002,3.1596,3.1038,3.0497,3.0093,0.0,3.119,3.3051,3.3677,3.5419,4.0037,4.1965,4.4688,4.9796,5.4431,5.8,5.9877,6.145,6.2381,6.2381,6.2381,6.2381,6.2381,6.2381,6.2381,6.2381,6.2076,6.1704,6.1315,6.0622,6.0047,5.9607,5.9089,5.8366,5.7439,5.7252,5.7025,5.6834,5.6719,5.668,5.668,5.668,5.668,5.668,5.668,5.668,5.668,5.668,5.6249,5.5549,5.5201,5.4394,5.3367,5.3053,5.2688,5.2409,5.2409,5.2122,5.1815,5.2013,5.1614,5.1059,5.0832,5.093,5.1005,5.0547,5.0486,5.0276,4.9399,4.8501,4.7706,4.7032,4.6358,4.588,4.588,4.588,4.588,4.588,4.588,4.5398,4.3843,4.3163,4.2257,4.0706,4.0032,3.9697,3.9697,3.9697,3.9697,3.9697,4.0121,4.0415,4.0415,3.9981,3.9981,4.0554,4.2217,4.3646,4.4826,4.6211,4.7019,4.7309,4.7309,4.7309,4.7309,4.7309,4.7309,2.7249,3.0497,3.3575,3.2899,3.3541,3.4269,3.4049,3.2544,0.0,0.0,0.0,0.0,3.3778,3.4861,0.0,3.9529,4.2066,4.5805,5.1961,5.5852,5.8558,5.9945,6.145,6.2381,6.2381,6.2381,6.2381,6.2381,6.2279,6.2229,6.2229,6.1518,6.1078,6.096,5.9691,5.8964,5.8846,5.8846,5.8413,5.7551,5.7402,5.7235,5.7143,5.6834,5.6779,5.6894,5.6872,5.6834,5.6834,5.6834,5.6834,5.6834,5.6701,5.6143,5.5371,5.47,5.3954,5.3185,5.2589,5.2409,5.2409,5.2409,5.2158,5.1977,5.2302,5.2158,5.1815,5.1397,5.1322,5.1268,5.1118,5.0854,5.0416,4.9662,4.8692,4.7706,4.7032,4.6358,4.588,4.588,4.588,4.588,4.588,4.588,4.5261,4.3321,4.3033,4.2257,4.0173,3.9929,3.989,3.9749,3.9697,3.9697,3.9697,4.0453,4.1132,4.1419,4.0642,4.0794,4.2119,4.2978,4.4549,4.6916,4.6975,4.7062,4.7309,4.7309,4.7309,4.7309,4.7309,4.7309,2.982,3.2848,3.4349,3.0618,3.163,3.3237,3.1985,3.1427,3.119,0.0,0.0,0.0,0.0,3.8836,4.117,0.0,0.0,5.1099,5.4685,5.7306,5.915,5.9996,6.145,6.2381,6.2381,6.2381,6.2381,6.2381,6.1823,6.1467,6.1467,6.0723,5.9996,5.9387,5.9133,5.871,5.8068,5.8068,5.7816,5.7364,5.7327,5.7483,5.7838,5.7051,5.711,5.7802,5.7574,5.7476,5.7476,5.7476,5.7476,5.7409,5.6717,5.5699,5.463,5.4338,5.3513,5.2523,5.2459,5.2409,5.2409,5.2409,5.2338,5.2302,5.2373,5.2338,5.2302,5.2214,5.2178,5.2017,5.1306,5.1043,5.0761,4.9726,4.8692,4.7706,4.7032,4.6358,4.588,4.588,4.588,4.588,4.588,4.588,4.5489,4.4266,4.4078,4.3307,4.1219,4.0982,4.0655,3.9788,3.9697,3.9697,3.9697,3.9839,4.0655,4.2452,4.2571,4.3266,4.4734,4.4978,4.5734,4.7207,4.7251,4.7251,4.7309,4.7309,4.7309,4.7309,4.7309,4.7309,2.7909,3.1241,3.3909,3.1884,3.4523,3.7449,3.6755,3.5994,3.5402,0.0,0.0,0.0,0.0,0.0,4.391,4.8528,5.1065,5.3348,5.5936,5.7509,5.8676,5.9421,6.0486,6.1163,6.1163,6.1163,6.1163,6.1163,6.0842,6.0655,6.0655,5.9928,5.9353,5.9032,5.8609,5.8237,5.7881,5.7881,5.7735,5.7476,5.7814,5.787,5.7651,5.7833,5.7906,5.7942,5.8029,5.8029,5.7995,5.7605,5.7452,5.7332,5.6212,5.54,5.473,5.4211,5.3483,5.2782,5.2782,5.2589,5.2409,5.2409,5.2409,5.2409,5.2409,5.2409,5.2409,5.2409,5.2409,5.2302,5.1908,5.1635,5.1359,5.0876,4.9915,4.8897,4.8141,4.7349,4.6624,4.6165,4.597,4.588,4.588,4.588,4.5535,4.4452,4.4312,4.3782,4.2244,4.2048,4.1864,4.1432,4.1395,4.1395,4.1395,4.1864,4.2195,4.2146,4.3307,4.4392,4.5358,4.5403,4.6018,4.7266,4.7309,4.7309,4.7309,4.7309,4.7309,4.7309,4.7309,4.7309,2.6826,2.9956,3.3305,3.4015,3.7347,4.0612,4.1305,4.0324,3.9445,0.0,0.0,0.0,0.0,4.3758,0.0,5.2215,5.3619,5.4735,5.6765,5.7679,5.8372,5.8947,5.9658,6.0097,6.0097,6.0097,6.0097,6.0097,5.9945,5.9844,5.9844,5.915,5.8744,5.8744,5.8186,5.7881,5.7881,5.8046,5.8029,5.7848,5.8193,5.8266,5.8105,5.8547,5.8633,5.844,5.8633,5.8547,5.8289,5.7724,5.7381,5.7107,5.5909,5.5213,5.4814,5.4019,5.3432,5.3077,5.2991,5.2677,5.2409,5.2409,5.2409,5.2409,5.2409,5.2409,5.2409,5.2409,5.2409,5.2409,5.2409,5.2122,5.1778,5.1561,5.0783,4.99,4.9101,4.8236,4.7362,4.6668,4.621,4.597,4.5925,4.588,4.564,4.4805,4.4652,4.4326,4.3259,4.3163,4.3081,4.284,4.2792,4.2792,4.2792,4.3735,4.3735,4.2425,4.4078,4.5324,4.5658,4.5779,4.6255,4.7207,4.7266,4.7309,4.7309,4.7309,4.7309,4.7309,4.7309,4.7309,2.9854,3.1582,3.3055,3.5864,3.7347,3.8853,4.1593,4.1094,0.0,4.3633,0.0,0.0,0.0,4.7699,5.0896,5.4837,5.5513,5.6089,5.7594,5.8457,5.8947,5.9015,5.9658,6.0097,6.0097,6.0097,6.0097,6.0097,5.9471,5.9099,5.9099,5.8372,5.7966,5.7966,5.7915,5.7881,5.7881,5.8511,5.872,5.853,5.794,5.8651,6.0414,5.8993,5.8976,6.0027,5.9741,5.9031,5.8126,5.8074,5.7592,5.6848,5.6057,5.5346,5.4592,5.3533,5.3145,5.3043,5.2589,5.2445,5.2409,5.2409,5.2409,5.2409,5.2409,5.2409,5.2409,5.2409,5.2409,5.2409,5.2409,5.2122,5.1651,5.0941,5.0429,4.9923,4.924,4.8398,4.7673,4.7433,4.6741,4.6135,4.5925,4.588,4.588,4.579,4.579,4.5398,4.4312,4.4172,4.3829,4.2889,4.2792,4.2792,4.2792,4.3735,4.4359,4.4452,4.5747,4.6491,4.6491,4.6946,4.7062,4.6931,4.7164,4.7309,4.7309,4.7309,4.7309,4.7309,4.7309,4.7309,2.7334,3.0632,3.3952,3.5064,3.8007,0.0,0.0,4.4022,4.5094,4.8088,4.8562,0.0,0.0,0.0,5.2249,5.4634,5.5412,5.6224,5.7679,5.8135,5.8321,5.8321,5.8944,5.9367,5.9367,5.9367,5.9367,5.9367,5.8696,5.8321,5.8321,5.8051,5.7881,5.7881,5.7881,5.8118,5.8511,5.8772,5.9313,6.0072,5.9835,5.9899,6.0264,6.0278,5.9968,5.9407,5.9487,5.8909,5.7877,5.7388,5.7003,5.6623,5.5907,5.5235,5.4679,5.4617,5.4379,5.4074,5.3896,5.36,5.3264,5.2939,5.2835,5.2782,5.2499,5.2409,5.2409,5.2409,5.2409,5.2409,5.2409,5.2302,5.2106,5.1838,5.1639,5.1327,5.0522,4.9551,4.8661,4.8054,4.6988,4.6165,4.609,4.597,4.588,4.588,4.588,4.573,4.5338,4.5293,4.5155,4.4773,4.4727,4.4727,4.4727,4.5064,4.5384,4.5642,4.6076,4.6491,4.6756,4.6975,4.7062,4.7164,4.7251,4.7309,4.7309,4.7309,4.7309,4.7309,4.7309,4.7309,2.6674,3.0497,3.4658,3.5385,0.0,0.0,4.5128,4.6227,4.7834,5.1522,5.1488,5.093,5.142,5.1758,5.2621,5.4617,5.5378,5.6224,5.7679,5.8082,5.8209,5.8209,5.8616,5.8892,5.8892,5.8703,5.8581,5.8581,5.8173,5.7881,5.7881,5.7881,5.7881,5.7881,5.8118,5.8423,5.8892,5.9346,6.0044,6.0998,6.0959,6.0842,6.0638,6.0854,6.0373,5.9352,5.9331,5.868,5.7658,5.7004,5.6563,5.621,5.5701,5.5282,5.4974,5.5174,5.5022,5.4679,5.4506,5.4106,5.3583,5.3213,5.2991,5.28,5.2516,5.2409,5.2409,5.2409,5.2409,5.2409,5.2409,5.2409,5.2409,5.2409,5.2409,5.2142,5.1268,5.0306,4.9327,4.8388,4.7204,4.6314,4.621,4.6046,4.588,4.588,4.588,4.588,4.588,4.588,4.588,4.588,4.588,4.5925,4.6015,4.6001,4.609,4.6314,4.6388,4.6521,4.68,4.6931,4.7062,4.7164,4.7251,4.7309,4.7309,4.7309,4.7309,4.7309,4.7309,4.7309,2.8993,3.1701,3.5064,0.0,0.0,0.0,4.709,4.7361,4.8308,5.3518,5.3382,5.279,5.433,5.2739,5.2232,5.5226,5.5716,5.6224,5.7715,5.8493,5.8926,5.8892,5.8892,5.8892,5.8892,5.8298,5.7918,5.7918,5.7881,5.7881,5.7881,5.7881,5.7881,5.7918,5.8546,5.8875,5.8926,6.0278,6.098,6.098,6.0863,6.12,6.1942,6.0461,5.9953,6.0228,5.9446,5.849,5.7469,5.7185,5.647,5.5507,5.5507,5.5507,5.5448,5.4913,5.471,5.4648,5.4106,5.3566,5.3111,5.3111,5.2817,5.2409,5.2409,5.2426,5.2426,5.2409,5.2409,5.2409,5.2409,5.2409,5.2409,5.2409,5.2409,5.2142,5.1306,5.0422,4.9487,4.8429,4.7349,4.6506,4.6254,4.606,4.588,4.588,4.588,4.588,4.588,4.588,4.588,4.588,4.5925,4.6015,4.6165,4.621,4.6314,4.6594,4.68,4.68,4.6594,4.7033,4.7164,4.6916,4.7164,4.7309,4.7309,4.7309,4.7309,4.7309,4.7309,4.7309,2.9145,3.2479,0.0,3.8244,0.0,0.0,0.0,4.9272,0.0,0.0,5.3873,5.3872,5.3717,5.4033,5.4726,5.6053,5.7158,5.8233,5.9241,5.9546,5.9462,5.896,5.9363,5.9462,5.896,5.8703,5.8616,5.8616,5.8173,5.7881,5.7881,5.7881,5.8118,5.8581,5.8256,5.8531,5.9531,5.939,5.9545,5.9998,5.9988,6.0394,6.1109,6.0115,5.9313,5.8664,5.843,5.7729,5.6712,5.6386,5.6074,5.5764,5.5549,5.5507,5.5478,5.5312,5.5252,5.5252,5.5083,5.4679,5.422,5.422,5.3896,5.3399,5.3008,5.2904,5.2835,5.2499,5.2409,5.2409,5.2409,5.2409,5.2409,5.2409,5.2409,5.2338,5.2069,5.0859,4.9726,4.9407,4.7958,4.68,4.6697,4.6358,4.609,4.609,4.6015,4.588,4.588,4.6001,4.609,4.609,4.6284,4.6417,4.6462,4.6491,4.658,4.68,4.6887,4.6887,4.68,4.7121,4.7251,4.7164,4.7251,4.7309,4.7309,4.7309,4.7309,4.7309,4.7309,4.7309,3.1884,3.5475,0.0,4.1576,4.5246,4.89,5.0963,0.0,0.0,0.0,5.4428,5.4523,5.4551,5.4844,5.5366,5.6325,5.7263,5.8158,5.8948,5.9071,5.8927,5.8477,5.8832,5.88,5.8079,5.8229,5.8262,5.7995,5.786,5.7672,5.7412,5.7377,5.7569,5.7961,5.7796,5.8227,5.9316,5.9097,5.9186,5.9615,5.9289,5.9379,5.9832,5.9343,5.875,5.8123,5.7824,5.7244,5.6546,5.6245,5.6032,5.589,5.5706,5.5666,5.5666,5.5666,5.5666,5.5637,5.5537,5.5144,5.471,5.471,5.4348,5.3847,5.3516,5.3499,5.3499,5.287,5.2765,5.28,5.2464,5.2409,5.2409,5.2409,5.2409,5.2302,5.1944,5.1065,5.0135,4.9463,4.8278,4.7321,4.696,4.6624,4.6358,4.6358,4.6284,4.6194,4.6194,4.6269,4.6358,4.6358,4.6506,4.6639,4.6712,4.6712,4.6815,4.7019,4.7062,4.7062,4.7062,4.7207,4.7452,4.7822,4.7822,4.7976,4.8282,4.8282,4.8282,4.8282,4.7976,4.7822,3.5808,3.9351,0.0,4.6109,4.8173,0.0,5.2924,5.4093,5.4754,5.5281,0.0,5.4911,5.625,5.5402,5.4974,5.6429,5.6728,5.6997,5.7609,5.7745,5.7776,5.7715,5.7715,5.7468,5.6831,5.7279,5.7356,5.6748,5.7199,5.723,5.665,5.6617,5.665,5.6716,5.7318,5.7971,5.857,5.9114,5.9379,5.9379,5.8637,5.8293,5.8293,5.8293,5.8293,5.8257,5.7514,5.7079,5.6821,5.6546,5.6273,5.5975,5.5947,5.5947,5.5947,5.5947,5.5947,5.5918,5.5666,5.5234,5.4786,5.4834,5.4488,5.4057,5.4057,5.4264,5.431,5.3432,5.3382,5.3415,5.2624,5.2409,5.2409,5.2409,5.2409,5.2178,5.1397,5.1156,5.0631,4.9116,4.8486,4.7985,4.7206,4.68,4.6639,4.6594,4.6594,4.6594,4.6594,4.6639,4.6639,4.6639,4.6639,4.6727,4.6916,4.6931,4.7019,4.7266,4.7309,4.7352,4.7424,4.7424,4.7779,4.8558,4.8682,4.9075,4.9805,4.9805,4.9805,4.9765,4.9035,4.8723,3.4636,3.8142,0.0,0.0,5.0135,5.2821,5.3969,5.4323,5.449,5.4601,5.4948,5.542,5.6202,5.6609,5.7061,5.7873,5.852,5.8806,5.8499,5.8477,5.8284,5.7776,5.7715,5.7623,5.7436,5.753,5.7561,5.7405,5.7039,5.6731,5.6617,5.6617,5.6878,5.7468,5.7459,5.7777,5.8428,5.797,5.7713,5.7713,5.7532,5.746,5.746,5.746,5.746,5.7442,5.7279,5.7181,5.7087,5.6821,5.6662,5.6582,5.6383,5.6273,5.6273,5.6273,5.6273,5.6273,5.6235,5.5872,5.5473,5.5901,5.5665,5.5231,5.5231,5.529,5.5112,5.404,5.3648,5.3432,5.2747,5.248,5.2409,5.2409,5.2409,5.2338,5.2142,5.1582,5.0989,5.0631,4.9439,4.8434,4.8282,4.7465,4.68,4.6639,4.6594,4.6594,4.6594,4.6712,4.6844,4.6844,4.7033,4.7179,4.7207,4.7207,4.7251,4.7309,4.7309,4.7624,4.8297,4.8339,4.8407,4.8615,4.9222,4.9607,4.9805,4.9805,4.9805,4.9821,4.9607,4.9543,3.4793,0.0,0.0,4.8189,0.0,5.3584,5.3898,5.4203,5.4485,5.4795,5.5385,5.6017,5.6608,5.7082,5.7475,5.7771,5.8184,5.8334,5.8034,5.7719,5.7412,5.7051,5.7022,5.6905,5.6578,5.708,5.7167,5.6578,5.6752,5.6645,5.6071,5.63,5.6633,5.7022,5.6918,5.7191,5.7822,5.7406,5.7188,5.7188,5.7188,5.7188,5.7188,5.7188,5.7188,5.7188,5.7188,5.7188,5.7163,5.6925,5.6794,5.6794,5.6653,5.66,5.66,5.66,5.66,5.6573,5.6437,5.6227,5.6024,5.63,5.6227,5.5996,5.5996,5.6063,5.5887,5.4606,5.4279,5.4087,5.3008,5.2711,5.2605,5.2499,5.2445,5.2409,5.2409,5.2053,5.1598,5.1194,5.0073,4.9035,4.8697,4.7764,4.7077,4.6946,4.6961,4.6961,4.6961,4.7033,4.7062,4.7062,4.7207,4.7309,4.7309,4.7309,4.7309,4.7309,4.7309,4.7694,4.8558,4.8953,4.9358,4.9797,5.0229,5.0615,5.1048,5.1048,5.1048,5.1048,5.0615,5.0445,3.4336,0.0,4.3859,4.9593,5.2164,0.0,5.3617,5.4027,5.4579,5.5266,5.5876,5.6474,5.7087,5.7188,5.7188,5.7188,5.7112,5.7036,5.7036,5.6528,5.6156,5.6284,5.6311,5.6128,5.5762,5.6528,5.6635,5.5618,5.6375,5.6456,5.5443,5.5961,5.6311,5.6311,5.6393,5.6706,5.7206,5.7188,5.7188,5.7188,5.7188,5.7188,5.7188,5.7188,5.7188,5.7188,5.7188,5.7188,5.7163,5.6977,5.6873,5.6873,5.6873,5.6873,5.6873,5.6873,5.6873,5.6847,5.6626,5.6546,5.6546,5.6546,5.6546,5.6546,5.6546,5.6689,5.6573,5.5154,5.4913,5.4778,5.3349,5.2938,5.2868,5.2694,5.257,5.248,5.2409,5.2409,5.2178,5.1471,5.0499,4.9503,4.8532,4.7779,4.7309,4.7309,4.7309,4.7309,4.7309,4.7309,4.7309,4.7309,4.7309,4.7309,4.7309,4.7309,4.7309,4.7309,4.7309,4.7737,4.8764,4.9463,5.029,5.1306,5.1306,5.1672,5.2409,5.2409,5.2409,5.2373,5.1672,5.1417,0.0,0.0,4.4384,0.0,5.1352,5.2786,0.0,0.0,5.4579,5.5266,5.5876,5.6474,5.7087,5.7188,5.7188,5.7188,5.6758,5.642,5.642,5.5841,5.5652,5.6229,5.6311,5.6474,5.6915,5.6635,5.6339,5.6201,5.5848,5.556,5.5414,5.5961,5.6311,5.6311,5.6811,5.7112,5.7188,5.7188,5.7188,5.7188,5.7188,5.7188,5.7188,5.7188,5.7188,5.7188,5.7188,5.7188,5.7206,5.7163,5.7156,5.7156,5.7156,5.7156,5.7156,5.7156,5.7156,5.7138,5.7105,5.7087,5.7087,5.7087,5.7087,5.7087,5.7087,5.7112,5.6889,5.5629,5.5189,5.4809,5.3517,5.3041,5.2903,5.2868,5.2834,5.2729,5.2445,5.2409,5.2373,5.2266,5.0897,4.9303,4.7737,4.7381,4.7309,4.7309,4.7309,4.7309,4.7309,4.7309,4.7309,4.7309,4.7309,4.7309,4.7309,4.7309,4.7309,4.7309,4.7309,4.8019,4.9567,4.9726,5.0576,5.2178,5.223,5.2302,5.2409,5.2409,5.2409,5.2409,5.2266,5.225,3.1762,3.728,4.2726,0.0,4.9678,5.0958,5.2793,5.3215,5.3511,5.4616,5.5052,5.5525,5.6528,5.6706,5.6706,5.6706,5.6474,5.6174,5.5848,5.583,5.5971,5.6257,5.6311,5.6393,5.6679,5.6156,5.5791,5.5791,5.5848,5.5904,5.5904,5.6474,5.6811,5.6811,5.7061,5.7188,5.7188,5.7188,5.7188,5.7188,5.7188,5.7188,5.7188,5.7188,5.7188,5.7188,5.7188,5.7188,5.7188,5.7188,5.7188,5.7188,5.7188,5.7188,5.7188,5.7188,5.7188,5.7188,5.7188,5.7188,5.7188,5.7188,5.7188,5.7188,5.7188,5.7188,5.6941,5.568,5.5308,5.4978,5.37,5.3314,5.3212,5.3076,5.3076,5.3007,5.2746,5.2605,5.2357,5.1782,5.1065,4.9994,4.8339,4.8019,4.7849,4.7381,4.7309,4.7309,4.7309,4.7309,4.7309,4.7309,4.7309,4.7309,4.7309,4.7309,4.7309,4.7309,4.7737,4.8558,4.9765,5.0267,5.114,5.2373,5.2409,5.2409,5.2409,5.2409,5.2409,5.2409,5.2409,5.2445,0.0,0.0,3.9385,4.4604,4.7056,4.8748,0.0,0.0,5.2107,5.3337,5.3724,5.4223,5.533,5.5819,5.6073,5.6073,5.5932,5.5716,5.5443,5.5791,5.6073,5.6073,5.6201,5.6229,5.609,5.5502,5.5207,5.5385,5.5819,5.6146,5.6284,5.6863,5.7188,5.7188,5.7188,5.7188,5.7188,5.7188,5.7188,5.7188,5.7188,5.7188,5.7188,5.7188,5.7188,5.7188,5.7188,5.7188,5.7188,5.7188,5.7188,5.7188,5.7188,5.7188,5.7188,5.7188,5.7188,5.7188,5.7188,5.7188,5.7188,5.7188,5.7188,5.7188,5.7188,5.7188,5.6966,5.5851,5.5601,5.5385,5.4269,5.3849,5.3684,5.3517,5.3382,5.3195,5.2868,5.2694,5.2288,5.1306,5.1118,5.0554,4.8887,4.8615,4.8282,4.7424,4.7309,4.7309,4.7309,4.7309,4.7309,4.7309,4.7309,4.7309,4.7309,4.7309,4.7381,4.7624,4.8256,4.9075,5.0096,5.0745,5.1508,5.2373,5.2409,5.2409,5.2409,5.2409,5.2409,5.2409,5.2409,5.2445,0.0,3.0412,0.0,3.9199,4.32,4.6447,0.0,0.0,5.0422,5.1199,5.1909,5.2628,5.3339,5.4538,5.5443,5.5443,5.4918,5.4703,5.5325,5.5414,5.5443,5.5443,5.5932,5.609,5.5502,5.4857,5.4703,5.5355,5.5414,5.5705,5.6284,5.6863,5.7188,5.7188,5.7188,5.7188,5.7188,5.7188,5.7188,5.7188,5.7188,5.7188,5.7188,5.7188,5.7188,5.7188,5.7188,5.7188,5.7188,5.7188,5.7188,5.7188,5.7188,5.7188,5.7188,5.7188,5.7188,5.7188,5.7188,5.7188,5.7188,5.7188,5.7188,5.7188,5.7188,5.7188,5.7061,5.642,5.6257,5.6118,5.5473,5.4826,5.4359,5.4328,5.3881,5.3314,5.2746,5.2605,5.2288,5.1306,5.1118,5.0554,4.8887,4.8615,4.8282,4.7424,4.7309,4.7309,4.7309,4.7309,4.7309,4.7309,4.7309,4.7309,4.7309,4.7309,4.7651,4.849,4.8558,4.9318,5.0951,5.1081,5.1508,5.2373,5.2409,5.2409,5.2409,5.2409,5.2409,5.2409,5.2409,5.2409,0.0,0.0,0.0,3.5369,3.8543,4.1328,4.4096,4.6397,4.8325,4.9543,5.0371,5.1127,5.1809,5.347,5.4765,5.4765,5.4548,5.4345,5.4205,5.452,5.4765,5.4765,5.4931,5.4991,5.4765,5.4188,5.4252,5.5325,5.5385,5.5647,5.6257,5.6863,5.7018,5.6635,5.701,5.7188,5.7188,5.7188,5.7188,5.7188,5.7188,5.7188,5.7188,5.7188,5.7188,5.7188,5.7188,5.7188,5.7188,5.7188,5.7188,5.7188,5.7188,5.7188,5.7188,5.7188,5.7188,5.7188,5.7188,5.7188,5.7188,5.7188,5.7188,5.7188,5.7188,5.7188,5.7087,5.6474,5.6311,5.6174,5.556,5.4887,5.4313,5.3913,5.3668,5.3365,5.2868,5.2799,5.2624,5.2053,5.1944,5.1582,5.04,4.9742,4.9116,4.8256,4.7666,4.7309,4.7309,4.7309,4.7309,4.7309,4.7309,4.7309,4.7309,4.7309,4.7666,4.8532,4.8655,4.9402,5.1011,5.1177,5.1611,5.2373,5.2409,5.2409,5.2409,5.2409,5.2409,5.2409,5.2409,5.2445,2.5128,0.0,0.0,0.0,3.4801,3.7033,4.1322,4.3453,4.5179,4.7428,4.8477,4.9289,5.0287,5.1821,5.3043,5.3301,5.3335,5.3177,5.2789,5.3274,5.357,5.3335,5.3507,5.3673,5.3678,5.3309,5.3738,5.5261,5.5159,5.5443,5.6257,5.6679,5.6811,5.6608,5.6992,5.7188,5.7188,5.7188,5.7188,5.7188,5.7188,5.7188,5.7188,5.7188,5.7188,5.7188,5.7188,5.7188,5.7188,5.7188,5.7188,5.7188,5.7188,5.7188,5.7188,5.7188,5.7188,5.7188,5.7188,5.7188,5.7188,5.7188,5.7188,5.7188,5.7188,5.7188,5.7112,5.6714,5.6582,5.6501,5.6101,5.5349,5.453,5.3963,5.3651,5.3399,5.2989,5.2903,5.2816,5.248,5.2409,5.2142,5.1231,5.0631,4.9939,4.9116,4.8297,4.7737,4.7737,4.7467,4.7309,4.7309,4.7309,4.7219,4.6995,4.7222,4.7619,4.8246,4.859,4.9374,5.0737,5.0867,5.1148,5.1645,5.1645,5.1645,5.1645,5.1893,5.2045,5.2045,5.1814,5.1971,0.0,0.0,0.0,0.0,0.0,0.0,4.0409,4.0874,4.0976,4.4739,4.6092,4.7073,4.8612,4.9475,5.0202,5.0931,5.1134,5.1185,5.1185,5.1768,5.1936,5.1282,5.1768,5.2197,5.2264,5.2266,5.3105,5.5073,5.4678,5.4861,5.613,5.6203,5.6492,5.7127,5.7188,5.7163,5.7188,5.7188,5.7188,5.7188,5.7188,5.7188,5.7188,5.7188,5.7188,5.7188,5.7188,5.7188,5.7188,5.7188,5.7188,5.7188,5.7188,5.7188,5.7188,5.7188,5.7188,5.7188,5.7188,5.7188,5.7188,5.7188,5.7188,5.7188,5.7188,5.7188,5.7188,5.7188,5.7188,5.7206,5.7163,5.6258,5.5166,5.453,5.3946,5.3416,5.2989,5.2903,5.2816,5.248,5.2409,5.2142,5.1268,5.1118,5.0783,4.9978,4.9157,4.8656,4.8656,4.7892,4.7381,4.7307,4.7307,4.7053,4.6352,4.7,4.757,4.7729,4.8444,4.9287,5.0169,5.0187,5.0187,5.022,5.022,5.022,5.022,5.0899,5.1282,5.1265,5.0691,5.1011,2.2709,0.0,0.0,0.0,0.0,0.0,3.21,3.3998,3.6315,4.007,4.1441,4.2841,4.5845,4.6693,4.7128,4.7717,4.9702,5.1185,5.1185,5.1361,5.1424,5.1217,5.1361,5.1461,5.1488,5.1522,5.1958,5.2961,5.2905,5.2965,5.3323,5.3845,5.4811,5.6294,5.6479,5.6758,5.7206,5.7188,5.7188,5.7188,5.7188,5.7188,5.7188,5.7188,5.7188,5.7188,5.7188,5.7188,5.7188,5.7188,5.7188,5.7188,5.7188,5.7188,5.7188,5.7188,5.7188,5.7188,5.7188,5.7188,5.7188,5.7188,5.7188,5.7188,5.7188,5.7188,5.7188,5.7188,5.7188,5.7112,5.6661,5.6294,5.5755,5.4655,5.4281,5.3962,5.3281,5.311,5.2972,5.248,5.2409,5.2338,5.2069,5.1508,5.1043,5.0783,5.0017,4.9463,4.9463,4.9262,4.8686,4.7609,4.7537,4.7221,4.6493,4.6634,4.7279,4.8512,4.8284,4.8714,5.0153,4.9707,4.9674,5.0204,5.022,5.022,5.022,5.0402,5.0554,5.0657,5.076,5.0976,2.4697,2.5592,2.7052,2.6832,0.0,0.0,3.0998,3.2015,3.352,3.7614,3.8771,4.0053,4.3412,4.4069,4.4524,4.5765,4.7585,4.9075,4.9731,5.0101,5.0287,5.0287,5.0287,5.0405,5.071,5.0744,5.1131,5.2114,5.1936,5.1905,5.2192,5.2624,5.3573,5.5119,5.5266,5.5783,5.6681,5.6699,5.6862,5.7188,5.7188,5.7188,5.7188,5.7188,5.7188,5.7188,5.7188,5.7188,5.7188,5.7188,5.7188,5.7188,5.7188,5.7188,5.7188,5.7188,5.7188,5.7188,5.7188,5.7188,5.7188,5.7188,5.7188,5.7188,5.7188,5.7188,5.7188,5.7188,5.7188,5.7112,5.6785,5.6474,5.6045,5.5069,5.461,5.4186,5.3366,5.3179,5.3041,5.257,5.2464,5.248,5.2409,5.198,5.1635,5.1635,5.0897,5.0233,4.993,4.9573,4.8914,4.7715,4.7613,4.7333,4.6625,4.687,4.7331,4.7968,4.793,4.8308,4.9226,4.8879,4.8845,4.9276,4.9293,4.9326,4.9377,4.9675,4.9793,4.974,4.9952,5.0281,2.8173,2.8329,2.939,3.1025,2.9692,0.0,3.3354,3.2466,3.1922,3.598,3.674,3.7575,4.0666,4.1191,4.1831,4.3891,4.4644,4.563,4.7487,4.8311,4.8765,4.8765,4.8765,4.9018,4.9661,4.9729,5.0297,5.1628,5.1245,5.1264,5.192,5.1977,5.2538,5.3813,5.3876,5.4486,5.5774,5.5842,5.6204,5.6859,5.691,5.6935,5.6935,5.6935,5.6935,5.6953,5.7025,5.7062,5.7062,5.7152,5.7188,5.7188,5.7188,5.7188,5.7188,5.7188,5.7188,5.7188,5.7188,5.7188,5.7188,5.7188,5.7188,5.7188,5.7188,5.7188,5.7188,5.7188,5.7188,5.7188,5.7188,5.6811,5.6229,5.556,5.4948,5.4247,5.3281,5.3095,5.2959,5.2512,5.2492,5.2455,5.2213,5.2161,5.2161,5.2177,5.1516,5.076,5.0128,4.9368,4.8574,4.771,4.7631,4.7362,4.6734,4.7289,4.7456,4.6963,4.7588,4.8001,4.8001,4.8001,4.8001,4.8001,4.8001,4.8082,4.8227,4.8893,4.9087,4.8818,4.8818,4.9249,3.0767,3.1437,3.2177,2.9736,3.0451,0.0,2.8691,2.9078,3.0199,3.115,3.1318,3.2203,3.518,3.6226,3.6906,3.7953,4.0148,4.2897,4.6309,4.7035,4.7225,4.7225,4.7225,4.7276,4.7411,4.7428,4.7793,4.8659,4.9165,4.9685,5.0338,5.0444,5.1307,5.2985,5.313,5.3574,5.4379,5.4873,5.4945,5.4629,5.5108,5.5359,5.5359,5.5359,5.5359,5.5377,5.5975,5.6228,5.6265,5.6935,5.7188,5.7188,5.7188,5.7188,5.7188,5.7188,5.7188,5.7188,5.7188,5.7188,5.7188,5.7188,5.7188,5.7188,5.7188,5.7188,5.7188,5.7188,5.7188,5.7188,5.7188,5.7112,5.674,5.5647,5.5296,5.47,5.2869,5.2486,5.2251,5.1446,5.1648,5.1713,5.0908,5.0774,5.0756,5.0669,5.0479,5.0309,5.0177,4.9988,4.936,4.7994,4.7841,4.7535,4.6843,4.6918,4.723,4.7754,4.7886,4.8001,4.8001,4.8001,4.8001,4.8001,4.8115,4.826,4.8452,4.8746,4.8841,4.8801,4.8925,4.9055,3.4158,3.4216,3.4558,3.3234,3.2868,0.0,0.0,2.9922,3.0069,3.1579,3.067,3.0633,3.4007,3.4307,3.4478,3.5954,3.8112,4.0261,4.2199,4.4202,4.545,4.545,4.545,4.5601,4.5972,4.6081,4.649,4.731,4.7699,4.8205,4.889,4.8982,4.9858,5.1697,5.1827,5.2502,5.3828,5.4152,5.4351,5.4446,5.4767,5.4907,5.4907,5.4907,5.4907,5.4925,5.5287,5.545,5.5486,5.5884,5.6047,5.6138,5.6899,5.7188,5.7188,5.7188,5.7188,5.7188,5.7188,5.7188,5.7188,5.7188,5.7188,5.7188,5.7188,5.7188,5.7188,5.7188,5.7188,5.7188,5.7188,5.7188,5.6781,5.5193,5.4788,5.4254,5.2185,5.1758,5.1506,5.0715,5.0722,5.0743,5.0443,5.0324,5.0289,5.0204,5.022,5.0088,4.9707,4.9657,4.9224,4.8077,4.7961,4.7814,4.7437,4.7404,4.7555,4.7968,4.8001,4.8001,4.8001,4.8001,4.8033,4.8115,4.826,4.8452,4.8658,4.8832,4.8894,4.8894,4.897,4.9001,3.7469,3.697,3.7011,3.6895,3.5597,3.4149,0.0,0.0,0.0,3.2723,3.1157,3.0402,3.3695,3.3073,3.2669,3.4475,3.6197,3.7195,3.6912,3.9907,4.2345,4.2953,4.33,4.3719,4.4294,4.4253,4.4704,4.5971,4.5843,4.6215,4.7368,4.7736,4.8716,5.0425,5.0519,5.1431,5.3273,5.3297,5.3622,5.4273,5.4388,5.4454,5.4454,5.4454,5.4454,5.4454,5.4599,5.4671,5.4689,5.4852,5.4907,5.5033,5.6265,5.6754,5.6754,5.6754,5.6754,5.6772,5.6917,5.6971,5.6989,5.7152,5.7188,5.7188,5.7188,5.708,5.6971,5.6971,5.6862,5.6754,5.6754,5.666,5.6137,5.4405,5.3876,5.3304,5.1388,5.0997,5.0777,5.0016,4.9757,4.9735,4.9992,4.9925,4.9823,4.979,4.979,4.9574,4.8961,4.8895,4.8663,4.8067,4.8001,4.8001,4.8001,4.8001,4.8001,4.8001,4.8001,4.8001,4.8001,4.8033,4.8082,4.8195,4.842,4.8627,4.8818,4.8909,4.9001,4.9001,4.9001,4.9001,3.9728,4.0034,3.9912,3.6279,3.7477,3.7882,3.1558,0.0,3.1916,3.0409,0.0,2.9809,3.1132,0.0,0.0,3.0264,3.2016,3.2884,3.157,3.3454,3.603,3.8899,4.0383,4.1221,4.1288,4.0201,4.057,4.3244,4.2375,4.2939,4.563,4.7149,4.8477,4.9697,4.9889,5.0585,5.1837,5.1837,5.1872,5.1987,5.2522,5.277,5.277,5.277,5.277,5.2806,5.353,5.3838,5.3892,5.4617,5.4907,5.4925,5.5106,5.516,5.516,5.516,5.516,5.5251,5.5903,5.6138,5.6247,5.6971,5.7188,5.7188,5.7188,5.6699,5.6138,5.6138,5.5667,5.516,5.516,5.4766,5.4162,5.3341,5.277,5.2015,5.0544,5.0219,4.9999,4.9272,4.887,4.8666,4.8718,4.8542,4.8396,4.8282,4.8249,4.8216,4.815,4.8133,4.81,4.8017,4.8001,4.8001,4.8001,4.8001,4.8001,4.8001,4.8001,4.8001,4.8001,4.8115,4.8195,4.8195,4.8564,4.8786,4.8818,4.8909,4.9001,4.9001,4.9001,4.9001,4.021,4.0722,4.0965,3.8003,3.7978,3.7611,3.3354,3.2001,3.1654,3.1575,0.0,0.0,0.0,0.0,0.0,0.0,3.0216,3.0427,2.9417,3.0083,3.18,3.4822,3.5728,3.6802,3.8613,3.8212,3.8781,4.0926,3.9909,4.0617,4.3888,4.5284,4.6891,4.89,4.9158,4.9848,5.1061,5.1432,5.1601,5.1619,5.2209,5.2498,5.2498,5.2498,5.2498,5.2516,5.286,5.3005,5.3023,5.3367,5.3512,5.3512,5.3512,5.4092,5.4907,5.4907,5.4907,5.4943,5.5251,5.5359,5.5414,5.5758,5.5866,5.5866,5.5866,5.5631,5.5359,5.5359,5.5142,5.4907,5.4907,5.4446,5.3708,5.2619,5.194,5.1167,4.9766,4.9458,4.9373,4.9069,4.8736,4.8515,4.8515,4.8276,4.8049,4.8001,4.8001,4.8001,4.8001,4.8001,4.8001,4.8001,4.8001,4.8001,4.8001,4.8001,4.8001,4.8001,4.8001,4.8033,4.8115,4.8163,4.8308,4.8532,4.8707,4.8832,4.8925,4.897,4.9001,4.9001,4.9001,4.9001,4.0709,4.1335,4.1758,3.8639,3.7683,3.6788,3.4073,3.2601,3.2047,3.2859,3.1738,0.0,0.0,0.0,2.9553,2.9433,0.0,2.9201,2.7694,2.768,2.8724,3.1227,3.2034,3.3354,3.5789,3.5131,3.5628,3.8187,3.682,3.7666,4.1826,4.3446,4.5275,4.7483,4.8186,4.9124,5.0328,5.1025,5.1449,5.1619,5.2209,5.2498,5.2498,5.2498,5.2498,5.2498,5.2498,5.2498,5.2498,5.2498,5.2498,5.2498,5.2498,5.3204,5.4237,5.4237,5.4237,5.4273,5.449,5.4725,5.4907,5.4907,5.4907,5.4907,5.4907,5.4762,5.4581,5.4581,5.4418,5.4237,5.4237,5.3681,5.283,5.18,5.1043,5.0223,4.9226,4.897,4.8956,4.9001,4.8673,4.8452,4.8483,4.8212,4.8001,4.8001,4.8001,4.8001,4.8001,4.8001,4.8001,4.8001,4.8001,4.8001,4.8001,4.8001,4.8001,4.8001,4.8033,4.8115,4.8195,4.8308,4.85,4.8769,4.8849,4.8894,4.9001,4.9001,4.9001,4.9001,4.9001,4.9001,4.1779,4.245,4.2652,3.6942,3.6518,3.6379,3.2101,3.2664,3.3907,3.3232,3.4614,3.5761,3.5105,3.3649,3.1873,2.9728,2.9992,0.0,0.0,2.5821,2.6833,2.8359,3.0377,3.1946,3.2768,2.9669,2.9685,3.4691,3.2557,3.354,3.9285,4.198,4.3881,4.5059,4.6939,4.8413,4.9432,5.0302,5.1034,5.1619,5.2209,5.2498,5.2498,5.2498,5.2498,5.2498,5.2498,5.2498,5.2498,5.2498,5.2498,5.2498,5.2498,5.2516,5.257,5.257,5.257,5.2679,5.3476,5.4255,5.4907,5.4907,5.4907,5.4907,5.4907,5.4363,5.3748,5.3748,5.3186,5.257,5.257,5.1697,5.0777,5.076,4.989,4.9066,4.9001,4.8894,4.8832,4.897,4.8578,4.826,4.8452,4.8212,4.8001,4.8001,4.8001,4.8001,4.8001,4.8001,4.8001,4.8001,4.8001,4.8001,4.8001,4.8001,4.8001,4.8001,4.8115,4.8195,4.8195,4.8564,4.8786,4.8818,4.8925,4.9001,4.9001,4.9001,4.9001,4.9001,4.9001,4.9001,4.3652,4.462,4.4682,3.9741,3.8806,3.7941,3.3592,3.3477,3.3989,3.2807,3.4258,3.5344,3.4024,3.2932,3.1616,2.9702,2.85,2.6992,0.0,2.4166,2.4381,2.5359,2.7843,2.9403,2.9155,2.8459,2.9337,3.2497,3.1931,3.3573,3.8389,4.1003,4.2964,4.4243,4.5475,4.6558,4.7466,4.8643,4.9592,5.0293,5.1376,5.2096,5.2498,5.2498,5.2498,5.2498,5.2498,5.2498,5.2498,5.2498,5.2498,5.2498,5.2498,5.2498,5.2498,5.2498,5.2498,5.2534,5.2806,5.3078,5.3313,5.3313,5.3313,5.3313,5.3313,5.3114,5.2915,5.2915,5.2715,5.2498,5.2498,5.1608,5.0697,5.0697,4.9826,4.9001,4.9001,4.897,4.8925,4.8863,4.8738,4.8532,4.8324,4.8195,4.8115,4.8001,4.8001,4.8001,4.8001,4.8001,4.8001,4.8001,4.8001,4.8001,4.8001,4.8001,4.8033,4.8115,4.8163,4.8324,4.858,4.8738,4.8832,4.8925,4.8987,4.9001,4.9001,4.9001,4.9001,4.9001,4.9001,4.9001,4.5196,4.5872,4.5838,4.189,4.0611,3.9345,3.5481,3.5357,3.5616,3.4141,3.5121,3.603,3.522,3.3567,3.1713,2.9816,2.794,2.5995,0.0,2.3421,2.3272,2.3222,2.5359,2.6851,2.6901,2.6636,2.7661,3.0605,3.0676,3.2608,3.7168,3.9494,4.1382,4.2957,4.4177,4.5194,4.6021,4.7403,4.8481,4.9179,5.0264,5.1251,5.2063,5.2063,5.2226,5.2498,5.2498,5.2498,5.2498,5.2498,5.2498,5.2498,5.2498,5.2498,5.2498,5.2498,5.2498,5.2498,5.2498,5.2498,5.2498,5.2498,5.2498,5.2498,5.2498,5.2498,5.2498,5.2498,5.2498,5.2498,5.2498,5.1768,5.0982,5.0751,4.9982,4.926,4.9063,4.8909,4.8846,4.8863,4.8707,4.8549,4.8436,4.8356,4.8227,4.8033,4.8001,4.8001,4.8001,4.8001,4.8001,4.8001,4.8001,4.8066,4.8227,4.8403,4.8498,4.8483,4.8608,4.875,4.8818,4.8849,4.8925,4.9001,4.9001,4.9001,4.9001,4.9001,4.9001,4.9001,4.8731,4.8612]},{"header":{"parameterUnit":"m.s-1","parameterCategory":1,"la1":30.6,"la2":29.2853,"lo1":-89.7004,"lo2":-87.6739,"dy":0.0162,"dx":0.0183,"nx":112,"ny":82,"refTime":"2024-09-03T12:00:00:Z","depth":0,"parameterNumber":3,"parameterNumberName":"V-component_of_WINDS"},"data":[0.0,0.0,0.0,0.0,0.0,0.0,0.0,0.0,0.0,0.0,0.0,0.0,0.0,0.0,0.0,0.0,0.0,0.0,0.0,0.0,0.0,0.0,0.0,0.0,0.0,0.0,0.0,0.0,0.0,0.0,0.0,0.0,0.0,0.0,0.0,0.0,0.0,0.0,0.0,0.0,0.0,0.0,0.0,0.0,0.0,0.0,0.0,0.0,0.0,0.0,0.0,0.0,0.0,0.0,0.0,0.0,0.0,0.0,0.0,0.0,0.0,0.0,0.0,0.0,0.0,0.0,0.0,0.0,0.0,0.0,0.0,0.0,0.0,0.0,0.0,0.0,0.0,0.0,0.0,0.0,0.0,0.0,0.0,0.0,0.0,0.0,0.0,0.0,0.0,0.0,2.1118,2.4785,2.8479,3.0785,3.0986,3.0385,2.8286,2.4344,0.0,0.0,0.0,0.0,0.0,0.0,0.0,0.0,0.0,0.0,0.0,0.0,0.0,0.0,0.0,0.0,0.0,0.0,0.0,0.0,0.0,0.0,0.0,0.0,0.0,0.0,0.0,0.0,0.0,0.0,0.0,0.0,0.0,0.0,0.0,0.0,0.0,0.0,0.0,0.0,0.0,0.0,0.0,0.0,0.0,0.0,0.0,0.0,0.0,0.0,0.0,0.0,0.0,0.0,0.0,0.0,0.0,0.0,0.0,0.0,0.0,0.0,0.0,0.0,0.0,0.0,0.0,0.0,0.0,0.0,0.0,0.0,0.0,0.0,0.0,0.0,0.0,0.0,0.0,0.0,0.0,0.0,0.0,0.0,0.0,0.0,0.0,0.0,0.0,0.0,0.0,0.0,0.0,0.0,0.0,0.0,0.0,0.0,0.0,0.0,0.0,0.0,0.0,0.0,2.1769,2.7152,2.8708,2.9832,3.0911,3.0019,2.7902,2.4347,0.0,0.0,0.0,0.0,0.0,0.0,0.0,0.0,0.0,0.0,0.0,0.0,0.0,0.0,0.0,0.0,0.0,0.0,0.0,0.0,0.0,0.0,0.0,0.0,0.0,0.0,0.0,0.0,0.0,0.0,0.0,0.0,0.0,0.0,0.0,0.0,0.0,0.0,0.0,0.0,0.0,0.0,0.0,0.0,0.0,0.0,0.0,0.0,0.0,0.0,0.0,0.0,0.0,0.0,0.0,0.0,0.0,0.0,0.0,0.0,0.0,0.0,0.0,0.0,0.0,0.0,0.0,0.0,0.0,0.0,0.0,0.0,0.0,0.0,0.0,0.0,0.0,0.0,0.0,0.0,0.0,0.0,0.0,0.0,0.0,0.0,0.0,0.0,0.0,0.0,0.0,0.0,0.0,0.0,0.0,0.0,0.0,0.0,0.0,0.0,0.0,0.0,0.0,2.1055,2.3463,2.777,2.9063,2.9832,3.0394,2.9746,2.7798,2.4305,2.2178,0.0,0.0,0.0,0.0,0.0,0.0,0.0,0.0,0.0,0.0,0.0,0.0,0.0,0.0,0.0,0.0,0.0,0.0,0.0,0.0,0.0,0.0,0.0,0.0,0.0,0.0,0.0,0.0,0.0,0.0,0.0,0.0,0.0,0.0,0.0,0.0,0.0,0.0,0.0,0.0,0.0,0.0,0.0,0.0,0.0,0.0,0.0,0.0,0.0,0.0,0.0,0.0,0.0,0.0,0.0,0.0,0.0,0.0,0.0,0.0,0.0,0.0,0.0,0.0,0.0,0.0,0.0,0.0,0.0,0.0,0.0,0.0,0.0,0.0,0.0,0.0,0.0,0.0,0.0,0.0,0.0,0.0,0.0,0.0,0.0,0.0,0.0,0.0,0.0,0.0,0.0,0.0,0.0,0.0,0.0,0.0,0.0,0.0,0.0,0.0,0.0,0.0,2.3594,2.5158,2.7894,2.9145,2.9845,2.9999,2.9176,2.7366,2.4279,2.1446,0.0,0.0,0.0,0.0,0.0,0.0,0.0,0.0,0.0,0.0,0.0,0.0,0.0,0.0,0.0,0.0,0.0,0.0,0.0,0.0,0.0,0.0,0.0,0.0,0.0,0.0,0.0,0.0,0.0,0.0,0.0,0.0,0.0,0.0,0.0,0.0,0.0,0.0,0.0,0.0,0.0,0.0,0.0,0.0,0.0,0.0,0.0,0.0,0.0,0.0,0.0,0.0,0.0,0.0,0.0,0.0,0.0,0.0,0.0,0.0,0.0,0.0,0.0,0.0,0.0,0.0,0.0,0.0,0.0,0.0,0.0,0.0,0.0,0.0,0.0,0.0,0.0,0.0,0.0,0.0,0.0,0.0,0.0,0.0,0.0,0.0,0.0,0.0,0.0,0.0,0.0,0.0,0.0,0.0,0.0,0.0,0.0,0.0,0.0,0.0,0.0,0.0,2.38,2.6244,2.8008,2.8779,2.9394,2.996,2.8079,2.6104,2.42,1.9917,0.0,0.0,0.0,0.0,0.0,0.0,0.0,0.0,0.0,0.0,0.0,0.0,0.0,0.0,0.0,0.0,0.0,0.0,0.0,0.0,0.0,0.0,0.0,0.0,0.0,0.0,0.0,0.0,0.0,0.0,0.0,0.0,0.0,0.0,0.0,0.0,0.0,0.0,0.0,0.0,0.0,0.0,0.0,0.0,0.0,0.0,0.0,0.0,0.0,0.0,0.0,0.0,0.0,0.0,0.0,0.0,0.0,0.0,0.0,0.0,0.0,0.0,0.0,0.0,0.0,0.0,0.0,0.0,0.0,0.0,0.0,0.0,0.0,0.0,0.0,0.0,0.0,0.0,0.0,0.0,0.0,0.0,0.0,0.0,0.0,0.0,0.0,0.0,0.0,0.0,0.0,0.0,0.0,0.0,0.0,0.0,0.0,0.0,0.0,0.0,0.0,0.0,2.2995,2.5125,2.7336,2.8167,2.8779,2.9406,2.8353,2.665,2.4266,0.0,0.0,0.0,0.0,0.0,0.0,0.0,0.0,0.0,0.0,0.0,0.0,0.0,0.0,0.0,0.0,0.0,0.0,0.0,0.0,0.0,0.0,0.0,0.0,0.0,0.0,0.0,0.0,0.0,0.0,0.0,0.0,0.0,0.0,0.0,0.0,0.0,0.0,0.0,0.0,0.0,0.0,0.0,0.0,0.0,0.0,0.0,0.0,0.0,0.0,0.0,0.0,0.0,0.0,0.0,0.0,0.0,0.0,0.0,0.0,0.0,0.0,0.0,0.0,0.0,0.0,0.0,0.0,0.0,0.0,0.0,0.0,0.0,0.0,0.0,0.0,0.0,0.0,0.0,0.0,0.0,0.0,0.0,0.0,0.0,0.0,0.0,0.0,0.0,0.0,0.0,0.0,0.0,0.0,0.0,0.0,0.0,0.0,0.0,0.0,0.0,0.0,2.0799,2.2914,2.492,2.6972,2.7777,2.8367,2.8779,2.784,2.626,2.3944,0.0,0.0,0.0,0.0,0.0,0.0,0.0,0.0,0.0,0.0,0.0,0.0,0.0,0.0,0.0,0.0,0.0,0.0,0.0,0.0,0.0,0.0,0.0,0.0,0.0,0.0,0.0,0.0,0.0,0.0,0.0,0.0,0.0,0.0,0.0,0.0,0.0,0.0,0.0,0.0,0.0,0.0,0.0,0.0,0.0,0.0,0.0,0.0,0.0,0.0,0.0,0.0,0.0,0.0,0.0,0.0,0.0,0.0,0.0,0.0,0.0,0.0,0.0,0.0,0.0,0.0,0.0,0.0,0.0,0.0,0.0,0.0,0.0,0.0,0.0,0.0,0.0,0.0,0.0,0.0,0.0,0.0,0.0,0.0,0.0,0.0,0.0,0.0,0.0,0.0,0.0,0.0,0.0,0.0,0.0,0.0,0.0,0.0,0.0,0.0,0.0,0.0,2.0937,2.3821,2.6106,2.7075,2.7777,2.8179,2.8219,2.6179,2.4425,0.0,0.0,0.0,0.0,0.0,0.0,0.0,0.0,0.0,0.0,0.0,0.0,0.0,0.0,0.0,0.0,0.0,0.0,0.0,0.0,0.0,0.0,0.0,0.0,0.0,0.0,0.0,0.0,0.0,0.0,0.0,0.0,0.0,0.0,0.0,0.0,0.0,0.0,0.0,0.0,0.0,0.0,0.0,0.0,0.0,0.0,0.0,0.0,0.0,0.0,0.0,0.0,0.0,0.0,0.0,0.0,0.0,0.0,0.0,0.0,0.0,0.0,0.0,0.0,0.0,0.0,0.0,0.0,0.0,0.0,0.0,0.0,0.0,0.0,0.0,0.0,0.0,0.0,0.0,0.0,0.0,0.0,0.0,0.0,0.0,0.0,0.0,0.0,0.0,0.0,0.0,0.0,0.0,0.0,0.0,0.0,0.0,0.0,0.0,0.0,0.0,0.0,0.0,2.0937,2.3821,2.6106,2.7075,2.7394,2.7708,2.8179,2.6848,2.5235,2.3319,0.0,0.0,0.0,0.0,0.0,0.0,0.0,0.0,0.0,0.0,0.0,0.0,0.0,0.0,0.0,0.0,0.0,0.0,0.0,0.0,0.0,0.0,0.0,0.0,0.0,0.0,0.0,0.0,0.0,0.0,0.0,0.0,0.0,0.0,0.0,0.0,0.0,0.0,0.0,0.0,0.0,0.0,0.0,0.0,0.0,0.0,0.0,0.0,0.0,0.0,0.0,0.0,0.0,0.0,0.0,0.0,0.0,0.0,0.0,0.0,0.0,0.0,0.0,0.0,0.0,0.0,0.0,0.0,0.0,0.0,0.0,0.0,0.0,0.0,0.0,0.0,0.0,0.0,0.0,0.0,0.0,0.0,0.0,0.0,0.0,0.0,0.0,0.0,0.0,0.0,0.0,0.0,0.0,0.0,0.0,0.0,0.0,0.0,0.0,0.0,0.0,0.0,2.096,2.4041,2.6324,2.711,2.719,2.7342,2.7788,2.6821,2.5254,2.302,0.0,0.0,0.0,0.0,0.0,0.0,0.0,0.0,0.0,0.0,0.0,0.0,0.0,0.0,0.0,0.0,0.0,0.0,0.0,0.0,0.0,0.0,0.0,0.0,0.0,0.0,0.0,0.0,0.0,0.0,0.0,0.0,0.0,0.0,0.0,0.0,0.0,0.0,0.0,0.0,0.0,0.0,0.0,0.0,0.0,0.0,0.0,0.0,0.0,0.0,0.0,0.0,0.0,0.0,0.0,0.0,0.0,0.0,0.0,0.0,0.0,0.0,0.0,0.0,0.0,0.0,0.0,0.0,0.0,0.0,0.0,0.0,0.0,0.0,0.0,0.0,0.0,0.0,0.0,0.0,0.0,0.0,0.0,0.0,0.0,0.0,0.0,0.0,0.0,0.0,0.0,0.0,0.0,0.0,0.0,0.0,0.0,0.0,0.0,0.0,0.0,0.0,2.0994,2.4305,2.6657,2.7133,2.719,2.719,2.719,2.6313,2.4849,2.2676,0.0,0.0,0.0,0.0,0.0,0.0,0.0,0.0,0.0,0.0,0.0,0.0,0.0,0.0,0.0,0.0,0.0,0.0,0.0,0.0,0.0,0.0,0.0,0.0,0.0,0.0,0.0,0.0,0.0,0.0,0.0,0.0,0.0,0.0,0.0,0.0,0.0,0.0,0.0,0.0,0.0,0.0,0.0,0.0,0.0,0.0,0.0,0.0,0.0,0.0,0.0,0.0,0.0,0.0,0.0,0.0,0.0,0.0,0.0,0.0,1.3419,1.3078,0.0,0.0,0.0,0.0,0.0,0.0,0.0,0.0,0.0,0.0,0.0,0.0,0.0,0.0,0.0,0.0,0.0,0.0,0.0,0.0,0.0,0.0,0.0,0.0,0.0,0.0,0.0,0.0,0.0,0.0,0.0,0.0,0.0,0.0,0.0,0.0,0.0,0.0,0.0,0.0,2.0994,2.4305,2.6657,2.7133,2.719,2.719,2.719,2.6673,2.557,2.3779,2.1214,0.0,0.0,0.0,0.0,0.0,0.0,0.0,0.0,0.0,0.0,0.0,0.0,0.0,0.0,0.0,0.0,0.0,0.0,0.0,0.0,0.0,0.0,0.0,0.0,0.0,0.0,0.0,0.0,0.0,0.0,0.0,0.0,0.0,0.0,0.0,0.0,0.0,0.0,0.0,0.0,0.0,0.0,0.0,0.0,0.0,0.0,0.0,0.0,0.0,0.0,0.0,0.0,0.0,0.0,0.0,0.0,0.0,0.0,0.0,1.5195,1.4906,0.0,0.0,0.0,0.0,0.0,0.0,0.0,0.0,0.0,0.0,0.0,0.0,0.0,0.0,0.0,0.0,0.0,0.0,0.0,0.0,0.0,0.0,0.0,0.0,0.0,0.0,0.0,0.0,0.0,0.0,0.0,0.0,0.0,0.0,0.0,0.0,0.0,0.0,0.0,0.0,2.1365,2.4636,2.6932,2.7156,2.719,2.719,2.719,2.676,2.5912,2.4525,2.2843,0.0,0.0,0.0,0.0,0.0,0.0,0.0,0.0,0.0,0.0,0.0,0.0,0.0,0.0,0.0,0.0,0.0,0.0,0.0,0.0,0.0,0.0,0.0,0.0,0.0,0.0,0.0,0.0,0.0,0.0,0.0,0.0,0.0,0.0,0.0,0.0,0.0,0.0,0.0,0.0,0.0,0.0,0.0,0.0,0.0,0.0,0.0,0.0,0.0,0.0,0.0,0.0,0.0,1.7567,1.8096,1.8416,1.878,1.9332,1.9768,1.7674,1.7556,1.8644,1.6465,0.0,0.0,0.0,0.0,0.0,0.0,0.0,0.0,0.0,0.0,0.0,0.0,0.0,0.0,0.0,0.0,0.0,0.0,0.0,0.0,0.0,0.0,2.1222,2.1222,2.2201,2.2346,1.9589,0.0,0.0,0.0,0.0,0.0,0.0,0.0,0.0,0.0,0.0,0.0,2.202,2.5104,2.719,2.719,2.719,2.719,2.719,2.6841,2.6198,2.5245,2.4531,2.3002,0.0,0.0,0.0,0.0,0.0,0.0,0.0,0.0,0.0,0.0,0.0,0.0,0.0,0.0,0.0,0.0,0.0,0.0,0.0,0.0,0.0,0.0,0.0,0.0,0.0,0.0,0.0,0.0,0.0,0.0,0.0,0.0,1.066,1.2157,0.0,0.0,0.0,0.0,0.0,0.0,0.0,0.0,0.0,0.0,0.0,0.0,0.0,1.6881,1.7721,1.8701,1.9352,1.9621,2.0362,2.072,2.0764,2.1402,2.1902,2.223,2.2206,0.0,1.8829,1.8029,0.0,0.0,0.0,0.0,0.0,0.0,0.0,0.0,0.0,0.0,0.0,0.0,0.0,0.0,0.0,0.0,0.0,0.0,0.0,0.0,0.0,0.0,2.4559,2.4559,2.5026,2.5213,2.4373,2.1424,1.8802,1.8206,1.7785,1.712,0.0,0.0,0.0,0.0,0.0,0.0,2.3018,2.5539,2.719,2.719,2.719,2.719,2.719,2.7121,2.6875,2.6341,2.5335,2.4848,2.4922,2.2782,0.0,0.0,0.0,0.0,0.0,0.0,0.0,0.0,0.0,0.0,0.0,0.0,0.0,0.0,0.0,0.0,0.0,0.0,0.0,0.0,0.0,0.0,0.0,0.0,0.0,0.0,0.0,0.0,0.0,1.0588,1.2014,1.2942,1.3028,1.2913,0.0,0.0,0.0,0.0,0.0,0.0,0.0,0.0,0.0,1.7772,1.8423,1.9045,1.9659,2.045,2.0918,2.1064,2.1701,2.2008,2.2008,2.29,2.3366,2.3489,2.3862,2.3146,2.1705,2.0563,1.9899,1.952,0.0,0.0,0.0,0.0,2.0061,2.0099,2.0945,2.1279,2.1278,2.0731,0.0,0.0,0.0,0.0,0.0,0.0,0.0,2.1797,2.2729,2.4281,2.5658,2.5916,2.6351,2.6617,2.6417,2.5019,2.3229,2.1389,2.1045,2.0309,1.8013,1.8497,0.0,0.0,0.0,2.3213,2.4143,2.5963,2.719,2.719,2.719,2.719,2.719,2.7545,2.7683,2.746,2.7366,2.6991,2.6275,2.5084,2.3317,0.0,0.0,0.0,0.0,0.0,0.0,0.0,0.0,0.0,0.0,0.0,0.0,0.0,0.0,0.0,0.0,0.0,0.0,0.0,0.0,0.0,0.0,0.0,0.0,0.0,0.0,0.0,0.0,1.2117,1.3282,1.3911,1.4434,1.4545,0.0,0.0,0.0,0.0,0.0,0.0,1.7304,1.8203,1.906,1.9872,2.0516,2.0905,2.1211,2.1774,2.2119,2.2305,2.2771,2.3054,2.3245,2.417,2.4602,2.4649,2.5068,2.5112,2.4706,2.3004,2.2112,2.189,2.1426,2.1107,2.1057,2.2384,2.2661,2.2512,2.366,2.4062,2.3899,2.3317,2.3197,2.3066,2.2248,0.0,0.0,0.0,0.0,2.3577,2.4551,2.5443,2.6221,2.6816,2.7235,2.7512,2.7639,2.7682,2.6986,2.4552,2.4266,2.3618,2.0924,2.1392,0.0,2.0974,2.2868,2.4602,2.5233,2.6439,2.719,2.719,2.719,2.719,2.719,2.7817,2.8219,2.8219,2.8802,2.8649,2.7524,2.7185,2.5644,2.2714,0.0,0.0,0.0,0.0,0.0,0.0,0.0,0.0,0.0,0.0,0.0,0.0,0.0,0.0,0.0,0.0,0.0,0.0,0.0,0.0,0.0,0.0,0.0,0.0,0.0,0.0,0.0,0.0,0.0,1.5733,1.645,0.0,0.0,0.0,0.0,1.6683,1.7589,1.8694,1.992,2.0676,2.1203,2.1562,2.2176,2.2506,2.2528,2.2864,2.335,2.3977,2.4008,2.4332,2.5018,2.57,2.6014,2.6014,2.6684,2.6969,2.6773,2.4653,2.3582,2.3295,2.3472,2.3521,2.3529,2.3589,2.3633,2.3608,2.3702,2.4475,2.5465,2.5879,2.6153,2.6341,2.6299,2.5668,0.0,0.0,2.5668,2.5972,2.6895,2.6864,2.6791,2.7708,2.7955,2.8096,2.8552,2.864,2.8344,2.7382,2.7134,2.6614,2.4982,0.0,2.4556,2.4039,2.4487,2.5245,2.6295,2.6887,2.719,2.719,2.719,2.719,2.719,2.7817,2.8219,2.8219,2.8755,2.9305,2.9795,2.8734,2.7309,2.5625,2.3324,0.0,0.0,0.0,0.0,0.0,0.0,0.0,0.0,0.0,0.0,0.0,0.0,0.0,0.0,0.0,0.0,0.0,0.0,0.0,0.0,0.0,0.0,0.0,0.0,0.0,0.0,0.0,0.0,1.7341,1.8247,0.0,1.7991,1.8196,1.8569,1.9001,1.974,2.0559,2.1445,2.1891,2.2264,2.2593,2.282,2.2937,2.2937,2.3054,2.3425,2.4108,2.4108,2.4425,2.5111,2.577,2.6075,2.6136,2.6822,2.7073,2.703,2.6253,2.5745,2.5364,2.5218,2.5138,2.5146,2.5146,2.5522,2.5963,2.5714,2.629,2.7178,2.7311,2.7603,2.7883,2.7883,2.7655,2.7438,2.7593,2.7634,2.7717,2.8048,2.8032,2.8052,2.8365,2.873,2.9013,2.9198,2.9431,2.9579,2.9251,2.8649,2.7733,2.624,2.6748,2.6967,2.5869,2.7021,2.8062,2.8057,2.8588,2.8859,2.8471,2.8422,2.8422,2.8422,2.8988,2.9231,2.8883,2.9391,2.9502,2.891,2.8473,2.7458,2.5757,2.4564,2.2284,0.0,0.0,0.0,0.0,0.0,0.0,0.0,0.0,0.0,0.0,0.0,0.0,0.0,0.0,0.0,0.0,0.0,0.0,0.0,0.0,0.0,0.0,0.0,0.0,0.0,1.6706,1.7999,1.873,1.9769,2.02,1.9674,2.0091,2.0545,2.0867,2.1386,2.192,2.2462,2.2681,2.2886,2.3098,2.3106,2.3106,2.3106,2.3651,2.427,2.4887,2.5133,2.5631,2.6258,2.638,2.6449,2.6449,2.6891,2.7073,2.7073,2.7073,2.6919,2.6662,2.6422,2.6319,2.6319,2.6319,2.6635,2.7071,2.7109,2.753,2.8124,2.8542,2.8849,2.9073,2.9073,2.9073,2.9073,2.9073,2.897,2.8896,2.9086,2.9039,2.9042,2.937,2.962,2.9789,2.9986,3.0114,3.0216,3.0216,2.9676,2.885,2.7732,2.831,2.866,2.776,2.8864,2.9732,2.9556,2.9825,2.9862,2.9441,2.9231,2.9081,2.9081,2.9502,2.9644,2.9491,2.9716,2.9528,2.8935,2.8335,2.7417,2.6068,2.512,2.3289,2.0562,0.0,0.0,0.0,0.0,0.0,0.0,0.0,0.0,0.0,0.0,0.0,0.0,0.0,0.0,0.0,0.0,0.0,0.0,0.0,0.0,0.0,0.0,0.0,1.6976,1.8377,1.9477,1.9852,2.0962,2.1364,2.0365,2.1181,2.1869,2.2184,2.2476,2.2776,2.3091,2.3106,2.3106,2.3106,2.3106,2.3106,2.3168,2.4679,2.5835,2.6512,2.7177,2.7796,2.8421,2.7487,2.7073,2.7073,2.7133,2.7133,2.7133,2.7194,2.7194,2.7194,2.7133,2.7133,2.7133,2.7133,2.6944,2.6783,2.779,2.8121,2.832,2.9621,3.0015,3.0015,3.0005,2.9994,2.9994,2.9994,2.9673,2.9475,3.0003,2.9774,2.9719,3.0745,3.0617,3.04,3.0891,3.0618,3.0239,3.0239,3.0227,3.0067,2.964,2.956,2.9651,2.9855,2.9911,0.0,3.0758,3.0408,3.0087,3.005,2.9517,2.9184,2.916,2.9227,2.9453,2.9961,2.9548,2.9523,3.0022,2.8421,2.731,2.6777,2.5058,2.3531,2.2231,0.0,0.0,0.0,0.0,0.0,0.0,0.0,0.0,0.0,0.0,0.0,0.0,0.0,0.0,0.0,0.0,0.0,0.0,0.0,0.0,0.0,1.8909,1.9515,1.8743,2.0011,2.1152,2.1474,2.2228,2.2615,2.2345,2.2564,2.2754,2.2849,2.293,2.3018,2.3106,2.3106,2.3106,2.3106,2.3106,2.3651,2.4855,2.4571,2.5431,2.7237,2.6719,2.6857,2.7487,2.7194,2.7073,2.7133,2.784,2.8131,2.8191,2.8829,2.9126,2.9007,2.7608,2.7547,2.8131,2.8131,2.8691,2.9623,3.0551,3.0726,3.0492,3.0486,3.0501,3.0429,3.0098,2.9994,2.9994,2.9994,2.9901,2.9953,3.049,3.0557,3.0651,3.1354,3.1422,3.1405,3.1559,3.1157,3.0801,3.0801,3.048,3.0306,3.0716,3.12,3.1567,3.1594,3.2068,3.2314,3.2055,3.2357,3.2298,3.1408,3.1138,3.092,3.0495,3.0492,3.0229,2.9531,2.9373,2.9192,2.8869,2.8417,2.8296,2.8581,2.6447,2.5301,0.0,0.0,0.0,0.0,0.0,0.0,0.0,0.0,0.0,0.0,0.0,0.0,0.0,0.0,0.0,0.0,0.0,0.0,0.0,0.0,0.0,0.0,2.0826,2.1128,2.0718,2.1489,2.2206,2.2535,2.2886,2.3106,2.3106,2.3106,2.3106,2.3106,2.3237,2.331,2.331,2.3442,2.3515,2.3515,2.4252,2.4866,2.536,2.6076,2.7044,2.8318,2.7875,2.8104,2.8829,2.8421,2.8241,2.8301,2.8829,2.9066,2.9126,2.9244,2.953,2.9766,0.0,0.0,0.0,0.0,2.9606,3.041,3.1164,3.1279,3.106,3.1003,3.0843,3.0636,3.0367,3.0149,3.0047,3.0297,3.0349,3.0495,3.1249,3.1501,3.1645,3.2228,3.2248,3.2208,3.2496,3.2195,3.1809,3.1909,3.1908,0.0,3.2125,3.2033,3.2064,3.2673,3.3129,3.3356,3.3293,3.3459,3.3326,3.2607,3.2098,3.1667,3.1365,3.0908,0.0,0.0,0.0,2.9048,2.8399,2.842,0.0,0.0,0.0,0.0,0.0,2.7593,0.0,0.0,2.5266,2.5246,0.0,0.0,0.0,0.0,0.0,0.0,0.0,0.0,0.0,0.0,0.0,0.0,0.0,0.0,0.0,0.0,2.2632,2.2416,2.2837,2.2857,2.2968,2.3076,2.3106,2.3106,2.3106,2.3142,2.3164,2.3164,2.3464,2.3654,2.3654,2.3925,0.0,0.0,0.0,2.6288,2.5736,2.8262,2.9632,2.9874,3.0009,3.0497,3.1259,3.0381,2.995,2.995,3.002,3.006,3.0001,2.9244,2.9422,3.0001,2.9126,2.9294,3.006,3.0177,3.0236,3.0305,3.0667,0.0,0.0,3.1302,3.1174,3.0822,3.0719,3.0451,3.0255,3.0703,3.0836,3.1146,3.2156,3.2409,3.2521,3.317,3.2925,3.2776,3.3491,3.3315,3.3037,3.3207,3.3714,3.3946,3.3563,3.2475,3.2077,3.33,3.3526,3.3738,3.4314,3.3979,3.3666,3.36,3.2659,0.0,3.1902,3.091,3.0479,3.096,2.998,2.917,2.8721,2.8739,2.8839,2.8869,2.9889,3.0561,3.0892,3.1901,3.2257,3.1866,2.7728,2.7044,0.0,0.0,0.0,0.0,0.0,0.0,0.0,0.0,0.0,0.0,0.0,0.0,0.0,0.0,0.0,2.5281,2.5608,2.532,2.4729,2.4601,2.4263,2.3223,2.3106,2.3106,2.3106,2.3347,2.3501,2.3501,2.3801,2.3991,2.3991,2.4049,2.4338,2.4978,2.5286,2.667,2.9101,2.8986,2.9941,3.2043,3.136,0.0,3.1252,3.0727,3.0455,3.0496,3.085,3.1053,3.1053,3.1662,3.1536,3.0995,3.082,3.0878,3.1111,3.1893,3.2143,3.218,3.227,3.2297,3.2225,3.1942,3.1791,3.164,3.0905,3.0925,0.0,3.0902,3.1105,3.1567,3.2207,3.2409,3.2521,3.317,3.3201,3.3181,3.333,3.3488,3.3553,3.36,3.3479,3.3545,3.3958,3.3922,3.3882,3.4189,3.423,3.4272,3.4397,3.4306,3.4071,3.3639,3.3391,3.3051,3.2568,3.1863,3.1327,3.1013,3.0346,3.0124,3.0464,3.0921,3.1378,3.1849,3.2084,3.2176,3.2057,3.2277,3.2656,3.303,3.1307,3.0884,0.0,0.0,0.0,0.0,0.0,0.0,0.0,0.0,0.0,0.0,0.0,2.3114,2.5013,0.0,2.5285,2.6496,2.6931,2.6581,2.5256,2.5831,2.5563,2.3377,2.3106,2.3171,2.3332,2.3501,2.3662,2.383,2.478,2.5098,2.4393,2.5512,2.5859,2.5157,2.7019,2.8426,2.9368,3.0328,3.1489,3.293,3.2278,3.224,3.2664,3.2435,3.2336,3.2366,3.2339,3.2322,3.237,3.258,3.2133,3.1343,3.1825,3.17,3.1401,3.2363,3.2669,3.2669,3.2669,3.2669,3.2638,3.2401,3.2173,3.195,3.1824,3.1461,3.1254,3.1837,3.1815,3.1772,3.2645,3.2846,3.2908,3.3231,3.3281,3.353,3.4286,3.4558,3.4808,3.5288,3.5201,3.5092,3.5151,3.4994,3.475,3.445,3.4397,3.4397,3.4397,3.4397,3.4293,3.4018,3.3757,3.347,3.3169,3.2607,3.215,3.1862,3.1575,3.1548,3.1823,3.211,3.2398,3.2685,3.2986,3.3103,3.2982,3.3554,3.3959,3.4148,3.3794,3.3551,0.0,0.0,0.0,0.0,0.0,0.0,0.0,2.0724,2.2032,2.2722,2.4391,2.6311,2.8179,2.7957,2.7576,2.782,2.8227,2.7913,2.6191,2.7127,2.6862,2.382,2.372,2.3911,2.394,2.403,2.408,2.4217,2.5577,2.5893,2.4731,2.6811,2.7286,2.5846,2.9051,3.0484,2.9752,3.1888,3.3191,3.3633,3.3335,3.3599,3.4331,3.4238,3.4266,3.4235,3.371,3.3461,3.3348,3.3006,3.233,3.1652,3.2373,3.2248,3.1642,3.243,3.2669,3.2669,3.2669,3.2669,3.2669,3.2669,3.2535,3.2371,3.2778,3.2228,3.1699,3.2886,3.2634,3.225,3.3104,3.3281,3.3281,3.3281,3.3419,3.3843,3.509,3.5607,3.6066,3.6793,3.6987,3.6854,3.6358,3.5822,3.526,3.4659,3.4476,3.4397,3.4397,3.4397,3.4397,3.4397,3.4005,3.3705,3.36,3.3143,3.2816,3.2698,3.2685,3.2738,3.2868,3.2868,3.2921,3.3025,3.3613,3.3927,3.3927,3.4959,3.5379,3.5179,3.5436,3.5327,1.8877,1.8401,1.8423,2.0962,2.0912,2.1321,0.0,2.6466,2.6619,2.7839,2.7984,2.8267,2.9286,2.939,2.9675,3.0801,3.1375,3.1066,2.9334,2.9255,2.8279,2.5234,2.5859,2.6244,2.536,2.5556,2.537,2.4621,2.5011,2.5203,2.5068,2.6411,2.7543,2.8254,2.9891,3.1588,3.3272,3.3611,3.4218,3.516,3.5108,3.5139,3.5252,3.4859,3.4743,3.4723,3.4256,3.3762,3.3368,3.3327,3.3021,3.2545,3.2669,3.2612,3.2555,3.2669,3.2669,3.2669,3.2669,3.2669,3.2669,3.2669,3.3027,3.3353,3.2995,3.3486,3.4035,3.3388,3.3458,3.3668,3.3396,3.3281,3.3281,3.3281,3.3793,3.4337,3.4483,3.5607,3.6602,3.6726,3.6883,3.6985,3.692,3.641,3.5822,3.5273,3.4737,3.4397,3.4397,3.4397,3.4397,3.4397,3.4345,3.411,3.3639,3.3535,3.326,3.2725,3.2685,3.2934,3.347,3.3496,3.3718,3.4201,3.4803,3.5103,3.5103,3.5717,3.6059,3.6128,3.6193,3.6036,2.2646,2.2678,2.2723,2.4193,2.4764,2.5308,2.6727,2.7573,2.8193,2.853,2.9221,2.99,3.0314,3.0354,3.0372,3.036,3.1382,3.1568,2.9832,3.0484,3.046,2.8663,2.8948,2.8255,2.5736,2.6531,2.7144,2.6914,2.8235,2.8641,2.78,2.9696,3.041,2.9613,3.1387,3.2619,3.3233,3.409,3.4797,3.5418,3.5418,3.5418,3.5418,3.5231,3.5004,3.4805,3.4608,3.4266,3.3762,3.3492,3.3265,3.3078,3.283,3.2669,3.2669,3.2669,3.2669,3.2669,3.2669,3.2669,3.2669,3.2669,3.3126,3.3639,3.3761,3.3944,3.4193,3.4475,3.4252,3.4043,3.4159,3.3935,3.3857,3.4298,3.4388,3.4629,3.5547,3.6225,3.6815,3.7307,3.7462,3.7521,3.7521,3.7024,3.6554,3.6319,3.5508,3.492,3.492,3.462,3.4397,3.4397,3.4397,3.4306,3.4084,3.4058,3.3953,3.3705,3.3692,3.3796,3.4058,3.4058,3.4609,3.5718,3.5453,3.5742,3.6588,3.6595,3.6571,3.6502,3.6654,3.6611,2.4933,2.5392,2.5727,2.699,2.7835,2.8349,2.8136,2.8868,2.9523,2.9303,3.014,3.0889,3.0889,3.0986,3.0896,3.0381,3.1485,3.1873,3.0503,3.1399,3.1725,3.0497,3.0645,2.973,2.6697,2.7687,2.8537,2.875,3.0191,3.0727,2.9874,3.1899,3.2419,3.0955,3.28,3.3713,3.3529,3.4518,3.517,3.5418,3.5418,3.5418,3.5418,3.5418,3.5242,3.4941,3.4941,3.4743,3.4287,3.3955,3.3606,3.3348,3.3037,3.283,3.2669,3.2669,3.2669,3.2669,3.2669,3.2669,3.2669,3.2669,3.3126,3.3727,3.4323,3.4361,3.4394,3.5233,3.499,3.4472,3.4726,3.4705,3.4676,3.5091,3.5243,3.5538,3.6499,3.6862,3.7201,3.7808,3.79,3.79,3.79,3.7547,3.726,3.726,3.6397,3.5704,3.5534,3.5142,3.4816,3.4659,3.4646,3.458,3.441,3.4397,3.4397,3.4397,3.4554,3.4646,3.4646,3.5028,3.5641,3.653,3.6295,3.6545,3.7362,3.7303,3.7111,3.6871,3.7009,3.6968,2.4551,2.4649,2.5558,2.8726,2.9051,2.9165,3.1508,3.1728,3.1445,3.1405,3.1162,3.0889,3.0889,3.1221,3.1641,3.207,3.25,3.2627,3.2207,3.2158,3.1404,2.9199,3.0089,3.0343,2.8938,2.9125,2.9303,2.9099,2.9168,2.9462,3.0172,3.1542,3.2435,3.2689,3.4133,3.4984,3.5294,3.5356,3.5366,3.5418,3.5418,3.5418,3.5418,3.5418,3.5418,3.5407,3.5407,3.5148,3.4795,3.4785,3.4246,3.3379,3.3358,3.3099,3.2669,3.2669,3.2669,3.2669,3.2669,3.2669,3.2669,3.2669,3.3126,3.3727,3.4323,3.4914,3.5364,3.5485,3.5508,3.5329,3.4923,3.5362,3.58,3.5325,3.6358,3.7369,3.6836,3.7307,3.7854,3.79,3.79,3.79,3.79,3.7887,3.7874,3.7874,3.7351,3.6737,3.6162,3.6057,3.5848,3.5325,3.5273,3.5038,3.445,3.4397,3.4397,3.4397,3.4946,3.5273,3.5273,3.6643,3.7024,3.6114,3.7541,3.7893,3.7017,3.7586,3.7723,3.7479,3.7201,3.6968,2.6562,2.7462,2.8362,3.006,3.0732,3.1115,3.1639,3.1621,3.1435,3.1162,3.0742,3.043,3.043,3.0547,3.0791,3.125,3.1914,3.2226,3.1797,3.2226,3.2037,3.0409,3.0887,3.1014,3.0303,3.0589,3.0876,3.1119,3.1837,3.2411,3.2961,3.415,3.4758,3.4518,3.526,3.5603,3.5428,3.5418,3.5418,3.5418,3.5418,3.5418,3.5418,3.5418,3.5418,3.5418,3.5418,3.5335,3.518,3.4879,3.4453,3.3803,3.3492,3.311,3.2669,3.2669,3.2669,3.2669,3.2669,3.2669,3.2794,3.3182,3.3727,3.4323,3.4925,3.5543,3.6013,3.6005,3.6013,3.5979,3.5818,3.5721,3.5777,3.6093,3.6779,3.7306,3.7238,3.7848,3.8331,3.7978,3.79,3.79,3.79,3.79,3.79,3.79,3.739,3.6789,3.6188,3.6109,3.6031,3.5848,3.6369,3.6659,3.6486,3.7043,3.7373,3.7373,3.7566,3.7399,3.6782,3.7253,3.7821,3.8472,3.7826,3.8428,4.0308,3.8501,3.7815,3.8173,3.7913,3.7938,2.8174,2.9258,3.0078,3.1269,3.1875,3.2129,3.2002,3.1738,3.1348,3.0762,3.0156,2.9648,2.9346,2.916,2.9355,3.0273,3.1006,3.1533,3.1728,3.2353,3.2432,3.1465,3.1582,3.165,3.1377,3.1592,3.1985,3.2512,3.3355,3.4154,3.4938,3.5694,3.6049,3.5914,3.6204,3.6132,3.5676,3.5666,3.5583,3.5418,3.5418,3.5418,3.5418,3.5418,3.5418,3.5418,3.5418,3.5418,3.5397,3.5117,3.4724,3.4329,3.3803,3.3348,3.2944,3.2789,3.2841,3.3012,3.2784,3.2841,3.3069,3.3455,3.3998,3.4591,3.5201,3.5653,3.6036,3.6211,3.632,3.632,3.632,3.6229,3.6367,3.6968,3.7519,3.7979,3.8219,3.8476,3.8606,3.8266,3.8031,3.79,3.79,3.79,3.79,3.79,3.7573,3.7181,3.6789,3.6737,3.6791,3.6906,3.714,3.7378,3.7502,3.777,3.8062,3.8393,3.8269,3.8098,3.7815,3.8346,3.889,3.9533,3.9045,3.9669,4.1519,3.9502,3.8549,3.8657,3.8521,3.8424,2.9381,2.999,3.0732,3.2412,3.251,3.2305,3.2676,3.206,3.1172,3.0283,2.9385,2.8506,2.7685,2.7266,2.7578,2.9209,2.9932,3.0732,3.1963,3.2559,3.2695,3.2256,3.2297,3.2317,3.2236,3.2256,3.257,3.3236,3.3649,3.4501,3.5975,3.6173,3.637,3.6794,3.6825,3.6618,3.6152,3.6121,3.5883,3.5418,3.5418,3.5418,3.5418,3.5418,3.5418,3.5418,3.5418,3.5418,3.5418,3.5418,3.5159,3.4774,3.4308,3.3782,3.3327,3.2892,3.3069,3.3512,3.2898,3.3126,3.3625,3.3681,3.4054,3.4647,3.5256,3.5433,3.5543,3.6157,3.632,3.632,3.632,3.6893,3.75,3.7792,3.854,3.9243,3.9514,3.9146,3.8789,3.8762,3.8318,3.7939,3.7913,3.79,3.79,3.7946,3.7992,3.7992,3.7992,3.7992,3.8119,3.8477,3.7767,3.7365,3.7696,3.6943,3.6857,3.7725,3.7491,3.7679,3.854,3.9924,4.0246,3.9373,4.1029,4.1576,4.0774,4.0502,3.9922,3.9136,3.9129,3.8676,3.0674,3.1562,3.2314,3.3076,3.2949,3.2578,3.2373,3.1152,2.9824,2.8955,2.7588,2.6377,2.5879,2.675,2.7646,2.8129,3.0184,3.167,3.168,3.2871,3.3467,3.2725,3.3203,3.3457,3.3135,3.3398,3.3901,3.4594,3.4455,3.479,3.5807,3.6691,3.7032,3.6815,3.7136,3.7094,3.6639,3.6277,3.5883,3.5418,3.5418,3.5418,3.5418,3.5418,3.5418,3.5418,3.5418,3.5418,3.5418,3.5418,3.5159,3.4774,3.4308,3.3782,3.3327,3.2892,3.3069,3.3512,3.2898,3.3126,3.3738,3.4669,3.4758,3.4703,3.5763,3.6048,3.6102,3.6266,3.632,3.632,3.632,3.6429,3.6762,3.7452,3.827,3.8963,3.9219,3.9643,3.986,3.9455,3.8906,3.8383,3.7978,3.79,3.8103,3.876,3.8881,3.8881,3.8881,3.8881,3.9169,3.9965,4.0463,4.0745,4.0839,4.1223,4.1564,4.1821,4.175,4.1509,4.1109,4.1433,4.1505,4.1296,4.1071,4.1735,4.3366,4.1753,4.1355,4.2068,4.1178,4.1218,3.1777,3.2568,3.3086,3.3135,3.2832,3.2207,3.1016,2.9844,2.8496,2.6689,2.5557,2.457,2.3574,2.4805,2.6152,2.6728,2.9189,3.1211,3.1728,3.3115,3.3896,3.3408,3.3945,3.4248,3.4004,3.4209,3.4684,3.5401,3.5204,3.5521,3.6479,3.7157,3.7467,3.7415,3.7664,3.757,3.7115,3.6442,3.5976,3.5718,3.5521,3.5418,3.5418,3.5418,3.5418,3.5418,3.5418,3.5418,3.5418,3.5418,3.5273,3.5004,3.4608,3.4142,3.3627,3.3182,3.3454,3.3942,3.3604,3.3885,3.4446,3.4869,3.5146,3.5433,3.6102,3.632,3.632,3.632,3.632,3.632,3.632,3.632,3.6472,3.7311,3.8161,3.8966,3.95,4.0048,4.0252,3.9716,3.9337,3.9011,3.871,3.8658,3.8945,3.9875,4.0042,4.0343,4.1157,4.0435,4.0159,4.1113,4.1338,4.1561,4.1949,4.2058,4.2304,4.2699,4.2345,4.2099,4.199,4.2266,4.2453,4.2453,4.2574,4.337,4.4751,4.3468,4.3041,4.3342,4.2244,4.2196,3.2646,3.3144,3.332,3.29,3.2393,3.1465,2.9394,2.833,2.6982,2.4189,2.3437,2.2822,2.1298,2.251,2.415,2.5469,2.7891,3.0233,3.1924,3.3324,3.4092,3.415,3.458,3.4873,3.4873,3.4873,3.5161,3.5934,3.5956,3.644,3.7429,3.7581,3.7767,3.8171,3.8181,3.7964,3.7498,3.6701,3.6235,3.6111,3.5707,3.548,3.5418,3.5418,3.5418,3.5418,3.5418,3.5418,3.5418,3.5418,3.5418,3.5376,3.4931,3.4577,3.4152,3.3692,3.3972,3.4567,3.4502,3.4925,3.5433,3.4925,3.5367,3.6211,3.6277,3.632,3.632,3.632,3.632,3.632,3.632,3.632,3.6526,3.7471,3.8255,3.9065,4.007,4.0395,4.037,3.9821,3.9716,3.969,3.9625,3.9695,4.0145,4.1121,4.137,4.2084,4.3834,4.231,4.1412,4.232,4.1707,4.1539,4.2376,4.1707,4.1581,4.2376,4.1665,4.1581,4.2403,4.2984,4.3332,4.3332,4.4617,4.5334,4.5382,4.5048,4.4554,4.3936,4.2851,4.2403,3.3086,3.3369,3.332,3.29,3.1953,3.0723,2.9258,2.6934,2.4639,2.3057,2.1592,2.0498,2.0195,2.1855,2.3818,2.5421,2.7891,3.0233,3.1924,3.3324,3.4199,3.4551,3.5303,3.5791,3.5791,3.5791,3.5946,3.6333,3.6686,3.7088,3.757,3.7924,3.8109,3.8181,3.8181,3.7964,3.7498,3.7332,3.6877,3.6111,3.6028,3.579,3.5418,3.5418,3.5418,3.5418,3.5418,3.5418,3.5418,3.5418,3.5418,3.5376,3.4931,3.4774,3.4658,3.4265,3.4518,3.5015,3.4611,3.5201,3.6102,3.6048,3.5763,3.5653,3.6157,3.632,3.632,3.632,3.632,3.632,3.632,3.632,3.6688,3.8214,3.8687,3.9208,4.0744,4.1132,4.0984,4.0396,4.0278,4.0135,3.969,4.0273,4.1167,4.2112,4.2933,4.3805,4.4926,4.4058,4.37,4.4641,4.4599,4.4558,4.4697,4.4599,4.4558,4.4739,4.4558,4.4558,4.4739,4.4843,4.4903,4.4903,4.5147,4.549,4.5875,4.4953,4.4907,4.5681,4.3827,4.3318,3.2988,3.3252,3.3271,3.2627,3.167,3.0254,2.7822,2.5391,2.3091,2.0908,1.9796,1.9121,1.8682,2.0732,2.2842,2.3887,2.623,2.8672,3.084,3.2266,3.3486,3.457,3.5478,3.6016,3.6016,3.6016,3.6142,3.6451,3.6654,3.6934,3.7348,3.7492,3.7693,3.7904,3.7904,3.7868,3.786,3.7612,3.7146,3.6473,3.6225,3.5863,3.5418,3.5418,3.5418,3.5418,3.5418,3.5418,3.5418,3.5418,3.5418,3.5397,3.519,3.4962,3.4733,3.4345,3.4613,3.5135,3.4644,3.5312,3.632,3.632,3.6102,3.5927,3.6211,3.632,3.632,3.632,3.632,3.632,3.632,3.6634,3.7,3.7429,3.8161,3.926,4.0946,4.1311,4.1219,4.0932,4.088,4.0801,4.054,4.0901,4.1536,4.2502,4.349,4.4451,4.5447,4.5635,4.5556,4.5323,4.5289,4.5289,4.5289,4.5289,4.5289,4.5289,4.5289,4.5289,4.5289,4.5648,4.5828,4.5828,4.6157,4.6187,4.5874,4.524,4.4965,4.4946,4.3184,4.28,3.2744,3.3037,3.3105,3.2353,3.125,2.9531,2.6386,2.4056,2.1795,1.9143,1.8461,1.8193,1.7627,1.9609,2.1621,2.251,2.4512,2.6924,2.9678,3.1201,3.2666,3.4365,3.5351,3.5928,3.6006,3.6016,3.6074,3.6393,3.6393,3.6596,3.7079,3.7146,3.7348,3.7616,3.7693,3.7904,3.8181,3.7726,3.726,3.6794,3.6328,3.5863,3.5418,3.5418,3.5418,3.5418,3.5418,3.5418,3.5418,3.5418,3.5418,3.5418,3.5418,3.5211,3.4899,3.4448,3.4763,3.5277,3.4855,3.5378,3.632,3.632,3.632,3.632,3.632,3.632,3.632,3.632,3.632,3.632,3.632,3.6796,3.715,3.6688,3.7844,3.9428,4.0744,4.1161,4.1311,4.1311,4.1311,4.1311,4.1311,4.1498,4.1967,4.2985,4.397,4.4992,4.5973,4.6829,4.6905,4.5843,4.5723,4.5723,4.5723,4.5723,4.5723,4.5723,4.5723,4.5723,4.5723,4.6247,4.6488,4.6488,4.704,4.6785,4.5734,4.5298,4.4595,4.3707,4.2266,4.1985,3.2588,3.2822,3.2744,3.2285,3.0332,2.8037,2.6113,2.3174,2.0391,1.89,1.8027,1.7598,1.79,1.8818,2.0303,2.2652,2.389,2.5781,2.915,3.0752,3.2217,3.3926,3.4912,3.5596,3.5986,3.6016,3.6016,3.6016,3.6084,3.6345,3.7079,3.7415,3.7549,3.7616,3.7971,3.8181,3.8181,3.7726,3.726,3.6794,3.6328,3.5863,3.5418,3.5418,3.5418,3.5418,3.5418,3.5418,3.5418,3.5418,3.5418,3.5418,3.5418,3.5397,3.5313,3.504,3.5328,3.5794,3.5424,3.5763,3.632,3.632,3.632,3.632,3.632,3.632,3.632,3.632,3.632,3.632,3.632,3.6375,3.658,3.7257,3.8739,4.0019,4.0173,4.0795,4.1311,4.1311,4.1311,4.1311,4.1311,4.2052,4.2985,4.4031,4.4992,4.6018,4.7019,4.7251,4.7249,4.713,4.7115,4.7115,4.7115,4.7115,4.7115,4.7115,4.7115,4.7115,4.7115,4.7189,4.7219,4.7219,4.7279,4.6682,4.5448,4.4503,4.3754,4.3259,4.2133,4.1505,3.1719,3.2217,3.2314,3.1885,3.0019,2.7842,2.6074,2.3057,2.0233,1.887,1.7969,1.7432,1.7598,1.832,1.9482,2.1299,2.21,2.3569,2.6816,2.8379,3.0117,3.2627,3.3916,3.4971,3.5928,3.6016,3.6016,3.6016,3.6016,3.6152,3.6413,3.6742,3.7069,3.728,3.7626,3.7971,3.8181,3.7528,3.7065,3.6794,3.6148,3.5685,3.5418,3.5418,3.5418,3.5418,3.5418,3.5418,3.5418,3.5418,3.5418,3.5418,3.5418,3.5418,3.5314,3.4693,3.5056,3.5743,3.4671,3.4936,3.5763,3.5763,3.5763,3.5829,3.6211,3.632,3.632,3.632,3.632,3.632,3.632,3.632,3.6742,3.8635,3.9169,3.9583,4.058,4.106,4.1311,4.1311,4.1311,4.1311,4.1311,4.215,4.2937,4.3355,4.4748,4.5928,4.6344,4.6931,4.7309,4.7309,4.7309,4.7309,4.7309,4.7309,4.7309,4.7309,4.7309,4.7309,4.7309,4.7309,4.7309,4.7309,4.7309,4.6462,4.4716,4.4036,4.2944,4.1558,4.0807,4.0415,3.0586,3.1357,3.1719,3.1406,2.9609,2.7461,2.5693,2.2764,2.001,1.8676,1.7881,1.7383,1.7383,1.7969,1.8877,2.0166,2.0859,2.2243,2.5265,2.6785,2.8682,3.1465,3.2803,3.4023,3.5322,3.5791,3.6016,3.6016,3.6016,3.6016,3.6016,3.6336,3.6654,3.7079,3.7348,3.7565,3.7852,3.7125,3.6664,3.647,3.5816,3.5489,3.5418,3.5418,3.5418,3.5418,3.5418,3.5418,3.5418,3.5418,3.5418,3.5418,3.5418,3.5418,3.5314,3.4403,3.4857,3.5637,3.4328,3.4645,3.5624,3.5643,3.5653,3.5763,3.6157,3.632,3.632,3.632,3.632,3.632,3.632,3.6483,3.7108,3.8908,3.9272,3.948,4.0694,4.111,4.1311,4.1311,4.1311,4.1311,4.1311,4.1868,4.2466,4.2744,4.4238,4.5463,4.5779,4.6682,4.7309,4.7309,4.7309,4.7309,4.7309,4.7309,4.7309,4.7309,4.7309,4.7309,4.7309,4.7309,4.7309,4.7309,4.7207,4.6166,4.4205,4.3693,4.2425,4.0351,3.9993,3.9788,2.9293,3.0234,3.0898,3.0898,2.8945,2.6572,2.4824,2.209,1.9561,1.8281,1.7676,1.7383,1.7383,1.7734,1.8437,1.9717,2.0625,2.2243,2.5265,2.6846,2.853,3.0644,3.166,3.2747,3.3975,3.5264,3.6016,3.6016,3.6016,3.6016,3.6016,3.6336,3.6654,3.7079,3.7079,3.7078,3.7039,3.6514,3.6065,3.5605,3.5458,3.5428,3.5418,3.5418,3.5418,3.5418,3.5418,3.5418,3.5418,3.5418,3.5418,3.5418,3.5418,3.5418,3.5314,3.4403,3.477,3.5557,3.4756,3.5189,3.6084,3.6262,3.6266,3.6266,3.632,3.632,3.632,3.632,3.632,3.632,3.632,3.6893,3.7512,3.7512,3.8844,4.007,4.0121,4.0744,4.1311,4.1311,4.1311,4.1311,4.1311,4.1311,4.1634,4.2647,4.364,4.4684,4.5689,4.6682,4.7309,4.7309,4.7309,4.7309,4.7309,4.7309,4.7309,4.7309,4.7309,4.7309,4.7309,4.7309,4.7309,4.7309,4.7019,4.5928,4.3882,4.3646,4.2315,4.007,4.007,3.9929,2.627,2.6924,2.7217,2.6621,2.541,2.4027,2.2939,2.125,1.9639,1.8607,1.8105,1.7812,1.7812,1.792,1.8818,2.1289,2.1924,2.3057,2.5801,2.7529,2.9111,3.0703,3.3203,3.4961,3.5371,3.5781,3.6016,3.6016,3.6016,3.6016,3.6016,3.6074,3.6336,3.6654,3.6944,3.6934,3.6613,3.6178,3.5862,3.5595,3.5198,3.517,3.5418,3.5418,3.5418,3.5418,3.5418,3.5418,3.5418,3.5418,3.5418,3.5418,3.5418,3.5418,3.5345,3.4755,3.4844,3.5055,3.4107,3.4022,3.4382,3.4444,3.4457,3.4624,3.5433,3.5993,3.632,3.632,3.632,3.632,3.632,3.6472,3.6947,3.8108,3.8792,3.9531,4.0681,4.111,4.1311,4.1311,4.1311,4.1311,4.1311,4.1868,4.2417,4.2744,4.4238,4.5463,4.5779,4.6682,4.7309,4.7309,4.7309,4.7309,4.7309,4.7309,4.7309,4.7309,4.7309,4.7309,4.7309,4.6638,4.6255,4.6255,4.5358,4.4224,4.2861,4.2412,4.1356,3.9839,3.9839,3.9788,2.3457,2.4424,2.4873,2.4316,2.3535,2.2637,2.1621,2.0498,1.9434,1.8539,1.8159,1.8008,1.8008,1.8008,1.873,2.0937,2.1562,2.2744,2.5498,2.7217,2.8994,3.1113,3.3691,3.5351,3.5508,3.583,3.6016,3.6016,3.6016,3.6016,3.6016,3.6016,3.6074,3.6336,3.6539,3.6452,3.5976,3.5696,3.5385,3.4962,3.4929,3.4984,3.5232,3.5356,3.5418,3.5418,3.5418,3.5418,0.0,3.5418,3.5418,3.5418,3.5418,3.5418,3.5345,3.4724,3.4724,3.4802,3.3806,3.3633,3.3848,3.3893,3.411,3.439,3.4869,3.5653,3.632,3.632,3.632,3.632,3.632,3.6526,3.7108,3.8477,3.9065,3.9634,4.0997,4.1311,4.1311,4.1311,4.1311,4.1311,4.1311,4.1819,4.2382,4.2744,4.4205,4.5372,4.5734,4.6682,4.7309,4.7309,4.7309,4.7309,4.7309,4.7309,4.7309,4.7309,4.7309,4.7309,4.7309,4.6344,4.5779,4.5779,4.4442,4.3279,4.2257,4.1319,4.0453,3.9697,3.9697,3.9697,0.0,2.2402,2.3359,2.3301,2.2715,2.1826,2.0615,1.9734,0.0,1.8086,1.7949,1.7998,1.8086,1.8105,1.8437,1.9482,2.039,2.1955,2.493,2.6523,2.8652,3.1953,3.3447,3.4365,3.4756,3.5537,3.6016,3.6016,3.6016,3.6016,3.6016,3.6016,3.6006,3.5976,3.5976,3.571,3.525,3.52,3.4754,3.3922,3.461,3.4922,3.4922,3.5242,3.5418,3.5418,3.5418,3.5418,3.5418,3.5418,3.5418,3.5418,3.5418,3.5407,3.5273,3.4424,3.4411,3.4596,3.3838,3.3866,3.4236,3.4352,3.4758,3.5157,3.4591,3.5256,3.6211,3.6211,3.6211,3.6211,3.6266,3.6839,3.7566,3.8477,3.9376,4.0224,4.106,4.1261,4.1311,4.1311,4.1311,4.1311,4.1311,4.1311,4.1634,4.2647,4.364,4.467,4.5689,4.6682,4.7309,4.7309,4.7309,4.7309,4.7309,4.7309,4.7309,4.7309,4.7309,4.7309,4.7309,4.6255,4.5644,4.5644,4.4069,4.2786,4.1838,4.0415,3.9697,3.9697,3.9697,3.9697,1.7298,0.0,1.9209,1.8555,1.8486,1.8418,0.0,1.7734,1.7686,1.7106,1.7305,1.7832,1.8809,1.8984,1.9912,2.2754,2.3662,2.4881,2.7207,2.9785,3.21,3.3896,3.4971,3.5605,3.5703,3.5898,3.6016,3.6016,3.6016,3.6016,3.6016,3.6016,3.5869,3.5557,3.5537,3.534,3.4838,3.4764,3.4585,3.4298,3.4673,3.5046,3.5294,3.5356,3.5418,3.5418,3.5418,3.5418,3.5418,3.5418,3.5418,3.5418,3.5418,3.5211,3.489,3.4733,3.4277,3.3717,3.3501,3.3299,3.309,3.309,3.3501,3.4009,3.384,3.4669,3.5598,3.5598,3.5256,3.5157,3.6048,3.6091,3.6231,3.7512,3.8477,3.9324,4.0173,4.0846,4.1311,4.1311,4.1311,4.1311,4.1311,4.1311,4.1634,4.2647,4.364,4.467,4.5689,4.6682,4.7309,4.7309,4.7309,4.7309,4.7309,4.7309,4.7309,4.7309,4.7309,4.7309,4.7309,4.5403,4.4349,4.4349,4.207,4.0693,4.0224,3.989,3.9697,3.9697,3.9697,3.9697,1.5762,1.7148,1.8486,1.8018,1.8223,1.8477,1.8242,1.792,1.7607,1.733,0.0,1.8008,1.9082,1.9443,2.0449,2.3115,2.4228,2.5801,2.875,3.1426,3.3486,3.457,3.5478,3.6016,3.6016,3.6016,3.6016,3.6016,3.6016,3.6016,3.6016,3.584,3.5625,3.54,3.5,3.4668,3.4414,3.4373,3.4294,3.4173,3.4485,3.4859,3.517,3.5356,3.5418,3.5418,3.5418,3.5418,3.5418,3.5418,3.5418,3.5418,3.5418,3.5148,3.4795,3.4577,3.3989,3.3348,3.3151,3.2923,3.2669,3.2669,3.3126,3.3568,3.3296,3.384,3.4602,3.4936,3.4758,3.4647,3.5312,3.5433,3.5697,3.6804,3.7979,3.9065,3.9904,4.0744,4.1311,4.1311,4.1311,4.1311,4.1311,4.1311,4.1782,4.3273,4.3923,4.4823,4.6314,4.6975,4.7309,4.7309,4.7309,4.7309,4.7309,4.6873,4.6594,4.6594,4.7019,4.7019,4.6447,4.478,4.3361,4.2168,4.0794,3.9981,3.9697,3.9697,3.9697,3.9697,3.9697,3.9697,1.5732,1.7607,1.9385,1.8994,1.9365,1.9785,1.9658,1.8789,0.0,0.0,0.0,0.0,1.9502,2.0127,0.0,2.2822,2.4287,2.6445,3.0,3.2246,3.3809,3.4609,3.5478,3.6016,3.6016,3.6016,3.6016,3.6016,3.5957,3.5928,3.5928,3.5517,3.5264,3.5195,3.4463,3.4043,3.3975,3.3975,3.398,3.3985,3.4235,3.4475,3.459,3.517,3.5222,3.5036,3.5108,3.517,3.517,3.517,3.517,3.517,3.5088,3.4912,3.46,3.4015,3.3551,3.3234,3.2861,3.2669,3.2669,3.2669,3.3069,3.3353,3.2841,3.3069,3.3568,3.4099,3.4211,3.4256,3.448,3.4869,3.5466,3.6414,3.7701,3.9065,3.9904,4.0744,4.1311,4.1311,4.1311,4.1311,4.1311,4.1311,4.1931,4.3796,4.4078,4.4823,4.6829,4.7062,4.7121,4.7266,4.7309,4.7309,4.7309,4.6535,4.5883,4.5598,4.6344,4.6211,4.4872,4.4022,4.2461,4.007,4.0032,3.9929,3.9697,3.9697,3.9697,3.9697,3.9697,3.9697,1.7217,1.8965,1.9881,1.7633,1.8262,1.9189,1.8467,1.8144,1.8008,0.0,0.0,0.0,0.0,2.2422,2.3769,0.0,0.0,2.9502,3.1572,3.3086,3.415,3.4639,3.5478,3.6016,3.6016,3.6016,3.6016,3.6016,3.5693,3.5488,3.5488,3.5059,3.4639,3.4287,3.4141,3.3896,3.3525,3.3525,3.3802,3.4298,3.436,3.3945,3.3141,3.4704,3.457,3.3204,3.3829,3.411,3.411,3.411,3.411,3.407,3.3743,3.3882,3.4054,3.2811,3.2553,3.282,3.27,3.2669,3.2669,3.2669,3.2784,3.2841,3.2727,3.2784,3.2841,3.2944,3.3001,3.3218,3.4201,3.4591,3.4969,3.6294,3.7701,3.9065,3.9904,4.0744,4.1311,4.1311,4.1311,4.1311,4.1311,4.1311,4.1683,4.284,4.3033,4.3782,4.5779,4.6018,4.6358,4.7207,4.7309,4.7309,4.7309,4.7164,4.6358,4.4638,4.447,4.374,4.2266,4.2035,4.1269,3.9788,3.9736,3.9736,3.9697,3.9697,3.9697,3.9697,3.9697,3.9697,1.6113,1.8037,1.9627,1.8408,1.9932,2.1621,2.1221,2.0781,2.0439,0.0,0.0,0.0,0.0,0.0,2.5352,2.8018,2.9482,3.0801,3.2295,3.3203,3.3877,3.4307,3.4922,3.5312,3.5312,3.5312,3.5312,3.5312,3.5127,3.5019,3.5019,3.46,3.4267,3.4082,3.3838,3.3623,3.3418,3.3418,3.367,3.411,3.3379,3.3243,3.3621,3.3306,3.318,3.3117,3.3082,3.3082,3.3063,3.2841,3.2753,3.2768,3.2947,3.2633,3.2078,3.122,3.1347,3.195,3.195,3.2305,3.2669,3.2669,3.2669,3.2669,3.2669,3.2669,3.2669,3.2669,3.2669,3.2841,3.3388,3.3773,3.4155,3.4803,3.61,3.7435,3.8465,3.9467,4.0351,4.0933,4.1211,4.1311,4.1311,4.1311,4.1634,4.2647,4.2792,4.3307,4.4808,4.4992,4.519,4.5613,4.5673,4.5673,4.5673,4.519,4.4854,4.49,4.3782,4.2682,4.1654,4.1604,4.0982,3.9749,3.9697,3.9697,3.9697,3.9697,3.9697,3.9697,3.9697,3.9697,1.5488,1.7295,1.9228,1.9639,2.1562,2.3447,2.3848,2.3281,2.2773,0.0,0.0,0.0,0.0,2.5264,0.0,3.0146,3.0957,3.1601,3.2773,3.3301,3.3701,3.4033,3.4443,3.4697,3.4697,3.4697,3.4697,3.4697,3.4609,3.4551,3.4551,3.415,3.3916,3.3916,3.3594,3.3418,3.3418,3.3092,3.3082,3.3398,3.2673,3.2464,3.279,3.1954,3.1835,3.231,3.1918,3.1871,3.1896,3.1586,3.1399,3.133,3.1713,3.1159,3.015,3.0174,3.0694,3.1343,3.1526,3.2123,3.2669,3.2669,3.2669,3.2669,3.2669,3.2669,3.2669,3.2669,3.2669,3.2669,3.2669,3.3126,3.3625,3.3885,3.4902,3.6088,3.7168,3.8283,3.939,4.03,4.0883,4.1211,4.1261,4.1311,4.1547,4.2333,4.2466,4.2806,4.3829,4.3923,4.4031,4.4266,4.4312,4.4312,4.4312,4.3355,4.3355,4.461,4.3033,4.1805,4.1382,4.1219,4.0743,3.9788,3.9749,3.9697,3.9697,3.9697,3.9697,3.9697,3.9697,3.9697,1.7236,1.8188,1.9036,2.0654,2.1562,2.2432,2.4014,2.3666,0.0,2.5128,0.0,0.0,0.0,2.7539,2.9385,3.166,3.2051,3.2383,3.3252,3.375,3.4033,3.4072,3.4443,3.4697,3.4697,3.4697,3.4697,3.4697,3.4336,3.4121,3.4121,3.3701,3.3467,3.3467,3.3437,3.3418,3.3418,3.21,3.1634,3.1944,3.3199,3.1762,2.8172,3.0955,3.1029,2.9034,2.9705,3.0159,3.042,3.0393,3.022,2.983,2.9571,2.9119,2.8874,3.0597,3.1227,3.1401,3.2305,3.2612,3.2669,3.2669,3.2669,3.2669,3.2669,3.2669,3.2669,3.2669,3.2669,3.2669,3.2669,3.3126,3.3784,3.4603,3.5311,3.6022,3.6853,3.7983,3.8951,3.9274,4.0185,4.0997,4.1261,4.1311,4.1311,4.1411,4.1411,4.1782,4.2792,4.2937,4.3259,4.4219,4.4312,4.4312,4.4312,4.3355,4.2744,4.2647,4.1372,4.0593,4.0593,4.0096,3.9929,4.0083,3.9839,3.9697,3.9697,3.9697,3.9697,3.9697,3.9697,3.9697,1.5781,1.7686,1.9553,2.0244,2.1943,0.0,0.0,2.5352,2.6035,2.7764,2.8037,0.0,0.0,0.0,3.0166,3.1543,3.1992,3.2461,3.3301,3.3564,3.3672,3.3672,3.301,3.257,3.257,3.257,3.257,3.257,3.3293,3.3672,3.3672,3.3516,3.3418,3.3418,3.3418,3.2965,3.21,3.1579,3.0466,2.8895,2.9426,2.9296,2.8583,2.8509,2.8523,2.8655,2.8533,2.8652,2.8935,2.8691,2.8499,2.8386,2.8027,2.8144,2.854,2.8659,2.9066,2.9589,2.9952,3.048,3.1063,3.1652,3.1825,3.195,3.2487,3.2669,3.2669,3.2669,3.2669,3.2669,3.2669,3.2841,3.3115,3.3424,3.3695,3.4134,3.5212,3.6499,3.7678,3.8481,3.9866,4.0933,4.1047,4.1211,4.1311,4.1311,4.1311,4.1448,4.1819,4.1868,4.2016,4.2395,4.2444,4.2444,4.2444,4.2115,4.1769,4.1458,4.1034,4.0593,4.0287,4.0032,3.9929,3.9839,3.9736,3.9697,3.9697,3.9697,3.9697,3.9697,3.9697,3.9697,1.54,1.7607,2.001,2.043,0.0,0.0,2.6055,2.6689,2.7617,2.9746,2.9726,2.9404,2.9687,2.9883,3.0381,3.1533,3.1973,3.2461,3.3301,3.3029,3.2765,3.2765,3.1909,3.1313,3.1313,3.1707,3.1973,3.1973,3.2829,3.3418,3.3418,3.3418,3.3418,3.3418,3.2965,3.2301,3.1313,3.0401,2.9043,2.7078,2.6585,2.6851,2.7874,2.6776,2.6801,2.7676,2.7117,2.713,2.7424,2.7342,2.7359,2.7415,2.7167,2.7487,2.8011,2.7659,2.796,2.854,2.8829,2.953,3.047,3.1111,3.1526,3.1883,3.2498,3.2669,3.2669,3.2669,3.2669,3.2669,3.2669,3.2669,3.2669,3.2669,3.2669,3.3058,3.4256,3.5553,3.6834,3.806,3.9609,4.0795,4.0883,4.1097,4.1311,4.1311,4.1311,4.1311,4.1311,4.1311,4.1311,4.1311,4.1311,4.1261,4.1161,4.1147,4.1047,4.0795,4.0681,4.0529,4.0236,4.0083,3.9929,3.9839,3.9736,3.9697,3.9697,3.9697,3.9697,3.9697,3.9697,3.9697,1.6697,1.8256,2.0244,0.0,0.0,0.0,2.7187,2.7344,2.7891,3.0898,3.082,3.0478,3.1288,3.0449,3.0156,3.1885,3.2168,3.2461,3.3238,3.2174,3.1249,3.1313,3.1313,3.1313,3.1313,3.2565,3.3355,3.3355,3.3418,3.3418,3.3418,3.3418,3.3418,3.3355,3.2036,3.1304,3.1249,2.8509,2.707,2.707,2.5366,2.4804,2.5105,2.6211,2.6302,2.5565,2.531,2.5356,2.5737,2.6362,2.6784,2.7073,2.7073,2.7073,2.7194,2.8131,2.848,2.86,2.953,3.0461,3.1285,3.1285,3.1893,3.2669,3.2669,3.268,3.268,3.2669,3.2669,3.2669,3.2669,3.2669,3.2669,3.2669,3.2669,3.3058,3.4201,3.5388,3.6619,3.8007,3.9467,4.0605,4.0833,4.111,4.1311,4.1311,4.1311,4.1311,4.1311,4.1311,4.1311,4.1311,4.1261,4.1161,4.0933,4.0883,4.0795,4.0504,4.0236,4.0236,4.0504,3.9993,3.9839,4.007,3.9839,3.9697,3.9697,3.9697,3.9697,3.9697,3.9697,3.9697,1.6785,1.8705,0.0,2.208,0.0,0.0,0.0,2.8447,0.0,0.0,3.1103,3.0712,2.947,2.9338,2.9329,2.8946,2.936,2.9832,3.0348,3.0095,3.0216,3.1185,3.041,3.0216,3.1185,3.1707,3.1909,3.1909,3.2829,3.3418,3.3418,3.3418,3.2965,3.1973,3.1302,3.0065,2.8077,2.6987,2.5968,2.5005,2.4465,2.4401,2.4767,2.4824,2.4872,2.4901,2.4802,2.4952,2.5324,2.5994,2.6297,2.6449,2.6943,2.7073,2.7133,2.7427,2.7547,2.7547,2.784,2.854,2.9362,2.9362,2.9952,3.083,3.1536,3.171,3.1825,3.2487,3.2669,3.2669,3.2669,3.2669,3.2669,3.2669,3.2669,3.2784,3.3172,3.4792,3.6294,3.6727,3.8662,4.0236,4.0326,4.0744,4.1047,4.1047,4.1161,4.1311,4.1311,4.1147,4.1047,4.1047,4.0858,4.0707,4.0656,4.0593,4.0491,4.0236,4.0134,4.0134,4.0236,3.989,3.9736,3.9839,3.9736,3.9697,3.9697,3.9697,3.9697,3.9697,3.9697,3.9697,1.8408,2.043,0.0,2.4004,2.6123,2.8232,2.9424,0.0,0.0,0.0,3.0403,2.999,2.8322,2.8095,2.8059,2.7624,2.7929,2.8366,2.8751,2.8811,2.906,2.9956,2.9252,2.9317,3.0719,3.0393,3.0329,3.0837,3.1171,3.1558,3.207,3.2132,3.1747,3.09,3.0167,2.8714,2.6487,2.5773,2.4971,2.4086,2.3954,2.3991,2.4174,2.3976,2.4035,2.4224,2.4026,2.4299,2.4734,2.541,2.5831,2.6136,2.6571,2.67,2.67,2.67,2.67,2.6761,2.7012,2.7719,2.848,2.848,2.9126,3.0001,3.0587,3.0577,3.0577,3.1767,3.194,3.1883,3.2545,3.2669,3.2669,3.2669,3.2669,3.2841,3.3332,3.4525,3.5761,3.6684,3.823,3.9531,4.0019,4.044,4.0744,4.0744,4.0858,4.0959,4.0959,4.0846,4.0744,4.0744,4.0605,4.0453,4.0338,4.0338,4.0249,3.9981,3.9929,3.9929,3.9929,3.9788,3.9465,3.8985,3.8985,3.8764,3.8319,3.8319,3.8319,3.8319,3.8764,3.8985,2.0674,2.2662,0.0,2.6621,2.7812,0.0,3.0402,3.0995,3.0899,2.9781,0.0,2.8433,2.7511,2.6797,2.6516,2.7142,2.7286,2.7492,2.802,2.8009,2.7946,2.8072,2.8072,2.8574,2.9821,2.895,2.8753,2.9936,2.9066,2.9003,3.0121,3.0183,3.0121,2.9998,2.8656,2.7264,2.6001,2.4637,2.3991,2.3991,2.3691,2.3552,2.3552,2.3552,2.3552,2.3537,2.3237,2.3425,2.4046,2.4734,2.5349,2.5953,2.6014,2.6014,2.6014,2.6014,2.6014,2.6075,2.67,2.7539,2.8292,2.8241,2.882,2.958,2.958,2.9157,2.903,3.0694,3.0742,3.0684,3.2248,3.2669,3.2669,3.2669,3.2669,3.3001,3.4099,3.4424,3.5124,3.718,3.7967,3.8598,3.9698,4.0236,4.0453,4.0504,4.0504,4.0504,4.0504,4.0453,4.0453,4.0453,4.0453,4.0351,4.007,4.0083,3.9981,3.9749,3.9697,3.9645,3.953,3.953,3.9037,3.7938,3.7779,3.7233,3.6185,3.6185,3.6185,3.624,3.7287,3.7725,2.0048,2.2021,0.0,0.0,2.8945,3.019,2.9456,2.9418,2.9355,2.9108,2.8148,2.703,2.5835,2.5649,2.5405,2.4566,2.469,2.5265,2.6352,2.6495,2.6869,2.7946,2.8072,2.826,2.8637,2.8449,2.8386,2.8699,2.9377,2.9927,3.0183,3.0183,2.9688,2.8574,2.7023,2.5573,2.4202,2.3569,2.3318,2.3318,2.3245,2.3215,2.3215,2.3215,2.3215,2.3208,2.3142,2.3175,2.3355,2.4046,2.4417,2.4602,2.5103,2.5349,2.5349,2.5349,2.5349,2.5349,2.548,2.6128,2.6831,2.6067,2.6476,2.7237,2.7237,2.7116,2.7478,2.9571,3.0275,3.0616,3.2008,3.2555,3.2669,3.2669,3.2669,3.2784,3.3058,3.3818,3.4636,3.5124,3.675,3.8096,3.8319,3.9389,4.0236,4.0453,4.0504,4.0504,4.0504,4.0338,4.0185,4.0185,3.9993,3.9852,3.9788,3.9788,3.9736,3.9697,3.9697,3.9258,3.8332,3.8279,3.8161,3.7897,3.7007,3.6457,3.6185,3.6185,3.6185,3.6197,3.6457,3.6576,2.0088,0.0,0.0,2.7822,0.0,3.0704,3.003,2.9353,2.8742,2.8146,2.7013,2.5676,2.4394,2.423,2.4101,2.3488,2.3508,2.3865,2.4485,2.5172,2.5862,2.6603,2.6666,2.6914,2.7595,2.6541,2.6354,2.7595,2.7145,2.7322,2.8569,2.807,2.7393,2.6666,2.5864,2.4719,2.3362,2.3193,2.3106,2.3106,2.3106,2.3106,2.3106,2.3106,2.3106,2.3106,2.3106,2.3106,2.3168,2.3798,2.4108,2.4108,2.4487,2.461,2.461,2.461,2.461,2.4672,2.498,2.5402,2.5753,2.5288,2.5402,2.5815,2.5815,2.5623,2.5912,2.8426,2.9089,2.9443,3.1536,3.2143,3.2315,3.2487,3.2612,3.2669,3.2669,3.3161,3.3829,3.4368,3.5881,3.7287,3.7791,3.9025,3.9942,4.0096,4.0108,4.0108,4.0108,3.9993,3.9929,3.9929,3.9788,3.9697,3.9697,3.9697,3.9697,3.9697,3.9697,3.9141,3.7938,3.7394,3.6858,3.6263,3.5663,3.5113,3.4514,3.4514,3.4514,3.4514,3.5113,3.5322,1.9824,0.0,2.5322,2.8633,3.0117,0.0,3.0567,2.9717,2.8564,2.7254,2.5981,2.4702,2.3355,2.3106,2.3106,2.3106,2.3293,2.3479,2.3479,2.4579,2.537,2.5133,2.5071,2.5431,2.6225,2.4579,2.4332,2.6529,2.4879,2.4695,2.6892,2.5798,2.5071,2.5071,2.4887,2.4216,2.3113,2.3106,2.3106,2.3106,2.3106,2.3106,2.3106,2.3106,2.3106,2.3106,2.3106,2.3106,2.3168,2.3673,2.3922,2.3922,2.3922,2.3922,2.3922,2.3922,2.3922,2.3984,2.4548,2.4734,2.4734,2.4734,2.4734,2.4734,2.4734,2.4355,2.4525,2.7349,2.7829,2.8137,3.0956,3.173,3.1845,3.2133,3.2373,3.2555,3.2669,3.2669,3.3001,3.3987,3.5278,3.663,3.8003,3.9037,3.9697,3.9697,3.9697,3.9697,3.9697,3.9697,3.9697,3.9697,3.9697,3.9697,3.9697,3.9697,3.9697,3.9697,3.9697,3.9089,3.7672,3.6684,3.5542,3.4201,3.4201,3.3717,3.2669,3.2669,3.2669,3.2727,3.3717,3.4032,0.0,0.0,2.5625,0.0,2.9648,3.0093,0.0,0.0,2.8564,2.7254,2.5981,2.4702,2.3355,2.3106,2.3106,2.3106,2.4092,2.4826,2.4826,2.5965,2.6321,2.5256,2.5071,2.4702,2.372,2.4332,2.501,2.5317,2.6042,2.665,2.6952,2.5798,2.5071,2.5071,2.3969,2.3293,2.3106,2.3106,2.3106,2.3106,2.3106,2.3106,2.3106,2.3106,2.3106,2.3106,2.3106,2.3106,2.3113,2.3168,2.3238,2.3238,2.3238,2.3238,2.3238,2.3238,2.3238,2.323,2.3362,2.3355,2.3355,2.3355,2.3355,2.3355,2.3355,2.3293,2.3783,2.6459,2.7366,2.8077,3.0665,3.1556,3.1787,3.1845,3.1903,3.2076,3.2612,3.2669,3.2727,3.2898,3.4736,3.69,3.9089,3.9581,3.9697,3.9697,3.9697,3.9697,3.9697,3.9697,3.9697,3.9697,3.9697,3.9697,3.9697,3.9697,3.9697,3.9697,3.9697,3.8712,3.6511,3.6294,3.5168,3.3001,3.2955,3.2841,3.2669,3.2669,3.2669,3.2669,3.2898,3.2887,1.8384,2.1523,2.4668,0.0,2.8682,2.9199,2.9565,2.965,2.9357,2.828,2.7598,2.6633,2.4579,2.4216,2.4216,2.4216,2.4702,2.5378,2.6042,2.6034,2.5729,2.5194,2.5071,2.4887,2.4278,2.537,2.6164,2.6164,2.6042,2.592,2.592,2.4702,2.3969,2.3969,2.3417,2.3106,2.3106,2.3106,2.3106,2.3106,2.3106,2.3106,2.3106,2.3106,2.3106,2.3106,2.3106,2.3106,2.3106,2.3106,2.3106,2.3106,2.3106,2.3106,2.3106,2.3106,2.3106,2.3106,2.3106,2.3106,2.3106,2.3106,2.3106,2.3106,2.3106,2.3106,2.3658,2.6261,2.7125,2.7787,3.0382,3.117,3.1344,3.1498,3.1498,3.1614,3.2086,3.2315,3.2716,3.3547,3.4525,3.5991,3.8279,3.8712,3.8921,3.9581,3.9697,3.9697,3.9697,3.9697,3.9697,3.9697,3.9697,3.9697,3.9697,3.9697,3.9697,3.9697,3.9089,3.7938,3.624,3.5608,3.4413,3.2727,3.2669,3.2669,3.2669,3.2669,3.2669,3.2669,3.2669,3.2612,0.0,0.0,2.2682,2.5752,2.7168,2.8144,0.0,0.0,2.9706,2.9186,2.917,2.8528,2.6317,2.5733,2.5554,2.5554,2.5859,2.6277,2.6892,2.6164,2.5554,2.5554,2.5317,2.5256,2.5562,2.6771,2.7375,2.7013,2.6103,2.5439,2.5133,2.3845,2.3106,2.3106,2.3106,2.3106,2.3106,2.3106,2.3106,2.3106,2.3106,2.3106,2.3106,2.3106,2.3106,2.3106,2.3106,2.3106,2.3106,2.3106,2.3106,2.3106,2.3106,2.3106,2.3106,2.3106,2.3106,2.3106,2.3106,2.3106,2.3106,2.3106,2.3106,2.3106,2.3106,2.3106,2.3596,2.5896,2.652,2.7013,2.9313,3.0157,3.045,3.0665,3.0976,3.1334,3.1845,3.2133,3.2753,3.4201,3.448,3.5234,3.7512,3.7897,3.8319,3.953,3.9697,3.9697,3.9697,3.9697,3.9697,3.9697,3.9697,3.9697,3.9697,3.9697,3.9581,3.9258,3.8384,3.7233,3.5815,3.4958,3.3931,3.2727,3.2669,3.2669,3.2669,3.2669,3.2669,3.2669,3.2669,3.2612,0.0,1.7559,0.0,2.2574,2.4941,2.6816,0.0,0.0,2.9111,2.9485,2.9894,2.97,2.8361,2.7489,2.6892,2.6892,2.7907,2.8325,2.7134,2.6952,2.6892,2.6892,2.5859,2.5562,2.6771,2.8026,2.8325,2.7073,2.6952,2.6346,2.5133,2.3845,2.3106,2.3106,2.3106,2.3106,2.3106,2.3106,2.3106,2.3106,2.3106,2.3106,2.3106,2.3106,2.3106,2.3106,2.3106,2.3106,2.3106,2.3106,2.3106,2.3106,2.3106,2.3106,2.3106,2.3106,2.3106,2.3106,2.3106,2.3106,2.3106,2.3106,2.3106,2.3106,2.3106,2.3106,2.3417,2.4826,2.5194,2.5501,2.6831,2.8086,2.8979,2.9039,3.002,3.117,3.2086,3.2315,3.2753,3.4201,3.448,3.5234,3.7512,3.7897,3.8319,3.953,3.9697,3.9697,3.9697,3.9697,3.9697,3.9697,3.9697,3.9697,3.9697,3.9697,3.9193,3.8056,3.7938,3.6911,3.4692,3.4536,3.3931,3.2727,3.2669,3.2669,3.2669,3.2669,3.2669,3.2669,3.2669,3.2669,0.0,0.0,0.0,2.0575,2.2421,2.4042,2.5459,2.6787,2.79,2.8603,2.9082,2.9296,2.9163,2.8655,2.8206,2.8206,2.8623,2.9048,2.9431,2.876,2.8206,2.8206,2.7838,2.7718,2.8206,2.9422,2.9303,2.7134,2.7013,2.6468,2.5194,2.3845,2.3472,2.4332,2.3542,2.3106,2.3106,2.3106,2.3106,2.3106,2.3106,2.3106,2.3106,2.3106,2.3106,2.3106,2.3106,2.3106,2.3106,2.3106,2.3106,2.3106,2.3106,2.3106,2.3106,2.3106,2.3106,2.3106,2.3106,2.3106,2.3106,2.3106,2.3106,2.3106,2.3106,2.3106,2.3355,2.4702,2.5071,2.5378,2.665,2.7966,2.9107,2.9962,3.0518,3.1122,3.1845,3.196,3.2248,3.3161,3.3332,3.3818,3.5454,3.6306,3.718,3.8384,3.9206,3.9697,3.9697,3.9697,3.9697,3.9697,3.9697,3.9697,3.9697,3.9697,3.9206,3.8003,3.6915,3.581,3.4569,3.3474,3.2801,3.2727,3.2669,3.2669,3.2669,3.2669,3.2669,3.2669,3.2669,3.2612,1.4987,0.0,0.0,0.0,2.0346,2.1597,2.3857,2.5088,2.6084,2.7383,2.7988,2.8457,2.9033,2.9021,2.895,2.9091,2.9109,2.9477,3.0324,2.9303,2.8634,2.9109,2.875,2.8689,2.9296,3.0161,2.9634,2.7177,2.7426,2.6892,2.5194,2.4278,2.3969,2.4394,2.3534,2.3106,2.3106,2.3106,2.3106,2.3106,2.3106,2.3106,2.3106,2.3106,2.3106,2.3106,2.3106,2.3106,2.3106,2.3106,2.3106,2.3106,2.3106,2.3106,2.3106,2.3106,2.3106,2.3106,2.3106,2.3106,2.3106,2.3106,2.3106,2.3106,2.3106,2.3106,2.3293,2.4147,2.4456,2.4641,2.5493,2.6996,2.8614,2.9912,3.0587,3.1064,3.1682,3.1787,3.1971,3.2555,3.2669,3.3058,3.4312,3.5124,3.6034,3.718,3.8332,3.9089,3.9089,3.9478,3.9697,3.9697,3.9697,3.9622,3.9433,3.91,3.8304,3.6937,3.5465,3.4332,3.3503,3.2406,3.1961,3.2271,3.2271,3.2271,3.2271,3.2426,3.2442,3.2442,3.222,3.2004,0.0,0.0,0.0,0.0,0.0,0.0,2.333,2.3539,2.3598,2.583,2.6611,2.7178,2.8066,2.8564,2.8984,2.9479,2.9597,2.9626,2.9626,2.8474,2.8125,2.9458,2.8474,2.8341,3.0023,3.0176,2.9285,2.7159,2.8161,2.7803,2.5285,2.517,2.4564,2.3153,2.3106,2.3168,2.3106,2.3106,2.3106,2.3106,2.3106,2.3106,2.3106,2.3106,2.3106,2.3106,2.3106,2.3106,2.3106,2.3106,2.3106,2.3106,2.3106,2.3106,2.3106,2.3106,2.3106,2.3106,2.3106,2.3106,2.3106,2.3106,2.3106,2.3106,2.3106,2.3106,2.3106,2.3106,2.3106,2.3113,2.3168,2.5048,2.728,2.8614,2.9903,3.0995,3.1682,3.1787,3.1971,3.2555,3.2669,3.3058,3.4256,3.448,3.4902,3.5979,3.7126,3.7844,3.7844,3.8868,3.9581,3.9608,3.9608,3.9395,3.8894,3.789,3.6502,3.4757,3.3685,3.2545,3.1425,3.136,3.136,3.1381,3.1381,3.1381,3.1381,3.1805,3.1967,3.1957,3.1216,3.0802,1.378,0.0,0.0,0.0,0.0,0.0,1.858,1.9629,2.0967,2.3135,2.3926,2.4859,2.6803,2.7094,2.7278,2.7897,2.8913,2.9626,2.9626,2.9281,2.9169,2.957,2.9281,2.9263,2.9726,2.9746,2.9098,2.757,2.7761,2.7645,2.695,2.7214,2.5997,2.2816,2.3901,2.4092,2.3113,2.3106,2.3106,2.3106,2.3106,2.3106,2.3106,2.3106,2.3106,2.3106,2.3106,2.3106,2.3106,2.3106,2.3106,2.3106,2.3106,2.3106,2.3106,2.3106,2.3106,2.3106,2.3106,2.3106,2.3106,2.3106,2.3106,2.3106,2.3106,2.3106,2.3106,2.3106,2.3106,2.3293,2.427,2.5063,2.6147,2.8376,2.9166,2.9835,3.115,3.1441,3.1672,3.2555,3.2669,3.2784,3.3172,3.3931,3.4591,3.4902,3.5925,3.6684,3.6684,3.6954,3.7358,3.7785,3.7813,3.7645,3.7148,3.6846,3.5789,3.3654,3.2953,3.2243,3.1415,3.106,3.104,3.1371,3.1381,3.1381,3.1381,3.1495,3.1436,3.1195,3.0575,3.0252,1.5171,1.5914,1.6822,1.6322,0.0,0.0,1.8259,1.8765,1.9597,2.1881,2.2611,2.3475,2.5508,2.5894,2.6161,2.7093,2.789,2.8476,2.8785,2.8926,2.9033,2.9033,2.9033,2.9101,2.9277,2.9297,2.8855,2.771,2.8125,2.8182,2.7605,2.7833,2.6492,2.3255,2.4102,2.4038,2.2901,2.2908,2.2974,2.3106,2.3106,2.3106,2.3106,2.3106,2.3106,2.3106,2.3106,2.3106,2.3106,2.3106,2.3106,2.3106,2.3106,2.3106,2.3106,2.3106,2.3106,2.3106,2.3106,2.3106,2.3106,2.3106,2.3106,2.3106,2.3106,2.3106,2.3106,2.3106,2.3106,2.3293,2.4031,2.4702,2.5615,2.7607,2.8504,2.9344,3.0966,3.1325,3.1556,3.2373,3.2545,3.2555,3.2669,3.3275,3.3773,3.3773,3.4736,3.5419,3.5205,3.5606,3.5948,3.6119,3.6124,3.5911,3.5455,3.5,3.4074,3.2584,3.1799,3.1222,3.0835,3.0543,3.0522,3.0791,3.0801,3.0748,3.063,3.0815,3.0588,2.9961,2.9644,2.947,1.7349,1.7616,1.8276,1.9012,1.8196,0.0,1.9992,1.946,1.9039,2.1194,2.175,2.241,2.4014,2.4506,2.5072,2.6308,2.6495,2.6744,2.7555,2.7963,2.8154,2.8154,2.8154,2.8301,2.8672,2.8711,2.8384,2.7668,2.8772,2.8857,2.7534,2.7636,2.6553,2.3959,2.4058,2.3691,2.2747,2.2632,2.2779,2.3189,2.3065,2.3003,2.3003,2.3003,2.3003,2.301,2.304,2.3054,2.3054,2.3091,2.3106,2.3106,2.3106,2.3106,2.3106,2.3106,2.3106,2.3106,2.3106,2.3106,2.3106,2.3106,2.3106,2.3106,2.3106,2.3106,2.3106,2.3106,2.3106,2.3106,2.3106,2.3969,2.5256,2.665,2.7847,2.9148,3.0839,3.1197,3.1351,3.1944,3.2089,3.2223,3.2468,3.2514,3.2514,3.2525,3.3455,3.3997,3.3573,3.4408,3.4888,3.4584,3.4526,3.4331,3.3799,3.2882,3.2085,3.1454,3.0536,2.9994,2.9994,2.9994,2.9994,2.9994,2.9994,2.9827,2.9554,2.9888,2.9568,2.8684,2.8684,2.8721,1.8533,1.9312,2.0009,1.8312,1.8752,0.0,1.7324,1.7515,1.819,1.8578,1.8678,1.9254,2.1086,2.1659,2.212,2.2804,2.4005,2.5458,2.721,2.7361,2.7266,2.7266,2.7266,2.7295,2.7373,2.7383,2.7454,2.767,2.8242,2.8039,2.6765,2.7962,2.7065,2.366,2.4845,2.4911,2.3645,2.2729,2.2759,2.3754,2.2826,2.2367,2.2367,2.2367,2.2367,2.2374,2.2615,2.2718,2.2732,2.3003,2.3106,2.3106,2.3106,2.3106,2.3106,2.3106,2.3106,2.3106,2.3106,2.3106,2.3106,2.3106,2.3106,2.3106,2.3106,2.3106,2.3106,2.3106,2.3106,2.3106,2.3106,2.3293,2.4085,2.6468,2.7194,2.7946,2.9988,3.0379,3.0396,3.0456,3.0957,3.1303,3.1273,3.1267,3.1332,3.1585,3.185,3.1973,3.1889,3.2076,3.2362,3.2754,3.2804,3.2594,3.2119,3.187,3.1335,3.0349,3.0141,2.9994,2.9994,2.9994,2.9994,2.9994,2.9774,2.9501,2.9185,2.9073,2.8913,2.8674,2.8461,2.8393,2.0626,2.1019,2.1542,2.0416,2.0191,0.0,0.0,1.8157,1.8291,1.9116,1.8657,1.868,2.0687,2.0869,2.1077,2.2033,2.3184,2.4311,2.5293,2.6167,2.6705,2.6705,2.6705,2.6794,2.7012,2.6941,2.6976,2.7314,2.7539,2.7482,2.71,2.7854,2.7,2.4175,2.4859,2.4482,2.2849,2.2223,2.2305,2.3041,2.2475,2.2184,2.2184,2.2184,2.2184,2.2191,2.2337,2.2403,2.2418,2.2579,2.2645,2.2681,2.2988,2.3106,2.3106,2.3106,2.3106,2.3106,2.3106,2.3106,2.3106,2.3106,2.3106,2.3106,2.3106,2.3106,2.3106,2.3106,2.3106,2.3106,2.3106,2.3106,2.3737,2.6104,2.6722,2.7272,2.945,2.9883,2.9812,2.9502,2.9877,3.0414,3.0836,3.1066,3.1196,3.1371,3.1381,3.1298,3.106,3.1029,3.1058,3.1147,3.1146,3.1051,3.0806,3.0785,3.0588,3.0047,2.9994,2.9994,2.9994,2.9994,2.9942,2.9774,2.9501,2.9185,2.8877,2.8621,2.8514,2.8514,2.8344,2.8291,2.2737,2.2766,2.3071,2.2665,2.1867,2.0978,0.0,0.0,0.0,2.0053,1.9281,1.8905,2.0598,2.0416,2.0364,2.149,2.2345,2.2849,2.2675,2.4216,2.5506,2.5745,2.5889,2.6139,2.6549,2.6197,2.6201,2.6742,2.6534,2.675,2.7486,2.763,2.6727,2.4662,2.4913,2.4051,2.1998,2.194,2.2074,2.2342,2.2112,2.2001,2.2001,2.2001,2.2001,2.2001,2.2059,2.2089,2.2096,2.2162,2.2184,2.2235,2.2732,2.293,2.293,2.293,2.293,2.2937,2.2996,2.3018,2.3025,2.3091,2.3106,2.3106,2.3106,2.3062,2.3018,2.3018,2.2974,2.293,2.293,2.3108,2.3757,2.5804,2.6496,2.716,2.9074,2.9443,2.9316,2.8877,2.909,2.9589,3.0411,3.0819,3.1058,3.1112,3.1112,3.0977,3.0594,3.0553,3.0408,3.0036,2.9994,2.9994,2.9994,2.9994,2.9994,2.9994,2.9994,2.9994,2.9994,2.9942,2.9827,2.9606,2.9237,2.893,2.8684,2.8451,2.8291,2.8291,2.8291,2.8291,2.3871,2.4533,2.4879,2.2287,2.3135,2.3557,1.9339,0.0,1.9799,1.8634,0.0,1.8491,1.8798,0.0,0.0,1.8682,1.986,2.0498,1.9727,2.0803,2.2133,2.3315,2.4145,2.4646,2.4686,2.3917,2.4137,2.5792,2.4961,2.5041,2.6744,2.7359,2.6595,2.4239,2.5557,2.5221,2.2876,2.2876,2.2892,2.2875,2.1822,2.132,2.132,2.132,2.132,2.1335,2.1628,2.1752,2.1774,2.2067,2.2184,2.2191,2.2264,2.2286,2.2286,2.2286,2.2286,2.2323,2.2586,2.2681,2.2725,2.3018,2.3106,2.3106,2.3106,2.2908,2.2681,2.2681,2.2491,2.2286,2.2286,2.3036,2.4185,2.5585,2.6743,2.773,2.8742,2.8994,2.8867,2.8447,2.8787,2.9169,2.9273,2.9601,2.9876,3.0097,3.0149,3.0129,3.0087,3.0077,3.0056,3.0005,2.9994,2.9994,2.9994,2.9994,2.9994,2.9994,2.9994,2.9994,2.9994,2.9774,2.9606,2.9606,2.9036,2.8737,2.8684,2.8451,2.8291,2.8291,2.8291,2.8291,2.3863,2.4529,2.4919,2.2835,2.2989,2.2879,1.9992,1.9323,1.9255,1.916,0.0,0.0,0.0,0.0,0.0,0.0,1.8835,1.9013,1.8382,1.8752,1.9727,2.1339,2.1841,2.2442,2.3374,2.3131,2.336,2.453,2.3567,2.3865,2.6046,2.6409,2.6193,2.5388,2.5863,2.5467,2.4014,2.3303,2.2974,2.2982,2.1759,2.1211,2.1211,2.1211,2.1211,2.1218,2.1357,2.1415,2.1423,2.1562,2.162,2.162,2.162,2.1854,2.2184,2.2184,2.2184,2.2198,2.2323,2.2367,2.2389,2.2528,2.2571,2.2571,2.2571,2.2476,2.2367,2.2367,2.2279,2.2184,2.2184,2.3041,2.4194,2.5239,2.6394,2.7493,2.8372,2.8555,2.8506,2.833,2.8708,2.9079,2.9079,2.9511,2.9879,2.9994,2.9994,2.9994,2.9994,2.9994,2.9994,2.9994,2.9994,2.9994,2.9994,2.9994,2.9994,2.9994,2.9994,2.9942,2.9774,2.9659,2.9459,2.9089,2.8834,2.8621,2.8461,2.8344,2.8291,2.8291,2.8291,2.8291,2.3979,2.4531,2.4967,2.2874,2.2419,2.205,2.0121,1.9348,1.9209,1.9792,1.9306,0.0,0.0,0.0,1.8422,1.8392,0.0,1.8247,1.7305,1.7254,1.7905,1.9465,2.0017,2.0741,2.2039,2.1581,2.1779,2.3172,2.196,2.2409,2.5194,2.5528,2.568,2.5848,2.6231,2.5845,2.4683,2.3861,2.3311,2.2982,2.1759,2.1211,2.1211,2.1211,2.1211,2.1211,2.1211,2.1211,2.1211,2.1211,2.1211,2.1211,2.1211,2.1496,2.1913,2.1913,2.1913,2.1928,2.2015,2.2111,2.2184,2.2184,2.2184,2.2184,2.2184,2.2125,2.2052,2.2052,2.1986,2.1913,2.1913,2.2994,2.4285,2.4916,2.6218,2.7553,2.8135,2.8344,2.8408,2.8291,2.8814,2.9185,2.9132,2.9617,2.9994,2.9994,2.9994,2.9994,2.9994,2.9994,2.9994,2.9994,2.9994,2.9994,2.9994,2.9994,2.9994,2.9994,2.9942,2.9774,2.9606,2.9459,2.9142,2.8727,2.8631,2.8514,2.8291,2.8291,2.8291,2.8291,2.8291,2.8291,2.4548,2.5255,2.5565,2.1869,2.178,2.1859,1.9004,1.9433,2.0323,1.9968,2.1004,2.1861,2.1512,2.0822,1.9868,1.8621,1.8787,0.0,0.0,1.6174,1.6767,1.7678,1.8982,2.001,2.0426,1.8494,1.8504,2.1625,1.9951,2.0402,2.4074,2.4975,2.5207,2.4784,2.6625,2.6629,2.4511,2.4602,2.4069,2.2982,2.1759,2.1211,2.1211,2.1211,2.1211,2.1211,2.1211,2.1211,2.1211,2.1211,2.1211,2.1211,2.1211,2.1218,2.124,2.124,2.124,2.1284,2.1606,2.192,2.2184,2.2184,2.2184,2.2184,2.2184,2.1964,2.1715,2.1715,2.1489,2.124,2.124,2.295,2.4697,2.4689,2.6527,2.8257,2.8291,2.8514,2.8621,2.8344,2.8973,2.9501,2.9185,2.9617,2.9994,2.9994,2.9994,2.9994,2.9994,2.9994,2.9994,2.9994,2.9994,2.9994,2.9994,2.9994,2.9994,2.9994,2.9774,2.9606,2.9606,2.9036,2.8737,2.8684,2.8461,2.8291,2.8291,2.8291,2.8291,2.8291,2.8291,2.8291,2.533,2.5957,2.6123,2.3118,2.2745,2.2405,1.959,1.967,2.0071,1.9229,2.023,2.1079,2.0545,1.9935,1.928,1.8515,1.7636,1.6622,0.0,1.5101,1.5235,1.5846,1.7398,1.8329,1.8174,1.774,1.8287,2.0307,1.9663,2.0573,2.3814,2.482,2.5498,2.6061,2.6854,2.7016,2.6446,2.6,2.5064,2.372,2.2807,2.1979,2.1211,2.1211,2.1211,2.1211,2.1211,2.1211,2.1211,2.1211,2.1211,2.1211,2.1211,2.1211,2.1211,2.1211,2.1211,2.1225,2.1335,2.1445,2.154,2.154,2.154,2.154,2.154,2.1459,2.1379,2.1379,2.1298,2.1211,2.1211,2.291,2.4727,2.4727,2.6563,2.8291,2.8291,2.8344,2.8461,2.8568,2.8781,2.9089,2.9396,2.9606,2.9774,2.9994,2.9994,2.9994,2.9994,2.9994,2.9994,2.9994,2.9994,2.9994,2.9994,2.9994,2.9942,2.9774,2.9659,2.9396,2.9046,2.8781,2.8621,2.8461,2.8354,2.8291,2.8291,2.8291,2.8291,2.8291,2.8291,2.8291,2.6094,2.6484,2.6465,2.4124,2.3565,2.2945,2.0537,2.0517,2.0771,1.9811,2.0534,2.1223,2.1058,2.0169,1.9196,1.8405,1.7205,1.5969,0.0,1.4635,1.4542,1.4511,1.5846,1.6738,1.6769,1.6603,1.7284,1.917,1.8983,2.0129,2.3225,2.4143,2.5173,2.6453,2.6742,2.7021,2.7312,2.6479,2.5305,2.392,2.3039,2.2019,2.1035,2.1035,2.1101,2.1211,2.1211,2.1211,2.1211,2.1211,2.1211,2.1211,2.1211,2.1211,2.1211,2.1211,2.1211,2.1211,2.1211,2.1211,2.1211,2.1211,2.1211,2.1211,2.1211,2.1211,2.1211,2.1211,2.1211,2.1211,2.1211,2.2644,2.4181,2.4616,2.6227,2.7799,2.8184,2.8451,2.8558,2.8568,2.8834,2.9099,2.9248,2.9343,2.9554,2.9942,2.9994,2.9994,2.9994,2.9994,2.9994,2.9994,2.9994,2.9889,2.9554,2.9227,2.9069,2.9132,2.8847,2.8644,2.8684,2.8631,2.8461,2.8291,2.8291,2.8291,2.8291,2.8291,2.8291,2.8291,2.8135,2.8066]}]]